[[{"header":{"parameterUnit":"m.s-1","parameterCategory":1,"la1":30.6,"la2":28.766,"lo1":-90.7593,"lo2":-88.6598,"dy":0.0162,"dx":0.0183,"nx":116,"ny":114,"refTime":"2024-06-09T00:00:00:Z","depth":0,"parameterNumber":2,"parameterNumberName":"U-component_of_WINDS"},"data":[0.0,0.0,0.0,0.0,0.0,0.0,0.0,0.0,0.0,0.0,0.0,0.0,0.0,0.0,0.0,0.0,0.0,0.0,0.0,0.0,0.0,0.0,0.0,0.0,0.0,0.0,0.0,0.0,0.0,0.0,0.0,0.0,0.0,0.0,0.0,0.0,0.0,0.0,0.0,0.0,0.0,0.0,0.0,0.0,0.0,0.0,0.0,0.0,0.0,0.0,0.0,0.0,0.0,0.0,0.0,0.0,0.0,0.0,0.0,0.0,0.0,0.0,0.0,0.0,0.0,0.0,0.0,0.0,0.0,0.0,0.0,0.0,0.0,0.0,0.0,0.0,0.0,0.0,0.0,0.0,0.0,0.0,0.0,0.0,0.0,0.0,0.0,0.0,0.0,0.0,0.0,0.0,0.0,0.0,0.0,0.0,0.0,0.0,0.0,0.0,0.0,0.0,0.0,0.0,0.0,0.0,0.0,0.0,0.0,0.0,0.0,0.0,0.0,0.0,0.0,0.0,0.0,0.0,0.0,0.0,0.0,0.0,0.0,0.0,0.0,0.0,0.0,0.0,0.0,0.0,0.0,0.0,0.0,0.0,0.0,0.0,0.0,0.0,0.0,0.0,0.0,0.0,0.0,0.0,0.0,0.0,0.0,0.0,0.0,0.0,0.0,0.0,0.0,0.0,0.0,0.0,0.0,0.0,0.0,0.0,0.0,0.0,0.0,0.0,0.0,0.0,0.0,0.0,0.0,0.0,0.0,0.0,0.0,0.0,0.0,0.0,0.0,0.0,0.0,0.0,0.0,0.0,0.0,0.0,0.0,0.0,0.0,0.0,0.0,0.0,0.0,0.0,0.0,0.0,0.0,0.0,0.0,0.0,0.0,0.0,0.0,0.0,0.0,0.0,0.0,0.0,0.0,0.0,0.0,0.0,0.0,0.0,0.0,0.0,0.0,0.0,0.0,0.0,0.0,0.0,0.0,0.0,0.0,0.0,0.0,0.0,0.0,0.0,0.0,0.0,0.0,0.0,0.0,0.0,0.0,0.0,0.0,0.0,0.0,0.0,0.0,0.0,0.0,0.0,0.0,0.0,0.0,0.0,0.0,0.0,0.0,0.0,0.0,0.0,0.0,0.0,0.0,0.0,0.0,0.0,0.0,0.0,0.0,0.0,0.0,0.0,0.0,0.0,0.0,0.0,0.0,0.0,0.0,0.0,0.0,0.0,0.0,0.0,0.0,0.0,0.0,0.0,0.0,0.0,0.0,0.0,0.0,0.0,0.0,0.0,0.0,0.0,0.0,0.0,0.0,0.0,0.0,0.0,0.0,0.0,0.0,0.0,0.0,0.0,0.0,0.0,0.0,0.0,0.0,0.0,0.0,0.0,0.0,0.0,0.0,0.0,0.0,0.0,0.0,0.0,0.0,0.0,0.0,0.0,0.0,0.0,0.0,0.0,0.0,0.0,0.0,0.0,0.0,0.0,0.0,0.0,0.0,0.0,0.0,0.0,0.0,0.0,0.0,0.0,0.0,0.0,0.0,0.0,0.0,0.0,0.0,0.0,0.0,0.0,0.0,0.0,0.0,0.0,0.0,0.0,0.0,0.0,0.0,0.0,0.0,0.0,0.0,0.0,0.0,0.0,0.0,0.0,0.0,0.0,0.0,0.0,0.0,0.0,0.0,0.0,0.0,0.0,0.0,0.0,0.0,0.0,0.0,0.0,0.0,0.0,0.0,0.0,0.0,0.0,0.0,0.0,0.0,0.0,0.0,0.0,0.0,0.0,0.0,0.0,0.0,0.0,0.0,0.0,0.0,0.0,0.0,0.0,0.0,0.0,0.0,0.0,0.0,0.0,0.0,0.0,0.0,0.0,0.0,0.0,0.0,0.0,0.0,0.0,0.0,0.0,0.0,0.0,0.0,0.0,0.0,0.0,0.0,0.0,0.0,0.0,0.0,0.0,0.0,0.0,0.0,0.0,0.0,0.0,0.0,0.0,0.0,0.0,0.0,0.0,0.0,0.0,0.0,0.0,0.0,0.0,0.0,0.0,0.0,0.0,0.0,0.0,0.0,0.0,0.0,0.0,0.0,0.0,0.0,0.0,0.0,0.0,0.0,0.0,0.0,0.0,0.0,0.0,0.0,0.0,0.0,0.0,0.0,0.0,0.0,0.0,0.0,0.0,0.0,0.0,0.0,0.0,0.0,0.0,0.0,0.0,0.0,0.0,0.0,0.0,0.0,0.0,0.0,0.0,0.0,0.0,0.0,0.0,0.0,0.0,0.0,0.0,0.0,0.0,0.0,0.0,0.0,0.0,0.0,0.0,0.0,0.0,0.0,0.0,0.0,0.0,0.0,0.0,0.0,0.0,0.0,0.0,0.0,0.0,0.0,0.0,0.0,0.0,0.0,0.0,0.0,0.0,0.0,0.0,0.0,0.0,0.0,0.0,0.0,0.0,0.0,0.0,0.0,0.0,0.0,0.0,0.0,0.0,0.0,0.0,0.0,0.0,0.0,0.0,0.0,0.0,0.0,0.0,0.0,0.0,0.0,0.0,0.0,0.0,0.0,0.0,0.0,0.0,0.0,0.0,0.0,0.0,0.0,0.0,0.0,0.0,0.0,0.0,0.0,0.0,0.0,0.0,0.0,0.0,0.0,0.0,0.0,0.0,0.0,0.0,0.0,0.0,0.0,0.0,0.0,0.0,0.0,0.0,0.0,0.0,0.0,0.0,0.0,0.0,0.0,0.0,0.0,0.0,0.0,0.0,0.0,0.0,0.0,0.0,0.0,0.0,0.0,0.0,0.0,0.0,0.0,0.0,0.0,0.0,0.0,0.0,0.0,0.0,0.0,0.0,0.0,0.0,0.0,0.0,0.0,0.0,0.0,0.0,0.0,0.0,0.0,0.0,0.0,0.0,0.0,0.0,0.0,0.0,0.0,0.0,0.0,0.0,0.0,0.0,0.0,0.0,0.0,0.0,0.0,0.0,0.0,0.0,0.0,0.0,0.0,0.0,0.0,0.0,0.0,0.0,0.0,0.0,0.0,0.0,0.0,0.0,0.0,0.0,0.0,0.0,0.0,0.0,0.0,0.0,0.0,0.0,0.0,0.0,0.0,0.0,0.0,0.0,0.0,0.0,0.0,0.0,0.0,0.0,0.0,0.0,0.0,0.0,0.0,0.0,0.0,0.0,0.0,0.0,0.0,0.0,0.0,0.0,0.0,0.0,0.0,0.0,0.0,0.0,0.0,0.0,0.0,0.0,0.0,0.0,0.0,0.0,0.0,0.0,0.0,0.0,0.0,0.0,0.0,0.0,0.0,0.0,0.0,0.0,0.0,0.0,0.0,0.0,0.0,0.0,0.0,0.0,0.0,0.0,0.0,0.0,0.0,0.0,0.0,0.0,0.0,0.0,0.0,0.0,0.0,0.0,0.0,0.0,0.0,0.0,0.0,0.0,0.0,0.0,0.0,0.0,0.0,0.0,0.0,0.0,0.0,0.0,0.0,0.0,0.0,0.0,0.0,0.0,0.0,0.0,0.0,0.0,0.0,0.0,0.0,0.0,0.0,0.0,0.0,0.0,0.0,0.0,0.0,0.0,0.0,0.0,0.0,0.0,0.0,0.0,0.0,0.0,0.0,0.0,0.0,0.0,0.0,0.0,0.0,0.0,0.0,0.0,0.0,0.0,0.0,0.0,0.0,0.0,0.0,0.0,0.0,0.0,0.0,0.0,0.0,0.0,0.0,0.0,0.0,0.0,0.0,0.0,0.0,0.0,0.0,0.0,0.0,0.0,0.0,0.0,0.0,0.0,0.0,0.0,0.0,0.0,0.0,0.0,0.0,0.0,0.0,0.0,0.0,0.0,0.0,0.0,0.0,0.0,0.0,0.0,0.0,0.0,0.0,0.0,0.0,0.0,0.0,0.0,0.0,0.0,0.0,0.0,0.0,0.0,0.0,0.0,0.0,0.0,0.0,0.0,0.0,0.0,0.0,0.0,0.0,0.0,0.0,0.0,0.0,0.0,0.0,0.0,0.0,0.0,0.0,0.0,0.0,0.0,0.0,0.0,0.0,0.0,0.0,0.0,0.0,0.0,0.0,0.0,0.0,0.0,0.0,0.0,0.0,0.0,0.0,0.0,0.0,0.0,0.0,0.0,0.0,0.0,0.0,0.0,0.0,0.0,0.0,0.0,0.0,0.0,0.0,0.0,0.0,0.0,0.0,0.0,0.0,0.0,0.0,0.0,0.0,0.0,0.0,0.0,0.0,0.0,0.0,0.0,0.0,0.0,0.0,0.0,0.0,0.0,0.0,0.0,0.0,0.0,0.0,0.0,0.0,0.0,0.0,0.0,0.0,0.0,0.0,0.0,0.0,0.0,0.0,0.0,0.0,0.0,0.0,0.0,0.0,0.0,0.0,0.0,0.0,0.0,0.0,0.0,0.0,0.0,0.0,0.0,0.0,0.0,0.0,0.0,0.0,0.0,0.0,0.0,0.0,0.0,0.0,0.0,0.0,0.0,0.0,0.0,0.0,0.0,0.0,0.0,0.0,0.0,0.0,0.0,0.0,0.0,0.0,0.0,0.0,0.0,0.0,0.0,0.0,0.0,0.0,0.0,0.0,0.0,0.0,0.0,0.0,0.0,0.0,0.0,0.0,0.0,0.0,0.0,0.0,0.0,0.0,0.0,0.0,0.0,0.0,0.0,0.0,0.0,0.0,0.0,0.0,0.0,0.0,0.0,0.0,0.0,0.0,0.0,0.0,0.0,0.0,0.0,0.0,0.0,0.0,0.0,0.0,0.0,0.0,0.0,0.0,0.0,0.0,0.0,0.0,0.0,0.0,0.0,0.0,0.0,0.0,0.0,0.0,0.0,0.0,0.0,0.0,0.0,0.0,0.0,0.0,0.0,0.0,0.0,0.0,0.0,0.0,0.0,0.0,0.0,0.0,0.0,0.0,0.0,0.0,0.0,0.0,0.0,0.0,0.0,0.0,0.0,0.0,0.0,0.0,0.0,0.0,0.0,0.0,0.0,0.0,0.0,0.0,0.0,0.0,0.0,0.0,0.0,0.0,0.0,0.0,0.0,0.0,0.0,0.0,0.0,0.0,0.0,0.0,0.0,0.0,0.0,0.0,0.0,0.0,0.0,0.0,0.0,0.0,0.0,0.0,0.0,0.0,0.0,0.0,0.0,0.0,0.0,0.0,0.0,0.0,0.0,0.0,0.0,0.0,0.0,0.0,0.0,0.0,0.0,0.0,0.0,0.0,0.0,0.0,0.0,0.0,0.0,0.0,0.0,0.0,0.0,0.0,0.0,0.0,0.0,0.0,0.0,0.0,0.0,0.0,0.0,0.0,0.0,0.0,0.0,0.0,0.0,0.0,0.0,0.0,0.0,0.0,0.0,0.0,0.0,0.0,0.0,0.0,0.0,0.0,0.0,0.0,0.0,0.0,0.0,0.0,0.0,0.0,0.0,0.0,0.0,0.0,0.0,0.0,0.0,0.0,0.0,0.0,0.0,0.0,0.0,0.0,0.0,0.0,0.0,0.0,0.0,0.0,0.0,0.0,0.0,0.0,0.0,0.0,0.0,0.0,0.0,0.0,0.0,0.0,0.0,0.0,0.0,0.0,0.0,0.0,0.0,0.0,0.0,0.0,0.0,0.0,0.0,0.0,0.0,0.0,0.0,0.0,0.0,0.0,0.0,0.0,0.0,0.0,0.0,0.0,0.0,0.0,0.0,0.0,0.0,0.0,0.0,0.0,0.0,0.0,0.0,0.0,0.0,0.0,0.0,0.0,0.0,0.0,0.0,0.0,0.0,0.0,0.0,0.0,0.0,0.0,0.0,0.0,0.0,0.0,0.0,0.0,0.0,0.0,0.0,0.0,0.0,0.0,0.0,0.0,0.0,0.0,0.0,0.0,0.0,0.0,0.0,0.0,0.0,0.0,0.0,0.0,0.0,0.0,0.0,0.0,0.0,0.0,0.0,0.0,0.0,0.0,0.0,0.0,0.0,0.0,0.0,0.0,0.0,0.0,0.0,0.0,0.0,0.0,0.0,0.0,0.0,0.0,0.0,0.0,0.0,0.0,0.0,0.0,0.0,0.0,0.0,-1.5073,-1.4413,0.0,0.0,0.0,0.0,0.0,0.0,0.0,0.0,0.0,0.0,0.0,0.0,0.0,0.0,0.0,0.0,0.0,0.0,0.0,0.0,0.0,0.0,0.0,-0.8064,-0.8117,-0.8227,-0.8271,-0.8206,-0.8044,0.0,0.0,0.0,0.0,0.0,-0.7684,-0.8337,-0.894,-0.9435,-0.9848,-1.0059,-1.0092,-0.9917,-0.964,-0.926,0.0,0.0,0.0,0.0,0.0,0.0,0.0,0.0,0.0,0.0,0.0,0.0,0.0,0.0,0.0,0.0,0.0,0.0,0.0,0.0,0.0,0.0,0.0,0.0,0.0,0.0,0.0,0.0,0.0,0.0,0.0,0.0,0.0,0.0,0.0,0.0,0.0,0.0,0.0,0.0,0.0,0.0,0.0,0.0,0.0,0.0,0.0,0.0,0.0,0.0,0.0,0.0,0.0,0.0,0.0,0.0,0.0,0.0,0.0,0.0,0.0,0.0,0.0,0.0,0.0,0.0,0.0,0.0,0.0,0.0,-1.5684,-1.5176,0.0,0.0,0.0,0.0,0.0,0.0,0.0,0.0,0.0,0.0,0.0,0.0,0.0,0.0,0.0,0.0,0.0,0.0,0.0,0.0,0.0,-0.8591,-0.848,-0.8591,-0.8727,-0.8824,-0.8773,-0.8699,-0.8618,-0.814,0.0,0.0,0.0,-0.7729,-0.8093,-0.8728,-0.9317,-0.9848,-1.0105,-1.0215,-1.0204,-1.0132,-0.9943,-0.9629,-0.9129,0.0,0.0,0.0,0.0,0.0,0.0,0.0,0.0,0.0,0.0,0.0,0.0,0.0,0.0,0.0,0.0,0.0,0.0,0.0,0.0,0.0,0.0,0.0,0.0,0.0,0.0,0.0,0.0,0.0,0.0,0.0,0.0,0.0,0.0,0.0,0.0,0.0,0.0,0.0,0.0,0.0,0.0,0.0,0.0,0.0,0.0,0.0,0.0,0.0,0.0,0.0,0.0,0.0,0.0,0.0,0.0,0.0,0.0,0.0,0.0,0.0,0.0,0.0,-1.6744,-1.6573,-1.6908,-1.5978,-1.5825,-1.6292,-1.5856,-1.5593,-1.5452,-1.5029,0.0,0.0,0.0,0.0,0.0,0.0,0.0,0.0,0.0,0.0,0.0,0.0,0.0,0.0,0.0,0.0,0.0,0.0,0.0,-0.9189,-0.9171,-0.9292,-0.9376,-0.9395,-0.9331,-0.9122,-0.8711,-0.8295,0.0,0.0,-0.7687,-0.8003,-0.8507,-0.901,-0.9525,-1.0057,-1.0214,-1.026,-1.0205,-1.0127,-1.0011,-0.9841,-0.9484,-0.9059,-0.8571,0.0,0.0,0.0,0.0,0.0,0.0,0.0,0.0,0.0,0.0,0.0,0.0,0.0,0.0,0.0,0.0,0.0,0.0,0.0,0.0,0.0,0.0,0.0,0.0,0.0,0.0,0.0,0.0,0.0,0.0,0.0,0.0,0.0,0.0,0.0,0.0,0.0,0.0,0.0,0.0,0.0,-0.8926,-0.9916,0.0,0.0,0.0,0.0,0.0,0.0,0.0,0.0,0.0,0.0,0.0,0.0,0.0,-1.5987,-1.6604,-1.7294,-1.7432,-1.7021,-1.7546,-1.755,-1.706,-1.7042,-1.7049,-1.7122,-1.6571,0.0,-1.5511,-1.5478,0.0,0.0,0.0,0.0,0.0,0.0,0.0,0.0,0.0,0.0,0.0,0.0,0.0,0.0,0.0,0.0,0.0,0.0,0.0,0.0,0.0,-0.9699,-0.9765,-0.9728,-0.9524,-0.9233,-0.8836,-0.8367,-0.7952,-0.7612,-0.7902,-0.8247,-0.859,-0.9242,-0.977,-1.016,-1.0253,-1.0273,-1.0197,-1.0134,-1.0033,-0.9883,-0.9551,-0.9186,-0.8793,-0.8209,0.0,0.0,0.0,0.0,0.0,0.0,0.0,0.0,0.0,0.0,0.0,0.0,0.0,0.0,0.0,0.0,0.0,0.0,0.0,0.0,0.0,0.0,0.0,0.0,0.0,0.0,0.0,0.0,0.0,0.0,0.0,0.0,0.0,0.0,0.0,0.0,0.0,0.0,0.0,-0.948,-1.087,-1.1189,-1.0615,-0.9925,0.0,0.0,0.0,0.0,0.0,0.0,0.0,0.0,0.0,-1.5795,-1.6305,-1.6668,-1.6908,-1.7268,-1.7497,-1.7581,-1.7615,-1.7491,-1.7209,-1.6959,-1.6691,-1.6318,-1.6083,-1.5641,-1.5061,-1.5132,-1.4373,-1.3092,0.0,0.0,0.0,0.0,-1.2091,-1.1859,0.0,0.0,0.0,0.0,0.0,0.0,0.0,0.0,0.0,0.0,0.0,0.0,-0.9848,-0.9761,-0.9761,-0.9938,-0.9438,-0.9039,-0.8867,-0.8327,-0.7867,-0.7515,-0.7961,-0.8347,-0.8627,-0.9463,-1.0011,-1.023,-1.0264,-1.0253,-1.0202,-1.0132,-1.0035,-0.9885,-0.955,-0.9233,-0.8915,-0.834,-0.7845,0.0,0.0,0.0,0.0,0.0,0.0,0.0,0.0,0.0,0.0,0.0,0.0,0.0,0.0,0.0,0.0,0.0,0.0,0.0,0.0,0.0,0.0,0.0,0.0,0.0,0.0,0.0,0.0,0.0,0.0,0.0,0.0,0.0,0.0,0.0,0.0,0.0,0.0,-1.13,-1.2342,-1.2308,-1.1897,-1.1342,0.0,0.0,0.0,0.0,0.0,0.0,-1.4882,-1.6153,-1.6801,-1.669,-1.6846,-1.6999,-1.7081,-1.7124,-1.7385,-1.79,-1.721,-1.6883,-1.6841,-1.6312,-1.5782,-1.5365,-1.5365,-1.5011,-1.4486,-1.4533,-1.4022,-1.3217,-1.2665,-1.2138,-1.1729,-1.2478,-1.2428,-1.2099,0.0,0.0,0.0,0.0,0.0,0.0,0.0,0.0,0.0,0.0,0.0,-0.9987,-0.9987,-0.9316,-0.9194,-1.0016,-0.9026,-0.8458,-0.8701,-0.8142,-0.7636,-0.7234,-0.7728,-0.8229,-0.8691,-0.9667,-1.022,-1.0293,-1.0231,-1.0201,-1.0197,-1.0125,-1.0029,-0.9887,-0.9556,-0.9186,-0.8782,-0.8297,-0.7766,-0.7242,0.0,0.0,0.0,0.0,0.0,0.0,0.0,0.0,0.0,0.0,0.0,0.0,0.0,0.0,0.0,0.0,0.0,0.0,0.0,0.0,0.0,0.0,0.0,0.0,0.0,0.0,0.0,0.0,0.0,0.0,0.0,0.0,0.0,0.0,0.0,0.0,0.0,0.0,0.0,-1.3401,-1.3341,0.0,0.0,0.0,0.0,-1.2604,-1.3846,-1.4866,-1.5437,-1.5887,-1.6161,-1.6161,-1.6745,-1.7098,-1.7088,-1.723,-1.732,-1.7353,-1.6232,-1.5676,-1.5676,-1.5056,-1.4749,-1.4744,-1.4744,-1.4416,-1.3868,-1.3841,-1.3831,-1.3695,-1.3092,-1.2439,-1.1809,-1.1872,-1.1472,-1.0914,0.0,0.0,0.0,0.0,0.0,-1.0044,-0.9972,-1.004,-1.001,-0.974,-0.9692,-0.9481,-0.8957,-0.8687,-0.853,-0.8499,-0.8254,-0.7985,-0.7694,-0.7466,-0.737,-0.7383,-0.7742,-0.8459,-0.9581,-0.9994,-1.0231,-1.0303,-1.0231,-1.0198,-1.0203,-1.0042,-0.9904,-0.9759,-0.9461,-0.9085,-0.8658,-0.8401,-0.7937,-0.7394,-0.7409,-0.7069,0.0,0.0,0.0,0.0,0.0,0.0,0.0,0.0,0.0,0.0,0.0,0.0,0.0,0.0,0.0,0.0,0.0,0.0,0.0,0.0,0.0,0.0,0.0,0.0,0.0,0.0,0.0,0.0,0.0,0.0,0.0,0.0,0.0,0.0,0.0,0.0,0.0,-1.445,-1.4407,0.0,-1.3306,-1.3441,-1.3559,-1.3469,-1.4938,-1.592,-1.6131,-1.6946,-1.7233,-1.6883,-1.7083,-1.7042,-1.673,-1.6358,-1.6188,-1.6188,-1.5404,-1.5011,-1.5011,-1.4789,-1.4468,-1.4097,-1.3643,-1.3115,-1.2497,-1.2047,-1.2096,-1.2453,-1.1778,-1.1379,-1.1166,-1.1166,-1.1015,-1.0813,0.0,0.0,0.0,0.0,-0.9987,-1.0056,-1.0044,-0.9975,-0.982,-0.9508,-0.9312,-0.8903,-0.8144,-0.7907,-0.7805,-0.7831,-0.7548,-0.7268,-0.7041,-0.7013,-0.7014,-0.7067,-0.7883,-0.8888,-1.0074,-1.0189,-1.0262,-1.0303,-1.0227,-1.0188,-1.0161,-0.9989,-0.9817,-0.9654,-0.9332,-0.8932,-0.8494,-0.8277,-0.7889,-0.7394,-0.7309,-0.6979,-0.6581,0.0,0.0,0.0,0.0,0.0,0.0,0.0,0.0,0.0,0.0,0.0,0.0,0.0,0.0,0.0,0.0,0.0,0.0,0.0,0.0,0.0,0.0,0.0,0.0,0.0,0.0,0.0,0.0,0.0,0.0,0.0,0.0,0.0,0.0,-1.4316,-1.5077,-1.5282,-1.5282,-1.5018,-1.432,-1.432,-1.4332,-1.4234,-1.5477,-1.6309,-1.6504,-1.6993,-1.7107,-1.675,-1.6532,-1.6238,-1.5888,-1.5511,-1.5281,-1.5276,-1.4692,-1.4277,-1.4029,-1.3831,-1.3406,-1.2783,-1.2332,-1.1895,-1.1412,-1.0767,-1.0716,-1.1116,-1.0868,-1.0665,-1.0466,-1.0466,-1.0316,-1.0115,0.0,0.0,0.0,-0.9899,-0.9956,-1.0019,-1.0092,-0.9804,-0.949,-0.9214,-0.8806,-0.8292,-0.7618,-0.6953,-0.6995,-0.8091,-0.6901,-0.6305,-0.6799,-0.6797,-0.6639,-0.6292,-0.8173,-0.9501,-1.0086,-1.023,-1.0303,-1.0303,-1.0235,-1.0159,-1.0098,-0.9958,-0.9781,-0.9567,-0.9158,-0.8717,-0.8257,-0.7908,-0.7525,-0.7164,-0.7321,-0.6783,-0.6028,0.0,0.0,0.0,0.0,0.0,0.0,0.0,0.0,0.0,0.0,0.0,0.0,0.0,0.0,0.0,0.0,0.0,0.0,0.0,0.0,0.0,0.0,0.0,0.0,0.0,0.0,0.0,0.0,0.0,0.0,0.0,0.0,0.0,-1.3963,-1.4581,-1.5265,-1.585,-1.5988,-1.5607,-1.4571,-1.499,-1.5216,-1.4967,-1.5411,-1.5909,-1.6441,-1.5908,-1.5582,-1.5582,-1.5011,-1.4703,-1.4703,-1.4703,-1.4652,-1.4652,-1.405,-1.3421,-1.2725,-1.2101,-1.1412,-1.0813,-1.0767,-1.0767,-1.0716,-1.0012,-0.9707,-0.981,-1.0462,-1.0312,-0.971,-0.9707,-0.9309,-0.8646,0.0,0.0,-0.9901,-0.9904,-0.991,-0.996,-1.0084,-0.9611,-0.9092,-0.8676,-0.789,-0.7086,-0.6368,-0.5862,-0.5594,-0.5614,-0.5777,-0.572,-0.5331,-0.5977,-0.6836,-0.7901,-0.9071,-0.9851,-1.017,-1.0208,-1.023,-1.023,-1.0161,-1.0121,-1.0094,-0.9813,-0.9522,-0.9225,-0.8817,-0.8298,-0.7686,-0.7262,-0.673,-0.6223,-0.664,-0.6544,-0.6159,0.0,0.0,0.0,0.0,0.0,0.0,0.0,0.0,0.0,0.0,0.0,0.0,0.0,0.0,0.0,0.0,0.0,0.0,0.0,0.0,0.0,0.0,0.0,0.0,0.0,0.0,0.0,0.0,0.0,0.0,0.0,-1.3834,-1.4316,-1.452,-1.5616,-1.6374,-1.6338,-1.6475,-1.6407,-1.5958,-1.5979,-1.6,-1.5905,-1.5723,-1.5707,-1.5858,-1.5281,-1.4971,-1.4971,-1.4789,-1.4703,-1.4703,-1.4288,-1.38,-1.3301,-1.3218,-1.253,-1.1353,-1.1661,-1.1412,-1.0762,-1.0265,-1.0064,-0.9961,-0.8764,-0.8299,-0.8296,-0.8501,-0.8448,-0.8193,-0.7703,-0.7391,-0.7182,0.0,-0.9529,-0.9778,-0.967,-0.956,-0.9486,-0.9509,-0.8781,-0.8084,-0.7694,-0.6623,-0.553,-0.4559,-0.4054,-0.3568,-0.3052,-0.3383,-0.3707,-0.394,-0.5695,-0.7388,-0.8826,-0.9539,-0.9991,-1.0205,-1.0204,-1.0189,-1.0158,-1.0118,-1.0032,-0.9886,-0.9606,-0.9242,-0.8822,-0.8343,-0.7721,-0.7014,-0.6572,-0.5983,-0.5361,-0.5562,-0.5604,-0.5575,-0.566,-0.5883,-0.6214,-0.6552,-0.6493,-0.6281,-0.6597,0.0,0.0,0.0,0.0,0.0,0.0,0.0,0.0,0.0,0.0,0.0,0.0,0.0,0.0,0.0,0.0,0.0,0.0,0.0,0.0,0.0,0.0,0.0,0.0,-1.4063,-1.4602,-1.5106,-1.5962,-1.6485,-1.6384,-1.6538,-1.6488,-1.5994,-1.6166,-1.6138,-1.5696,-1.5642,-1.5499,-1.5231,-1.4646,-1.4329,-1.4329,-1.3789,-1.3496,-1.3496,-1.2875,-1.2341,-1.194,-1.1981,-1.1434,-1.0415,-1.0767,-1.0614,-0.9909,-0.9235,-0.8928,-0.882,-0.7711,-0.7238,-0.7238,0.0,0.0,0.0,0.0,-0.6423,-0.6145,0.0,-0.9801,-0.9647,-0.941,-0.9184,-0.8975,-0.8796,-0.7794,-0.6913,-0.6515,-0.5155,-0.3755,-0.2505,-0.1773,-0.1178,-0.0664,-0.025,-0.08,-0.2646,-0.5681,-0.7951,-0.9182,-0.9628,-0.9953,-1.0163,-1.0184,-1.0151,-1.0078,-1.0049,-0.9851,-0.9504,-0.9257,-0.8841,-0.8298,-0.7683,-0.6966,-0.6176,-0.5794,-0.5225,-0.4536,-0.4267,-0.4347,-0.4631,-0.4785,-0.4831,-0.4936,-0.5638,-0.5668,-0.5463,-0.613,0.0,0.0,0.0,0.0,0.0,0.0,0.0,0.0,0.0,0.0,0.0,0.0,0.0,0.0,0.0,0.0,0.0,0.0,0.0,0.0,0.0,0.0,0.0,0.0,-1.4175,-1.4829,-1.5474,-1.5726,-1.5901,-1.6107,-1.6271,-1.6053,-1.5196,-1.5783,-1.5819,-1.4849,-1.5163,-1.5135,-1.4509,-1.3904,0.0,0.0,0.0,-1.1665,-1.1665,-1.1116,-1.0767,-1.0665,-1.0767,-1.0364,-0.9555,-0.9655,-0.9249,-0.8537,-0.7886,-0.756,-0.7506,-0.6802,-0.6423,-0.6369,-0.6423,-0.6423,-0.6372,-0.6372,-0.593,-0.5378,0.0,-0.9843,-0.9848,-0.979,-0.983,-0.9713,-0.9249,-0.8165,-0.6978,-0.5794,-0.3836,-0.2134,-0.1022,0.0345,0.0998,0.0529,0.2391,0.2027,0.0,0.0,-0.7444,-0.8758,-0.93,-0.9698,-0.9955,-1.0061,-1.0056,-0.9938,-0.9721,-0.9385,-0.8945,-0.8415,-0.7828,-0.7185,-0.658,-0.5809,-0.4932,-0.4699,-0.4252,-0.3703,-0.3445,-0.3615,-0.4041,-0.385,-0.3787,-0.3815,-0.3972,-0.3977,-0.3937,-0.4072,-0.4226,-0.4357,-0.4487,0.0,0.0,0.0,0.0,0.0,0.0,0.0,0.0,0.0,0.0,0.0,0.0,0.0,0.0,0.0,0.0,0.0,0.0,0.0,0.0,-1.3697,-1.3954,-1.4218,-1.4661,-1.477,-1.503,-1.5655,-1.5684,-1.5445,-1.4771,-1.5325,-1.5433,-1.4789,-1.4367,-1.3841,-1.3205,-1.2536,-1.1953,-1.1408,-1.1111,-1.1011,-1.1011,-1.0864,-1.0517,-1.0016,-1.0513,0.0,-0.8143,-0.8646,-0.8218,-0.702,-0.6858,-0.6804,-0.6748,-0.6034,-0.5384,-0.4954,-0.549,-0.5384,-0.4899,-0.4899,-0.4789,-0.4679,-0.9766,-0.9829,-0.9785,-0.9591,-0.9548,-0.9383,-0.8874,-0.7749,-0.6433,-0.4992,-0.2881,-0.0815,0.1,0.2552,0.3627,0.4066,0.3853,0.2351,0.0,-0.394,-0.6079,-0.7063,-0.7741,-0.8336,-0.8836,-0.9273,-0.9403,-0.9201,-0.903,-0.8484,-0.7595,-0.7501,-0.6717,-0.5366,-0.4833,-0.4038,-0.3088,-0.2876,-0.2565,-0.2183,-0.1871,-0.1902,-0.2217,-0.2943,-0.316,-0.3099,-0.3099,-0.3099,-0.3099,-0.3099,-0.3225,-0.3393,-0.3395,-0.3609,-0.3948,0.0,0.0,0.0,0.0,0.0,0.0,0.0,0.0,0.0,0.0,0.0,0.0,0.0,0.0,-1.1837,-1.209,0.0,-1.2486,-1.3529,-1.3695,-1.3896,-1.4411,-1.4115,-1.4049,-1.4675,-1.4917,-1.4866,-1.4335,-1.4804,-1.4767,-1.3831,-1.3459,-1.2875,-1.1841,-1.1458,-1.0998,-1.0269,-0.9919,-0.9559,-0.9179,-0.8881,-0.8528,-0.8227,-0.8528,-0.8165,-0.7182,-0.7486,-0.7272,-0.6586,-0.6202,-0.6036,-0.5982,-0.5275,-0.4791,-0.4525,-0.4849,-0.4796,-0.4525,-0.4525,-0.4473,-0.4479,-0.9785,-0.9839,-0.9751,-0.9391,-0.9292,-0.9076,-0.8574,-0.7545,-0.6286,-0.4806,-0.287,-0.0634,0.2006,0.379,0.5561,0.7467,0.4588,0.0,0.0,-0.253,-0.4347,-0.4911,-0.5668,-0.6303,-0.6779,-0.7282,-0.74,-0.7097,-0.6842,-0.6151,-0.5107,-0.5387,-0.4626,-0.2986,-0.2596,-0.1905,-0.104,-0.0948,-0.0702,-0.0366,-0.0066,0.0178,0.0178,-0.1377,-0.2075,-0.2176,-0.2176,-0.2176,-0.2176,-0.2176,-0.2176,-0.2176,-0.2169,-0.2184,-0.2317,-0.2786,-0.3314,0.0,0.0,0.0,0.0,0.0,0.0,0.0,0.0,0.0,-1.1959,-1.1686,-1.1571,-1.1568,-1.1587,-1.1615,-1.1958,-1.2988,-1.3156,-1.3357,-1.3893,-1.3323,-1.2976,-1.3268,-1.3908,-1.4143,-1.3637,-1.4027,-1.3726,-1.2304,-1.2206,-1.1616,-1.023,-1.0179,-0.986,-0.9117,-0.8564,-0.7991,-0.7402,-0.6843,-0.6588,-0.6588,-0.6588,-0.6532,-0.6367,-0.6367,-0.6317,-0.6157,-0.5553,-0.5279,-0.5279,-0.4739,-0.4473,-0.4482,-0.4196,-0.4255,-0.4485,-0.4141,-0.4032,-0.4039,0.0,-0.9988,-1.0012,-0.9852,-1.0012,-0.9941,-0.9287,-0.871,-0.7807,-0.6271,-0.5023,-0.3143,-0.018,0.2461,0.5214,0.8203,0.4601,0.0,0.1917,-0.073,-0.2472,-0.2902,-0.3533,-0.3648,-0.3186,-0.2854,-0.2492,-0.2107,-0.1141,-0.0592,-0.044,-0.0315,-0.0099,0.0182,0.0303,0.0553,0.0866,0.0647,0.0884,0.1428,0.158,0.2218,0.2937,0.1735,0.0607,-0.0308,-0.0308,-0.0308,-0.0308,-0.0308,-0.0308,-0.0309,-0.0311,-0.0376,-0.0529,-0.0839,0.0,-0.24,-0.2776,-0.4586,-0.6765,-0.8452,-0.9572,-1.0399,0.0,0.0,-1.1379,-1.1343,-1.1152,-1.1038,-1.1209,-1.1295,-1.1473,-1.184,-1.1954,-1.2021,-1.2073,-1.2012,-1.1771,-1.1275,-1.2502,-1.3024,-1.2228,-1.2669,-1.2201,-1.0183,-1.003,-0.9416,-0.8022,-0.7973,-0.7667,-0.695,-0.6848,-0.6797,-0.6689,-0.664,-0.6588,-0.6588,-0.6588,-0.6256,-0.5597,-0.5597,-0.5281,-0.4754,-0.4652,-0.4601,-0.4601,-0.4548,-0.4494,-0.4379,-0.3016,-0.3304,-0.4337,-0.2963,-0.2454,-0.2455,0.0,-1.006,-1.0086,-1.0079,-1.0199,-1.0136,-0.9664,-0.9158,-0.8306,-0.6841,-0.5644,-0.3977,-0.1462,0.1021,0.3133,0.4684,0.3323,0.0,0.2437,0.1047,0.0123,-0.008,-0.0666,-0.0885,-0.0634,-0.0622,-0.0346,0.0216,0.0783,0.164,0.2749,0.2791,0.307,0.3557,0.3833,0.3703,0.3311,0.3382,0.3563,0.3812,0.4113,0.4506,0.4853,0.4354,0.388,0.3322,0.2363,0.2029,0.0,0.0,0.204,0.2046,0.2031,0.1782,0.1375,0.075,0.0131,0.0,-0.2919,-0.504,-0.7065,-0.8678,-0.9728,-1.0456,-1.0784,-1.0963,-1.101,-1.0818,-1.0492,-1.0302,-1.0473,-1.0383,-1.0365,-1.0711,-1.0777,-1.0795,-1.0795,-1.0261,-0.99,-0.9901,-0.9984,-1.016,-1.0438,-1.0784,-1.0277,-0.8586,-0.8489,-0.8026,-0.7047,-0.6996,-0.6676,-0.598,-0.5982,-0.5764,-0.5391,-0.5399,-0.5403,-0.5403,-0.5356,-0.5193,-0.4916,-0.4916,-0.4298,-0.3182,-0.3186,-0.3187,-0.3187,-0.3187,-0.3699,-0.4448,-0.3764,-0.394,-0.4407,-0.3766,-0.2407,-0.0895,0.0,-0.9991,-1.0,-1.0104,-1.0155,-1.0127,-0.9935,-0.9581,-0.894,-0.787,-0.7002,-0.5502,-0.2921,-0.1192,0.032,0.1624,0.1835,0.2055,0.2471,0.2288,0.2235,0.2419,0.1986,0.1908,0.2275,0.2291,0.2733,0.3647,0.4033,0.5012,0.6537,0.6375,0.655,0.7015,0.7156,0.6805,0.6111,0.6212,0.6283,0.6322,0.6648,0.6716,0.6628,0.6749,0.6824,0.6573,0.4663,0.3996,0.0,0.0,0.378,0.3755,0.3617,0.3397,0.3054,0.2262,0.1295,-0.0271,-0.3771,-0.5885,-0.7463,-0.8949,-0.9868,-1.0427,-1.0594,-1.0612,-1.0501,-1.0204,-0.9781,-0.9446,-0.9386,-0.9177,-0.9033,-0.9182,-0.9219,-0.9217,-0.9217,-0.8567,-0.8133,-0.8392,-0.7885,-0.7685,-0.8165,-0.8777,-0.8593,-0.725,-0.7146,-0.6781,-0.6048,-0.5998,-0.5778,-0.5224,-0.5226,-0.5014,-0.4527,-0.4479,-0.4312,-0.3858,-0.3865,-0.3868,-0.3868,-0.4327,-0.3872,-0.2796,-0.1955,-0.1619,-0.1619,-0.1619,-0.2238,-0.3318,-0.4174,-0.4006,-0.3268,-0.3263,-0.1851,-0.0,0.0,0.0,-0.9674,-0.9875,-0.9911,-0.9978,-1.0162,-1.017,-1.0083,-0.9844,-0.9894,-0.8561,-0.4914,-0.4513,-0.3063,0.0525,0.0374,0.068,0.2126,0.2738,0.3398,0.4187,0.4142,0.4715,0.6004,0.6862,0.8021,0.9543,1.0393,1.1107,1.1676,1.127,1.0901,1.0513,1.0015,0.9635,0.9325,0.8874,0.8727,0.8803,0.8935,0.8776,0.8466,0.8937,0.9108,0.8754,0.6169,0.0,0.0,0.4653,0.4476,0.4395,0.3929,0.4087,0.0,0.3784,0.163,-0.1389,-0.5192,-0.6903,-0.7868,-0.9093,-0.99,-1.0328,-0.9995,-0.9881,-0.9753,-0.949,-0.9004,-0.847,-0.7957,-0.7805,-0.7565,-0.7011,-0.6944,-0.6993,-0.6993,-0.6952,-0.682,-0.6424,-0.6643,-0.6412,-0.5339,-0.6726,-0.7199,-0.6014,-0.5964,-0.5523,-0.4588,-0.4544,-0.4544,-0.4534,-0.4544,-0.4496,-0.4496,-0.4497,-0.3754,-0.2287,-0.2287,-0.2287,-0.2343,-0.3821,-0.4457,-0.4284,-0.1345,-0.0056,-0.0056,-0.0056,-0.0112,-0.0449,-0.3383,-0.2701,-0.0112,-0.0112,-0.0056,-0.0,0.0,0.0,0.0,-0.951,-0.9574,-0.9746,-1.0077,-1.0174,-1.0127,-0.9923,-0.9671,0.0,0.0,0.0,0.0,0.0,-0.2177,-0.0527,0.0907,0.2983,0.4427,0.5005,0.5518,0.6269,0.7308,0.8706,0.9834,1.0662,1.1669,1.2525,1.3208,1.2411,1.2175,1.2372,1.1447,1.0934,1.0754,1.0727,1.067,1.0586,1.0852,1.0721,1.0372,1.0518,1.06,1.0437,0.0,0.0,0.6954,0.6413,0.6099,0.5921,0.5679,0.0,0.505,0.2716,0.0116,-0.2745,-0.6225,-0.7525,-0.8156,-0.9153,-0.9581,-0.9706,-0.9581,-0.9351,-0.9033,-0.8668,-0.8114,-0.7519,-0.7027,-0.6781,-0.6554,-0.6257,-0.5981,-0.5825,-0.5825,-0.585,-0.5762,-0.5462,-0.5244,-0.4906,-0.4548,-0.5535,-0.586,-0.5014,-0.4961,-0.4853,-0.4524,-0.4472,-0.4472,-0.4522,-0.4472,-0.4477,-0.4484,-0.3467,-0.3246,-0.3708,-0.1679,-0.0727,-0.0783,-0.1289,-0.1514,-0.1458,-0.0448,-0.0,-0.0,-0.0,-0.0,-0.0112,-0.1122,-0.0897,-0.0,-0.0,-0.0,-0.0,0.0,0.0,0.0,0.0,0.0,0.0,0.0,0.0,0.0,0.0,0.0,0.0,0.0,0.0,0.0,0.0,0.0,-0.1771,0.0097,0.0,0.4809,0.5746,0.6471,0.7272,0.8193,0.9449,1.0606,1.1668,1.2392,1.332,1.4417,1.3703,1.3574,1.3908,1.3049,1.2605,1.2484,1.2536,1.2365,1.2088,1.2316,1.2288,1.2132,1.1862,1.1922,0.0,0.0,0.0,0.9118,0.8357,0.7982,0.769,0.682,0.5517,0.3844,0.147,-0.1271,-0.4202,-0.732,-0.8356,-0.8694,-0.9266,-0.9402,-0.9316,-0.9023,-0.8668,-0.8261,-0.7665,-0.7266,-0.6773,-0.5983,-0.5818,-0.5384,-0.401,-0.3586,-0.3382,-0.3339,-0.3627,-0.3787,-0.3637,-0.3931,-0.4179,-0.4272,-0.4789,-0.4956,-0.4524,-0.4524,-0.4524,-0.4524,-0.4472,-0.4472,-0.4524,-0.4472,-0.4479,-0.4492,-0.2456,-0.19,-0.2865,-0.0953,-0.0,-0.0,-0.0,-0.0,-0.0,-0.0,-0.0,-0.0,-0.0,-0.0,-0.0,-0.0,-0.0,-0.0,-0.0,-0.0,-0.0,0.0,0.0,0.0,0.0,0.0,0.0,0.0,0.0,0.0,0.0,0.0,0.0,0.0,0.0,0.0,0.0,0.0,0.0,0.0,0.0,0.0,0.6261,0.7003,0.782,0.8785,0.9323,1.0595,1.2681,1.2801,1.3728,1.5391,1.5196,1.5105,1.5099,1.4773,1.4549,1.4414,1.4214,1.3834,1.3345,1.3337,1.3459,1.3589,1.2894,0.0,0.0,0.0,0.0,1.1529,1.0384,0.9968,0.9524,0.7259,0.4079,0.0982,0.0061,-0.2584,-0.5769,-0.8428,-0.9261,-0.9366,-0.9396,-0.9348,-0.911,-0.8324,-0.7892,-0.7409,-0.652,-0.6409,-0.6071,0.0,-0.4812,-0.3928,-0.053,0.0133,0.0314,0.0465,-0.0329,-0.0923,-0.0992,-0.2657,-0.3955,-0.4296,-0.4421,-0.4479,-0.4479,-0.4479,-0.4477,-0.4477,-0.449,-0.449,-0.4479,-0.449,-0.4502,-0.4512,-0.151,-0.0,-0.0,-0.0,-0.0,-0.0,-0.0,-0.0,-0.0,-0.0,-0.0,-0.0,-0.0,-0.0,-0.0,-0.0,-0.0,-0.0,-0.0,-0.0,-0.0,0.0,0.0,0.0,0.0,0.0,0.0,0.0,0.0,0.0,0.0,0.0,0.0,0.0,0.0,0.0,0.0,0.0,0.0,0.0,0.0,0.0,0.0,0.0,0.8588,0.8939,1.0143,1.1298,1.2397,1.322,1.4179,1.5254,1.5248,1.5245,1.5237,1.5064,1.4926,1.4834,1.4632,1.4298,1.388,0.0,1.3521,1.3159,0.0,0.0,0.0,0.0,0.0,0.0,0.0,0.0,0.0,0.0,0.2987,-0.0803,-0.2429,-0.525,-0.7935,-0.8393,-0.8636,-0.8839,-0.9274,-0.875,-0.8001,-0.7444,-0.7209,-0.679,-0.574,-0.4378,-0.3362,-0.3177,-0.2173,-0.1052,-0.0128,0.222,0.3947,0.3986,0.3472,0.2622,0.1555,0.0,-0.1323,-0.2166,-0.3633,-0.4489,-0.4479,-0.4525,-0.4522,-0.4522,-0.4524,-0.4524,-0.4522,-0.4477,-0.449,-0.4501,-0.1511,-0.0,-0.0,-0.0,-0.0,-0.0,-0.0,-0.0,-0.0,-0.0,-0.0,-0.0,-0.0,-0.0,-0.0,-0.0,-0.0,-0.0,-0.0,-0.0,-0.0,0.0,0.0,0.0,0.0,0.0,0.0,0.0,0.0,0.0,0.0,0.0,0.0,0.0,0.0,0.0,0.0,0.0,0.0,0.0,0.0,0.0,0.0,0.5665,0.7431,0.8621,0.9345,1.0115,0.0,0.0,0.0,1.4423,1.4902,1.5187,1.5287,1.5161,1.505,1.494,1.4776,0.0,0.0,0.0,0.0,0.0,0.0,0.0,0.0,0.0,0.0,0.0,0.0,0.0,0.7577,0.3848,0.0224,-0.3154,-0.5769,0.0,-0.8887,-0.808,-0.804,-0.8257,-0.8331,-0.7722,-0.704,-0.6695,-0.6369,-0.5574,-0.3593,-0.2473,-0.1758,-0.1353,-0.0165,0.1115,0.2176,0.4114,0.0,0.57,0.5844,0.542,0.0,0.2764,0.1487,0.0221,-0.1499,-0.2791,-0.3463,-0.4133,-0.4524,-0.4524,-0.4524,-0.4472,-0.4477,-0.4482,-0.4494,-0.4504,-0.1513,-0.0,-0.0,-0.0,-0.0,-0.0,-0.0,-0.0,-0.0,-0.0,-0.0,-0.0,-0.0,-0.0,-0.0,-0.0,-0.0,-0.0,-0.0,-0.0,-0.0,0.0,0.0,0.0,0.0,0.0,0.0,0.0,0.0,0.0,0.0,0.0,0.0,0.0,0.0,0.0,0.0,0.0,0.0,0.0,0.0,0.0,0.0,0.335,0.4924,0.7207,0.7134,0.764,0.8823,0.0,0.0,0.0,0.0,0.0,0.0,0.0,0.0,0.0,0.0,0.0,0.0,0.0,0.0,0.0,0.0,0.0,0.0,0.0,0.0,0.0,0.0,0.9318,0.5168,0.1082,-0.1789,-0.434,-0.7892,-0.8749,-0.833,-0.7377,-0.7338,-0.7435,-0.695,-0.6519,-0.6132,-0.5899,-0.5249,-0.3951,-0.1416,-0.0789,-0.0437,0.0537,0.133,0.258,0.4938,0.0,0.5993,0.6505,0.736,0.7519,0.6394,0.5438,0.4265,0.2683,0.1159,-0.0333,-0.1783,-0.3125,-0.4081,-0.448,-0.4309,-0.4314,-0.4497,-0.4499,-0.4332,-0.3885,-0.1682,-0.0617,-0.0617,-0.0168,-0.0,-0.0,-0.0,-0.0,-0.0,-0.0,-0.0,-0.0,-0.0,-0.0,-0.0,-0.0,-0.0,-0.0,-0.0,-0.0,-0.0,0.0,0.0,0.0,0.0,0.0,0.0,0.0,0.0,0.0,0.0,-0.9532,-0.9196,0.0,0.0,0.0,0.0,0.0,0.0,0.0,0.0,0.0,0.0,-0.046,0.1428,0.2308,0.2938,0.4426,0.6803,0.0,0.0,0.0,0.0,0.0,0.0,0.0,0.0,0.0,0.0,0.0,0.0,0.0,0.0,0.0,0.0,0.0,0.0,0.0,0.0,0.0,0.0,0.8994,0.7065,0.5493,0.3318,0.0662,-0.2838,-0.3947,-0.435,-0.5828,-0.5992,-0.5769,-0.5899,-0.5539,-0.5034,-0.4552,-0.3154,0.0,-0.2272,0.0145,0.2339,0.2297,0.2153,0.2771,0.4951,0.5644,0.6423,0.7925,0.8352,0.8486,0.0,0.7476,0.6137,0.426,0.2717,0.1216,-0.0278,-0.0612,-0.1893,-0.4378,-0.3298,-0.3188,-0.4453,-0.4511,-0.3314,-0.0785,-0.2751,-0.3715,-0.3715,-0.1174,-0.0,-0.0,-0.0,-0.0,-0.0,-0.0,-0.0,-0.0,-0.0,-0.0,-0.0,-0.0,-0.0,-0.0,-0.0,-0.0,-0.0,0.0,0.0,0.0,0.0,0.0,0.0,0.0,-0.9673,-0.9665,-0.9149,-0.9176,-0.9,-0.8367,-0.8697,-0.877,0.0,0.0,0.0,0.0,0.0,0.0,0.0,0.0,-0.1289,0.0438,0.0888,0.1884,0.0,0.0,0.0,0.0,0.0,0.0,0.0,0.0,0.0,0.0,0.0,0.0,0.0,0.0,0.0,0.0,0.0,0.0,0.0,0.0,0.0,0.0,0.0,1.0557,0.9078,0.53,0.3703,0.2726,0.0175,-0.0613,-0.0765,-0.1245,-0.1716,-0.2172,-0.253,-0.2498,-0.2358,-0.2435,0.0,0.0,0.0143,0.1671,0.2795,0.2467,0.2448,0.0,0.5118,0.594,0.7031,0.9106,1.0126,1.0645,1.059,1.0039,0.867,0.6238,0.4444,0.3084,0.2401,-0.0558,-0.2968,-0.4447,-0.2295,-0.1399,-0.2132,-0.2132,-0.1458,-0.0,-0.1458,-0.2921,-0.4457,-0.3035,-0.1511,-0.0,-0.0,-0.0,-0.0,-0.0,-0.0,-0.0,-0.0,-0.0,-0.0,-0.0,-0.0,-0.0,-0.0,-0.0,-0.0,0.0,0.0,0.0,0.0,0.0,0.0,0.0,-0.9235,-0.9335,-0.8535,-0.8486,-0.8439,-0.8176,-0.868,-0.88,0.0,0.0,0.0,0.0,0.0,0.0,0.0,0.0,0.0,-0.1772,0.0,0.0,0.0,0.0,0.0,0.0,0.0,0.0,0.0,0.0,0.0,0.0,0.0,0.0,0.0,0.0,0.9741,0.0,0.0,0.0,0.0,0.0,0.0,0.0,0.0,1.251,1.1074,0.6071,0.4981,0.5311,0.4094,0.3386,0.311,0.3687,0.2766,0.148,0.0844,0.0583,0.0372,-0.0144,0.0375,0.0,0.2652,0.2803,0.2654,0.2547,0.2783,0.3678,0.0,0.655,0.7826,1.0338,1.1829,1.2628,1.2431,1.2158,0.0,0.7704,0.599,0.4948,0.4453,-0.0497,-0.3516,-0.3542,-0.1289,-0.0,-0.0,-0.0,-0.0,-0.0,-0.0,-0.1176,-0.354,-0.4177,-0.3263,-0.095,-0.028,-0.0,-0.0,-0.0,-0.0,-0.0,-0.0,-0.0,-0.0,-0.0,-0.0,-0.0,-0.0,-0.0,-0.0,0.0,0.0,0.0,0.0,0.0,0.0,0.0,-0.8641,-0.8516,-0.7946,-0.7576,-0.743,-0.7641,-0.8148,-0.8444,0.0,0.0,0.0,0.0,0.0,0.0,0.0,0.0,0.0,0.0,0.0,0.0,0.0,0.0,0.0,0.0,0.0,0.0,0.0,0.0,0.2918,0.0,0.0,0.0,0.0,0.0,0.0,0.0,0.0,0.0,0.0,0.0,0.0,0.0,0.0,0.0,1.2954,1.2439,1.1799,1.1303,1.1571,0.0,0.0,0.7115,0.5475,0.371,0.2569,0.2196,0.2035,0.1876,0.0,0.3737,0.2918,0.2709,0.2942,0.369,0.3621,0.4285,0.6906,0.7587,0.8836,1.1785,1.2906,1.3307,1.3058,0.0,0.0,0.7689,0.7205,0.6345,0.4388,0.1334,-0.0434,-0.0392,-0.0168,-0.0,-0.0,-0.0,-0.0,-0.0,-0.0,-0.0112,-0.0447,-0.3201,-0.4343,-0.3997,-0.1233,-0.0,-0.0,-0.0,-0.0,-0.0,-0.0,-0.0,-0.0,-0.0,-0.0,-0.0,-0.0,-0.0,-0.0,0.0,0.0,0.0,0.0,0.0,0.0,-0.8675,-0.8868,-0.8844,-0.8033,-0.7397,-0.6974,-0.6827,-0.7083,-0.7517,-0.8159,0.0,0.0,0.0,0.0,0.0,0.0,0.0,0.0,0.0,0.0,0.0,-0.5842,-0.546,0.0,0.0,0.0,0.0,0.0,0.0,-0.1294,-0.1367,0.0,0.0,0.0,0.0,0.0,0.0,0.0,0.0,0.0,0.0,0.0,0.0,0.0,0.0,0.0,1.3832,1.397,0.0,0.0,1.2806,1.1701,1.1172,0.9861,0.8343,0.7133,0.6181,0.5405,0.4815,0.4795,0.4761,0.4292,0.4194,0.4298,0.4645,0.461,0.4982,0.6438,0.777,0.9545,1.2207,1.3879,1.4876,1.506,1.4287,1.2484,0.9287,0.7881,0.6326,0.4358,0.1594,-0.0,-0.0,-0.0,-0.0,-0.0,-0.0,-0.0,-0.0,-0.0,-0.0,-0.0,-0.1237,-0.2723,-0.438,-0.1388,-0.0,-0.0,-0.0,-0.0,-0.0,-0.0,-0.0,-0.0,-0.0,-0.0,-0.0,-0.0,-0.0,-0.0,0.0,0.0,0.0,0.0,0.0,-0.9807,-0.8723,-0.8939,-0.8828,-0.7675,-0.6989,-0.6487,-0.6177,-0.6346,-0.6899,-0.7978,-0.8393,0.0,0.0,0.0,0.0,0.0,0.0,0.0,0.0,0.0,-0.7398,-0.746,-0.774,-0.8182,0.0,0.0,-0.7276,-0.7346,0.0,0.0,0.0,0.0,0.0,0.0,0.0,0.0,0.0,0.0,0.0,0.0,0.0,0.0,0.0,0.0,0.0,0.0,0.0,0.0,0.0,0.0,1.4392,1.4116,1.3701,1.2872,1.18,1.0467,0.9293,0.8195,0.7157,0.6384,0.5796,0.5449,0.5363,0.5421,0.5535,0.5562,0.5808,0.6619,0.8399,1.0424,1.2558,1.4399,1.5739,1.6347,1.5174,1.3184,1.0283,0.7616,0.5515,0.4137,0.2202,0.0748,0.0056,-0.0,-0.0,-0.0,-0.0,-0.0,-0.0,-0.0,-0.0,-0.0,-0.0,-0.1118,-0.31,-0.0993,-0.0,-0.0,-0.0,-0.0,-0.0,-0.0,-0.0,-0.0,-0.0,-0.0,-0.0,-0.0,-0.0,-0.0,0.0,0.0,0.0,0.0,0.0,0.0,-0.884,-0.8643,-0.8085,-0.6607,-0.6127,-0.5889,-0.5821,-0.6157,-0.6838,-0.791,-0.8363,0.0,0.0,0.0,0.0,0.0,0.0,0.0,0.0,0.0,-0.8511,-0.8975,-0.9968,-1.0595,-1.0862,-1.0777,-1.0506,-1.0024,0.0,0.0,0.0,0.0,0.0,0.0,0.0,0.0,0.0,0.0,0.0,0.0,0.0,0.0,0.0,0.0,0.0,0.0,0.0,0.0,0.0,0.0,1.503,1.498,1.4048,1.3687,1.3189,1.1589,1.0719,0.9906,0.8512,0.7811,0.7151,0.6036,0.5803,0.5914,0.6307,0.6393,0.6798,0.8076,0.9811,1.1507,1.3091,1.4283,1.5381,1.6378,1.5367,1.3322,1.0115,0.6255,0.3834,0.3598,0.3558,0.2509,0.0112,-0.0,-0.0,-0.0,-0.0,-0.0,-0.0,-0.0,-0.0,-0.0,-0.0,-0.0,-0.0053,-0.0,-0.0,-0.0,-0.0,-0.0,-0.0,-0.0,-0.0,-0.0,-0.0,-0.0,-0.0,-0.0,-0.0,-0.0,0.0,0.0,0.0,0.0,0.0,0.0,0.0,-0.9321,-0.8964,-0.8263,-0.7365,-0.6706,-0.6512,-0.6681,-0.7149,-0.799,-0.856,0.0,0.0,0.0,0.0,0.0,0.0,0.0,0.0,0.0,-0.9622,-1.049,-1.1654,-1.2425,-1.2816,-1.2515,-1.2122,-1.1621,-1.0473,0.0,0.0,0.0,0.0,0.0,0.0,0.0,0.0,0.0,0.0,0.0,0.0,0.0,0.0,0.0,0.0,0.0,0.0,0.0,0.0,0.0,0.0,0.0,1.4877,1.4756,1.4444,1.3378,1.2459,1.1471,1.0201,0.9095,0.8164,0.7618,0.7286,0.7152,0.7262,0.7516,0.8019,0.903,1.0893,1.2091,1.1643,1.1389,1.0711,0.9293,0.7071,0.482,0.2747,0.2133,0.1692,0.1294,0.1086,0.1077,0.151,0.054,-0.0,-0.0,-0.0,-0.0,-0.0,-0.0,-0.0,-0.0,-0.0,-0.0,-0.0,-0.0,0.1151,0.2977,0.0897,0.056,0.1452,0.0392,0.0616,0.1396,0.0392,-0.0,-0.0,-0.0,-0.0,-0.0,0.0,0.0,0.0,0.0,0.0,0.0,0.0,-0.9818,-0.9501,-0.8855,-0.8099,-0.7462,-0.7077,-0.7213,-0.7642,-0.8375,-0.8925,0.0,0.0,0.0,0.0,0.0,0.0,0.0,0.0,-0.9287,-1.01,-1.0896,-1.2258,-1.3132,-1.3495,-1.3077,-1.2764,-1.2536,-1.1283,-1.0547,0.0,0.0,0.0,0.0,0.0,0.0,0.0,0.0,0.0,0.0,0.0,0.0,0.0,0.0,0.0,0.0,0.0,0.0,0.0,0.0,0.8744,1.2202,0.0,1.4705,1.4838,1.4288,1.3474,1.2481,1.124,0.9878,0.8672,0.7947,0.7365,0.7005,0.7037,0.7421,0.7852,0.8262,0.917,0.9353,0.7975,0.6466,0.4605,0.2178,0.0851,-0.055,-0.2341,-0.0901,-0.0266,-0.117,-0.1448,-0.1198,-0.0363,-0.0104,-0.0,-0.0,-0.0,-0.0,-0.0,-0.0,-0.0,-0.0,0.0937,0.1355,0.134,0.0989,0.1831,0.3587,0.2284,0.1901,0.0,0.1845,0.1901,0.2176,0.1847,0.1008,-0.0,-0.0,-0.0,-0.0,0.0,0.0,0.0,0.0,0.0,0.0,0.0,-1.013,-0.97,-0.8614,-0.8409,-0.8148,-0.758,-0.779,-0.8254,-0.8965,0.0,0.0,0.0,0.0,0.0,0.0,0.0,0.0,0.0,-0.9336,-1.0228,-1.0585,-1.2109,-1.2974,-1.3198,-1.269,-1.2571,-1.2755,-1.1701,-1.107,0.0,0.0,0.0,0.0,0.0,0.0,0.0,0.0,0.0,0.0,0.0,0.0,0.0,0.0,0.0,0.0,0.0,0.0,0.0,0.0,0.0,0.0,0.0,1.3348,1.43,1.4195,1.3658,1.2807,1.1538,1.013,0.0,0.7329,0.6319,0.5683,0.5719,0.612,0.6345,0.5983,0.5203,0.411,0.2573,-0.0068,-0.262,-0.4737,-0.3647,-0.3457,-0.534,-0.3155,-0.2204,-0.3608,-0.3705,-0.389,-0.4409,-0.1709,-0.0099,-0.0,-0.0,-0.0,-0.0,0.018,0.027,0.027,0.2432,0.3538,0.3559,0.2725,0.2334,0.2398,0.3871,0.3695,0.2454,0.3925,0.3641,0.2512,0.3935,0.2804,0.0279,0.0056,-0.0,-0.0,0.0,0.0,0.0,0.0,0.0,0.0,0.0,0.0,0.0,0.0,-0.9099,-0.8916,-0.8723,-0.8731,-0.8896,0.0,0.0,0.0,0.0,0.0,0.0,0.0,0.0,0.0,-0.9319,-1.081,-1.185,-1.2394,-1.3017,-1.3321,-1.3261,-1.2429,-1.1994,-1.1868,-1.1051,-1.0372,0.0,0.0,0.0,0.0,0.0,0.0,0.0,0.0,0.0,0.0,-1.5151,-1.5047,0.0,0.0,0.0,0.0,0.0,0.0,0.0,0.0,0.0134,0.2748,0.5942,0.0,1.1659,1.1831,1.1785,1.1328,0.0,0.8727,0.7804,0.7523,0.0,0.0,0.3298,0.3154,0.3162,0.3275,0.2609,0.1109,-0.163,-0.6079,-0.9453,-1.0541,-0.9532,-0.8488,-0.7811,-0.6433,-0.5373,-0.4912,-0.4635,-0.4243,-0.3832,-0.2461,-0.1153,-0.0048,-0.0,-0.0,-0.0,0.1843,0.2747,0.2748,0.24,0.2728,0.3592,0.3563,0.3638,0.3736,0.4262,0.4314,0.4015,0.4374,0.4263,0.3973,0.4333,0.4054,0.319,0.087,-0.0,-0.0,0.0,0.0,0.0,0.0,0.0,0.0,0.0,0.0,0.0,0.0,0.0,0.0,0.0,0.0,0.0,0.0,0.0,0.0,0.0,0.0,0.0,0.0,0.0,-1.0093,-1.0523,-1.1407,-1.2079,-1.2501,-1.2923,-1.3026,-1.2791,-1.2425,-1.2024,-1.1563,-1.0598,-0.9956,0.0,0.0,0.0,0.0,0.0,0.0,0.0,0.0,0.0,0.0,-1.5063,-1.4919,0.0,-1.4105,-1.2988,-1.168,0.0,0.0,0.0,0.0,-0.2982,-0.0541,0.1937,0.5722,0.9127,0.9678,1.0174,1.0,0.8027,0.0,0.0,0.0,0.0,0.0,0.0,0.0,0.0241,-0.0216,-0.2164,-0.4954,-0.8797,-1.1772,-1.3514,-1.3346,-1.2378,-1.0974,-0.9039,-0.7887,-0.6726,-0.5409,-0.4837,-0.4284,-0.3623,-0.2591,-0.1387,-0.0046,0.1091,0.1662,0.1662,0.293,0.361,0.3605,0.2955,0.2986,0.3625,0.3889,0.403,0.411,0.4262,0.4377,0.4358,0.4302,0.4273,0.4215,0.3639,0.343,0.3315,0.2095,0.1664,0.1553,0.0,0.0,0.0,0.0,0.0,0.0,0.0,0.0,0.0,0.0,0.0,0.0,0.0,0.0,0.0,0.0,0.0,0.0,0.0,0.0,0.0,0.0,0.0,-1.1144,-1.1331,-1.1704,-1.1935,-1.1994,-1.2356,-1.2419,-1.2171,-1.2142,-1.1713,-1.095,-0.9903,-0.9458,0.0,0.0,0.0,0.0,0.0,0.0,0.0,0.0,0.0,0.0,0.0,0.0,0.0,-1.3873,-1.2656,-1.1302,-1.0674,0.0,0.0,0.0,0.0,0.0,-0.0898,0.261,0.5995,0.7025,0.7876,0.7839,0.5463,0.0,0.0,0.0,0.0,0.0,0.0,-0.1888,0.0,-0.4173,-0.7612,-1.1461,-1.5308,-1.58,-1.5282,-1.3947,-1.3083,-1.174,-0.9517,-0.8375,-0.7146,-0.553,-0.4837,-0.42,-0.364,-0.246,-0.1072,0.0494,0.2521,0.3612,0.3609,0.3609,0.3604,0.3593,0.3585,0.358,0.3588,0.3861,0.3985,0.3994,0.4095,0.416,0.415,0.4021,0.3971,0.3871,0.2867,0.2316,0.2215,0.3017,0.3421,0.3405,0.0,0.0,0.0,0.0,0.0,0.0,0.0,0.0,0.0,0.0,0.0,0.0,0.0,0.0,0.0,0.0,0.0,0.0,0.0,0.0,0.0,-1.2862,-1.2388,-1.1812,-1.1084,-1.2531,-1.2996,-1.2401,-1.204,-1.1908,-1.1987,-1.028,-0.9062,-0.829,-0.7988,-0.8292,-0.9032,0.0,0.0,0.0,0.0,0.0,0.0,0.0,0.0,0.0,0.0,0.0,0.0,-1.3724,-1.2531,-1.1167,-0.9777,0.0,0.0,0.0,0.0,0.0,-0.1877,-0.0809,0.041,0.2253,0.2792,0.2492,0.1191,0.0,0.0,0.0,0.0,0.0,0.0,-0.5837,-0.7105,-0.8242,-1.1467,-1.3951,-1.4224,-1.4529,-1.4023,-1.2137,-1.1795,-1.1073,-0.9437,-0.8638,-0.758,-0.6079,-0.5243,-0.4453,-0.3633,-0.246,-0.0312,0.2929,0.3387,0.3605,0.3585,0.3585,0.3585,0.3583,0.358,0.358,0.3585,0.3751,0.3826,0.3836,0.3988,0.4055,0.4053,0.4031,0.3974,0.3883,0.3731,0.2923,0.186,0.204,0.2744,0.3416,0.0,0.0,0.0,0.0,0.0,0.0,0.0,0.0,0.0,0.0,0.0,0.0,0.0,0.0,0.0,0.0,0.0,0.0,0.0,0.0,0.0,-1.3316,-1.3351,-1.3021,-1.2262,-1.2741,-1.2695,-1.2072,-1.189,-1.1575,-1.11,-0.9379,-0.8306,-0.781,-0.7886,-0.8341,-0.9037,-0.9737,0.0,0.0,0.0,0.0,0.0,0.0,0.0,0.0,0.0,0.0,0.0,0.0,-1.1521,-0.9597,-0.8552,0.0,0.0,0.0,0.0,0.0,-0.172,-0.1063,-0.0497,-0.0032,-0.0839,-0.1904,-0.2569,0.0,0.0,0.0,0.0,0.0,0.0,0.0,-0.8825,-1.1052,-1.2813,-1.3866,-1.3803,-1.3331,-1.2504,-1.1219,-1.0583,-0.9738,-0.8451,-0.7608,-0.6637,-0.537,-0.4881,-0.3952,-0.2371,-0.1364,0.0223,0.2555,0.3277,0.359,0.358,0.358,0.358,0.358,0.358,0.358,0.3585,0.3726,0.3792,0.3795,0.3865,0.3897,0.389,0.3814,0.3785,0.3743,0.3743,0.3361,0.2787,0.2777,0.3137,0.351,0.0,0.0,0.0,0.0,0.0,0.0,0.0,0.0,0.0,0.0,0.0,0.0,0.0,0.0,0.0,0.0,0.0,0.0,0.0,0.0,-1.3449,-1.335,-1.3587,-1.335,-1.2521,-1.2358,-1.1925,-1.1185,-1.1378,-1.087,-0.9668,-0.8303,-0.7553,-0.7392,-0.801,-0.8664,-0.9353,-1.0502,-1.2117,0.0,0.0,0.0,0.0,0.0,0.0,0.0,0.0,0.0,0.0,0.0,0.0,0.0,0.0,0.0,0.0,-0.4118,-0.27,-0.1067,-0.0678,0.0164,0.0727,-0.0192,0.0,-0.4415,-0.552,-0.6844,0.0,0.0,0.0,0.0,0.0,-0.7676,-0.962,-1.2394,-1.2906,-1.2999,-1.312,-1.2181,-1.1196,-1.043,-0.9419,-0.8393,-0.7301,-0.6365,-0.5483,-0.4623,-0.4382,-0.3295,-0.1042,-0.0348,0.0667,0.2187,0.3129,0.358,0.358,0.358,0.358,0.358,0.358,0.358,0.3583,0.3693,0.3743,0.3743,0.3743,0.3743,0.3732,0.3624,0.358,0.358,0.358,0.358,0.358,0.358,0.3585,0.3592,0.0,0.0,0.0,0.0,0.0,0.0,0.0,0.0,0.0,0.0,0.0,0.0,0.0,0.0,0.0,0.0,0.0,0.0,0.0,0.0,-1.3493,-1.3491,-1.275,-1.1652,-1.0182,-1.1137,-1.1015,-0.9658,-1.0041,-0.9334,-0.759,-0.6371,-0.5793,-0.5847,-0.753,-0.8854,-0.9874,-1.1871,-1.3336,0.0,0.0,0.0,0.0,0.0,0.0,0.0,0.0,0.0,0.0,0.0,0.0,0.0,0.0,0.0,-0.1639,-0.0954,-0.006,0.0819,0.1422,0.2636,0.3463,0.2391,-0.0274,0.0,-0.7227,-0.8586,0.0,-0.7333,0.0,0.0,0.0,-0.8212,-1.0099,-1.1566,-1.207,-1.2092,-1.1555,-1.1073,-1.0399,-0.943,-0.8317,-0.7266,-0.638,-0.5333,-0.4618,-0.4428,-0.4075,-0.2746,-0.0208,-0.0043,0.1068,0.3399,0.3534,0.358,0.358,0.358,0.358,0.358,0.358,0.358,0.358,0.359,0.3595,0.3595,0.3595,0.3595,0.3593,0.3583,0.358,0.358,0.358,0.358,0.358,0.358,0.358,0.3581,0.0,0.0,0.0,0.0,0.0,0.0,0.0,0.0,0.0,0.0,0.0,0.0,0.0,0.0,0.0,0.0,0.0,0.0,0.0,-1.2239,-1.267,-1.3054,-1.2315,-1.0662,-0.803,-0.8599,-0.7986,-0.6087,-0.5604,-0.5364,-0.5363,-0.578,-0.6492,-0.7483,-0.9174,-1.0211,-1.0845,-1.2515,-1.3702,-1.4522,0.0,0.0,0.0,0.0,0.0,0.0,0.0,0.0,0.0,0.0,-0.6127,-0.2364,-0.0675,0.0142,0.0513,0.0678,0.1817,0.3059,0.3286,0.3841,0.4475,0.4917,0.5153,0.0,0.0,-0.2802,-0.3383,-0.3927,-0.4057,0.0,-0.5982,-0.7555,-0.8983,-0.9993,-1.0651,-1.0952,-1.0709,-0.9962,-0.9141,-0.8235,-0.7138,-0.6208,-0.5627,-0.4011,-0.2917,-0.2782,-0.1834,-0.0546,0.1034,0.1713,0.2688,0.4045,0.4038,0.4203,0.4659,0.4661,0.4661,0.4661,0.3926,0.358,0.358,0.358,0.358,0.358,0.358,0.358,0.358,0.358,0.358,0.358,0.358,0.358,0.358,0.358,0.358,0.358,0.0,0.0,0.0,0.0,0.0,0.0,0.0,0.0,0.0,0.0,0.0,0.0,0.0,0.0,0.0,0.0,0.0,0.0,-1.1282,-1.1636,-1.2062,-1.2619,-1.2059,-1.0198,-0.6941,-0.6212,-0.4906,-0.2898,-0.2652,-0.3114,-0.4264,-0.6013,-0.759,-0.9044,-1.0708,-1.1579,-1.1868,-1.319,-1.4,-1.4464,-1.5181,-1.5382,0.0,0.0,0.0,0.0,0.0,0.0,0.0,0.0,-0.244,0.0836,0.2858,0.3303,0.305,0.3072,0.3857,0.4859,0.5358,0.551,0.5921,0.0,0.0,0.0,0.5756,0.3708,0.1884,-0.0231,-0.1415,-0.2702,-0.4633,-0.6365,-0.7754,-0.8606,-0.9224,-0.9645,-0.9645,-0.8676,-0.7809,-0.7333,-0.5812,-0.4631,-0.4186,-0.2466,-0.1128,-0.054,0.0185,0.1279,0.2828,0.3308,0.3862,0.4557,0.4479,0.4712,0.5303,0.5305,0.5305,0.5305,0.4487,0.4054,0.3838,0.3667,0.358,0.358,0.358,0.358,0.358,0.358,0.358,0.358,0.358,0.358,0.358,0.358,0.358,0.358,0.0,0.0,0.0,0.0,0.0,0.0,0.0,0.0,0.0,0.0,0.0,0.0,0.0,0.0,0.0,0.0,0.0,0.0,-1.0366,-1.1159,-1.181,-1.2287,-1.1982,-1.0297,-0.7101,-0.4219,-0.1995,-0.0434,-0.1863,-0.3216,-0.453,-0.7039,-0.8854,-1.0118,-1.1906,-1.2758,-1.2884,-1.4017,-1.4389,-1.4294,-1.5368,-1.5539,0.0,0.0,0.0,0.0,0.0,0.0,0.0,0.0,0.0545,0.3548,0.6349,0.6681,0.6131,0.658,0.6248,0.6082,0.7678,0.7818,0.8079,0.0,0.0,0.0,1.255,0.9949,0.623,0.3344,0.0795,-0.1264,-0.2384,-0.4658,-0.6644,-0.755,-0.7972,-0.8183,-0.8189,-0.7145,-0.6477,-0.6714,-0.4282,-0.2347,-0.1817,-0.0695,0.0677,0.221,0.1658,0.2405,0.5156,0.4531,0.4339,0.4893,0.4896,0.5039,0.53,0.5303,0.5305,0.5305,0.5305,0.5,0.4391,0.3838,0.3624,0.358,0.358,0.358,0.358,0.358,0.358,0.358,0.358,0.358,0.358,0.358,0.358,0.358,0.0,0.0,0.0,0.0,0.0,0.0,0.0,0.0,0.0,0.0,0.0,0.0,0.0,0.0,0.0,0.0,0.0,0.0,-1.05,-1.1206,-1.1965,-1.2759,-1.2199,-1.0984,-0.9081,-0.3141,0.1273,0.3993,0.1605,-0.0588,-0.2626,-0.6903,-1.0049,-1.2163,-1.3358,-1.3756,-1.3556,-1.4213,-1.4214,-1.3842,-1.4697,-1.4481,0.0,0.0,0.0,0.0,0.0,0.0,0.0,0.0,0.0,0.0,0.8256,0.8339,0.853,0.8542,0.8398,0.8399,0.9103,0.8928,0.0,1.0375,0.0,0.0,0.0,1.1156,0.0,0.0,0.4997,0.2277,-0.0344,-0.2659,-0.4664,-0.6251,-0.691,-0.7345,-0.7733,-0.575,-0.4163,-0.3871,-0.2039,-0.039,0.0626,0.1381,0.2493,0.4089,0.3644,0.3731,0.4756,0.4416,0.4473,0.517,0.5285,0.5599,0.6222,0.604,0.613,0.6462,0.5255,0.4563,0.4389,0.4218,0.3966,0.358,0.358,0.358,0.358,0.358,0.358,0.358,0.358,0.358,0.358,0.358,0.358,0.358,0.0,0.0,0.0,0.0,0.0,0.0,0.0,0.0,0.0,0.0,0.0,0.0,0.0,0.0,0.0,0.0,0.0,0.0,0.0,-1.1135,-1.1761,-1.2421,-1.2479,-1.148,-0.931,-0.3581,0.0418,0.2526,0.1165,-0.0767,-0.3304,-0.7844,-1.1033,-1.2972,-1.3274,-1.3455,-1.3515,-1.3272,-1.3042,-1.2866,-1.3498,-1.3128,-1.2327,0.0,0.0,0.0,0.0,0.0,0.0,0.0,0.0,0.0,0.9243,0.9428,0.9354,1.0101,1.0067,0.997,1.0864,1.0555,0.0,1.1464,1.1603,1.1643,1.2419,0.0,0.0,1.0464,0.7975,0.5103,0.2197,-0.0186,-0.2163,-0.3611,-0.4118,-0.444,-0.4778,-0.3093,-0.1672,-0.1258,0.013,0.1504,0.2714,0.3041,0.3685,0.4955,0.453,0.4436,0.5007,0.47,0.4763,0.5432,0.554,0.5781,0.614,0.5991,0.604,0.6219,0.5164,0.4573,0.4389,0.4176,0.3924,0.358,0.358,0.358,0.358,0.358,0.358,0.3575,0.3512,0.3527,0.3573,0.351,0.3527,0.358,0.0,0.0,0.0,0.0,0.0,0.0,0.0,0.0,0.0,0.0,0.0,0.0,0.0,0.0,0.0,0.0,0.0,0.0,0.0,0.0,-1.154,-1.172,-1.2803,-1.175,-0.8232,-0.5203,-0.3355,-0.2731,-0.2028,-0.3051,-0.5736,-0.9381,-1.1734,-1.2853,-1.2279,-1.2429,-1.3042,-1.1913,-1.1513,-1.1636,-1.2058,-1.1663,-1.0951,-1.223,0.0,0.0,0.0,0.0,0.0,0.0,0.0,0.0,0.8631,0.9376,0.8774,1.0973,1.1123,1.0945,1.2707,1.2352,0.0,1.3094,1.2365,0.0,1.2774,1.3322,1.3276,1.2201,0.9906,0.7376,0.5001,0.2625,0.0767,-0.0093,-0.0247,-0.0155,0.0031,0.0664,0.1154,0.1347,0.2271,0.3321,0.4428,0.4323,0.4477,0.5171,0.464,0.4704,0.5643,0.523,0.5146,0.5637,0.5698,0.5628,0.551,0.5463,0.5321,0.5137,0.4976,0.4723,0.4366,0.3873,0.3667,0.358,0.358,0.358,0.358,0.358,0.358,0.3565,0.3366,0.3391,0.3542,0.3358,0.3437,0.3561,0.0,0.0,0.0,0.0,0.0,0.0,0.0,0.0,0.0,0.0,0.0,0.0,0.0,0.0,0.0,0.0,0.0,0.0,0.0,0.0,-1.2657,-1.2705,-1.3092,-1.1349,-0.7136,-0.7152,-0.6044,-0.3696,-0.43,-0.5402,-0.6967,-0.9738,-1.1607,-1.2672,-1.29,-1.3097,-1.3259,-1.3304,-1.2644,-1.1619,-1.1718,-1.0829,-0.9497,-1.0228,-1.0256,0.0,0.0,0.0,0.0,0.0,0.0,0.0,0.2329,0.4642,0.6732,0.8846,1.0256,1.1515,1.3323,1.2643,0.0,0.0,1.2629,1.2738,1.3757,1.4117,1.3915,1.2904,1.1461,0.9591,0.6973,0.5338,0.3972,0.2745,0.2539,0.31,0.4759,0.4881,0.485,0.4888,0.5035,0.5228,0.5477,0.5498,0.5634,0.601,0.5422,0.5234,0.5667,0.5395,0.5274,0.5374,0.5595,0.5673,0.5666,0.5069,0.5004,0.5404,0.4131,0.3762,0.4232,0.4244,0.4008,0.358,0.358,0.358,0.358,0.358,0.358,0.3565,0.3366,0.3326,0.3353,0.3363,0.3371,0.3375,0.0,0.0,0.0,0.0,0.0,0.0,0.0,0.0,0.0,0.0,0.0,0.0,0.0,0.0,0.0,0.0,0.0,0.0,0.0,-1.2408,-1.3124,-1.3426,-1.3526,-1.2611,-1.0529,-1.0619,-1.0005,-0.8593,-0.8511,-0.8542,-0.8734,-1.0279,-1.1505,-1.2406,-1.2458,-1.2625,-1.283,-1.2312,-1.1409,-1.0319,-0.9928,-0.9136,-0.8257,-0.9004,-0.9319,-0.9396,-0.9304,0.0,0.0,0.0,0.0,0.0,0.0,0.0,0.3552,0.7024,0.897,1.055,1.3037,0.0,0.0,1.2713,0.0,1.3478,1.4073,1.4454,1.4496,1.3849,1.273,1.1288,0.9406,0.8136,0.7075,0.6186,0.5826,0.6015,0.7105,0.6798,0.6488,0.6488,0.6289,0.6067,0.586,0.6052,0.6075,0.5841,0.5674,0.5561,0.5498,0.5364,0.5312,0.5312,0.5428,0.5405,0.5167,0.4788,0.4591,0.4596,0.3752,0.3475,0.3685,0.3894,0.388,0.358,0.358,0.358,0.3575,0.3545,0.3471,0.3448,0.3184,0.314,0.3201,0.3241,0.3286,0.3361,0.0,0.0,0.0,0.0,0.0,0.0,0.0,0.0,0.0,0.0,0.0,0.0,0.0,0.0,0.0,0.0,0.0,0.0,0.0,-1.2809,-1.3451,-1.3934,-1.3872,-1.4069,-1.4568,-1.3685,-1.3306,-1.3486,-1.2285,-1.1226,-1.0327,-1.0818,-1.145,-1.2177,-1.1978,-1.2069,-1.2291,-1.1083,-0.9972,-0.8994,-0.8266,-0.7706,-0.7378,-0.8311,-0.8965,-0.9435,-0.9887,-0.9656,-0.926,-0.9931,0.0,0.0,0.0,0.0,-0.0218,0.4474,0.6948,0.8805,1.1787,0.0,1.3193,1.2937,1.3381,0.0,1.3883,1.4339,1.4664,1.4287,1.3556,1.2687,1.1725,1.0691,0.9845,0.9336,0.8847,0.8513,0.8399,0.7814,0.7391,0.7391,0.7052,0.6695,0.6336,0.6488,0.6336,0.5675,0.5793,0.5765,0.5432,0.534,0.5312,0.5312,0.5312,0.5116,0.4727,0.4634,0.4309,0.3774,0.3668,0.3438,0.3206,0.3498,0.3588,0.35,0.35,0.35,0.3492,0.3404,0.3312,0.3241,0.3015,0.2981,0.3083,0.3083,0.3166,0.332,0.0,0.0,0.0,0.0,0.0,0.0,0.0,0.0,0.0,0.0,0.0,-1.2717,-1.2526,-1.1991,0.0,0.0,0.0,0.0,-1.2309,0.0,0.0,-1.4153,-1.3762,-1.3855,-1.4502,-1.3491,-1.2968,-1.2993,-1.212,-1.138,0.0,0.0,0.0,-1.2139,-1.2789,-1.276,-1.2239,-1.2378,-1.1209,-0.9235,-0.8884,-0.8135,-0.7303,-0.8197,-0.8844,-0.9428,-1.0295,-1.0589,-1.0678,-1.101,-1.0272,0.0,0.0,0.0,-0.4171,-0.0598,0.3237,0.6797,0.0,0.0,1.2945,0.0,1.3152,1.3751,0.0,1.3437,1.3581,1.2842,1.3443,1.3849,1.3076,1.2435,1.1731,1.0862,1.05,1.0169,0.9654,0.925,0.9002,0.9002,0.8452,0.8047,0.7984,0.7384,0.6965,0.6875,0.6275,0.5886,0.5824,0.5495,0.5312,0.5312,0.5312,0.5281,0.5217,0.4794,0.4552,0.4456,0.3881,0.3591,0.3549,0.3683,0.3539,0.3183,0.3183,0.3183,0.3181,0.3159,0.3151,0.3095,0.2973,0.2922,0.2937,0.2937,0.2949,0.2985,0.0,0.0,0.0,0.0,0.0,0.0,0.0,0.0,0.0,0.0,0.0,-1.4003,-1.3481,-1.3112,0.0,0.0,0.0,0.0,-1.2275,-1.3263,0.0,0.0,-1.387,-1.423,-1.46,-1.3712,-1.3071,-1.2728,-1.1859,0.0,0.0,-1.0634,-1.1421,0.0,0.0,0.0,-1.272,0.0,-1.0833,-0.9045,-0.8144,-0.7979,-0.8312,-0.8687,-0.9572,-1.0633,-1.1051,-1.1248,-1.1283,-1.1298,-1.0887,-1.0268,-0.9768,0.0,0.0,0.0,-0.0183,0.3301,0.789,1.125,1.3356,0.0,1.3332,1.3573,1.293,1.3494,1.3828,1.2643,1.3289,1.3764,1.2764,1.2886,1.2815,1.1829,1.1664,1.148,1.0932,1.0409,1.0037,0.9881,0.9277,0.859,0.7909,0.7807,0.7406,0.6492,0.6517,0.6484,0.6248,0.6068,0.5975,0.5975,0.5975,0.5855,0.5644,0.5418,0.5068,0.4602,0.4084,0.3834,0.3836,0.3893,0.3622,0.312,0.3392,0.3355,0.3077,0.3034,0.3003,0.2986,0.2839,0.2781,0.2791,0.2878,0.2908,0.2953,0.0,0.0,0.0,0.0,0.0,0.0,0.0,0.0,0.0,0.0,0.0,0.0,-1.438,0.0,0.0,0.0,0.0,0.0,-1.2262,0.0,0.0,0.0,0.0,-1.4466,-1.469,-1.373,-1.2918,-1.2315,0.0,0.0,-0.91,-0.9473,-1.0292,0.0,-1.2997,-1.3374,0.0,0.0,0.0,-0.9232,-0.8079,-0.8239,-0.9227,-0.9654,-1.0557,-1.1637,-1.1933,-1.1961,-1.1832,-1.1679,-1.1328,-1.0843,-1.0427,-0.9384,0.0,0.0,0.0,0.0,0.0,0.0,1.3536,1.3335,1.3412,1.3387,1.2827,1.349,1.3811,1.237,1.2862,1.315,1.186,1.2539,1.3077,1.2424,1.2347,1.226,1.2043,1.1388,1.0814,1.0463,0.9759,0.8937,0.8048,0.8164,0.7866,0.685,0.7032,0.7037,0.6743,0.6546,0.6432,0.6432,0.6464,0.6366,0.6064,0.6064,0.5723,0.5064,0.4558,0.4304,0.4304,0.4183,0.3859,0.3341,0.3565,0.3419,0.3002,0.2999,0.2955,0.2839,0.2858,0.2777,0.2728,0.2808,0.2919,0.3057,0.0,0.0,0.0,0.0,0.0,0.0,0.0,0.0,0.0,0.0,0.0,0.0,0.0,-1.4549,-1.4064,-1.3967,0.0,0.0,0.0,0.0,0.0,0.0,0.0,0.0,-1.4692,-1.3228,-1.2155,-1.1554,0.0,0.0,-0.7138,-0.7418,-0.7593,-0.7837,-1.1315,-1.2664,-1.2314,0.0,0.0,0.0,-0.974,-0.9489,-0.9561,-1.1141,-1.1696,-1.1742,-1.2814,-1.2921,-1.2545,-1.2545,-1.1968,-1.1122,-1.0282,-0.9396,-0.8474,0.0,0.0,0.0,0.0,1.0847,0.0,1.3012,1.3175,1.3207,1.2791,1.2954,1.2805,1.1443,1.1919,1.2114,1.0585,1.1324,1.2289,1.2618,1.2411,1.2367,1.2783,1.2147,1.1411,1.0753,0.9852,0.9273,0.9218,0.8658,0.8537,0.9077,0.8046,0.7379,0.7353,0.6643,0.6214,0.6214,0.639,0.6488,0.6457,0.6457,0.6453,0.6393,0.555,0.5146,0.5111,0.475,0.4355,0.3928,0.3521,0.3094,0.2737,0.3117,0.3049,0.2758,0.3136,0.3035,0.2716,0.2723,0.2953,0.3274,0.0,0.0,0.0,0.0,0.0,0.0,0.0,0.0,0.0,0.0,0.0,0.0,0.0,-1.5078,-1.4707,-1.4145,-1.2706,0.0,0.0,0.0,0.0,0.0,0.0,0.0,0.0,-1.3197,-1.2147,0.0,0.0,-0.8175,-0.6221,-0.6057,-0.5858,-0.5735,-0.8625,-1.0565,-1.1582,-1.0378,0.0,-1.1729,-1.0419,-1.0603,-1.1698,-1.2228,-1.2658,-1.3052,-1.3371,-1.3328,-1.306,-1.2732,-1.2249,-1.1594,-1.0378,-0.939,-0.8385,-0.6831,-0.3729,-0.0122,0.0,0.0,0.0,1.2466,1.3147,1.3217,1.2638,1.3143,1.3186,1.1237,1.169,1.1949,1.036,1.1316,1.2181,1.1628,1.1841,1.2212,1.2594,1.1794,1.124,1.1387,1.0384,0.9599,0.9394,0.8841,0.8553,0.8714,0.8056,0.7709,0.7852,0.7459,0.7417,0.7854,0.7729,0.7625,0.7579,0.7073,0.6836,0.6806,0.6281,0.5898,0.5654,0.5508,0.5036,0.4374,0.421,0.3916,0.3532,0.3695,0.366,0.3534,0.336,0.3395,0.3499,0.32,0.3362,0.3788,0.0,0.0,0.0,0.0,0.0,0.0,0.0,0.0,0.0,-1.3162,0.0,0.0,0.0,0.0,-1.5093,-1.4486,-1.3053,-1.2002,-1.1602,-1.1283,0.0,0.0,0.0,0.0,0.0,-1.283,-1.1789,-1.0703,-0.9453,0.0,0.0,-0.5127,-0.4513,-0.3859,-0.5354,-0.7537,0.0,-0.9081,-0.9931,-1.1845,-1.0987,-1.1397,-1.2579,-1.3071,-1.3552,-1.3917,-1.3814,-1.3593,-1.3278,-1.2635,-1.2165,-1.1557,-0.9975,-0.8724,-0.7579,-0.6214,-0.481,-0.3208,-0.0898,0.0,0.0,0.0,1.1541,1.209,1.2728,1.3376,1.3352,1.1644,1.1728,1.173,1.0522,1.1065,1.1538,1.1081,1.1376,1.1811,1.2237,1.1803,1.1398,1.1252,1.0615,1.0012,0.9523,0.9011,0.8762,0.8893,0.8326,0.8055,0.8266,0.7962,0.8121,0.8848,0.861,0.8556,0.8721,0.8098,0.7788,0.7754,0.7303,0.6862,0.6484,0.635,0.5894,0.5222,0.5099,0.4628,0.4026,0.4153,0.4121,0.3991,0.3819,0.3853,0.3961,0.3658,0.3821,0.4248,0.0,0.0,0.0,0.0,0.0,0.0,0.0,0.0,-1.3743,-1.3847,0.0,0.0,0.0,0.0,0.0,-1.5105,-1.4354,-1.3455,-1.2405,-1.1917,0.0,0.0,0.0,0.0,0.0,-1.2131,-1.1076,-1.0713,-0.9011,-0.7187,-0.5252,-0.4686,-0.366,-0.2254,-0.1746,-0.3832,-0.7717,-0.7975,-0.8992,-1.0497,-1.1481,-1.1859,-1.2028,-1.3738,-1.4313,-1.4198,-1.4117,-1.3745,-1.3159,-1.2368,-1.1735,-1.0934,-0.9007,-0.7401,-0.6176,-0.5891,-0.7091,-0.7688,0.0,0.0,0.0,0.6103,0.8178,0.9747,1.2881,1.3427,1.3116,1.2585,1.1968,1.1401,1.0987,1.0512,1.0385,1.1078,1.1067,1.1185,1.1801,1.2213,1.1868,1.0302,1.0521,1.0485,0.9683,0.9185,0.9177,0.9848,0.8908,0.8393,0.8586,0.8125,0.8207,0.8966,0.8895,0.9161,0.9786,0.9497,0.9318,0.9312,0.859,0.8058,0.771,0.7249,0.6836,0.6484,0.6095,0.5222,0.4088,0.4473,0.4377,0.4091,0.4441,0.4377,0.4026,0.4023,0.428,0.4631,0.0,0.0,0.0,0.0,0.0,-1.4055,-1.2723,-1.3149,-1.3465,0.0,0.0,0.0,-1.5012,-1.5196,-1.5231,-1.5107,-1.423,-1.3471,-1.2974,-1.1616,-1.1123,-1.1785,-1.1496,-1.1997,-1.3417,-1.301,-1.2216,-1.1064,-1.0296,-0.8963,-0.7135,-0.5807,-0.4708,-0.3826,-0.2709,-0.3305,-0.5153,-0.5452,-0.7565,-1.072,-1.1054,-1.1891,-1.3033,-1.3817,-1.4182,-1.4242,-1.4032,-1.3583,-1.2983,-1.2321,-1.1555,-1.0546,-0.8746,-0.7645,-0.6894,-0.6386,-0.7217,-0.8156,-0.759,0.0,0.0,0.0,0.0,0.0,0.8463,1.054,1.2202,1.1918,1.1895,1.1824,1.1472,1.1594,1.1609,1.1131,1.0663,1.0614,1.1356,1.1351,1.1111,1.0657,1.0587,1.0356,0.9797,0.9192,0.9069,0.9638,0.8871,0.8453,0.8663,0.8862,0.8886,0.872,0.9621,1.0029,0.9866,0.9969,1.0014,1.002,0.9339,0.8792,0.8392,0.7781,0.7268,0.6832,0.6502,0.5967,0.5348,0.5176,0.5055,0.4928,0.4698,0.473,0.4893,0.457,0.473,0.5119,0.0,0.0,0.0,-1.4451,-1.4114,-1.3713,-1.3222,-1.3376,-1.3555,0.0,0.0,0.0,-1.4961,-1.5143,-1.5191,-1.5112,-1.4205,-1.3412,-1.2854,-1.142,-1.095,-1.1767,-1.138,-1.1884,-1.346,-1.3225,-1.2674,-1.1873,-1.1098,-1.0099,-0.8816,-0.7164,-0.5984,-0.5236,-0.3915,-0.3769,-0.4538,-0.4872,-0.6699,-0.9441,-1.0122,-1.1205,-1.2468,-1.3086,-1.3739,-1.4258,-1.3956,-1.3476,-1.2839,-1.1979,-1.0669,-0.9231,-0.8217,-0.756,-0.7115,-0.6786,-0.7518,-0.8504,-0.8914,-0.7274,-0.5027,-0.3397,0.0,0.0,0.5772,0.7897,0.9756,1.1149,1.159,1.1755,1.1834,1.2045,1.2041,1.1582,1.13,1.1058,1.0827,1.092,1.0861,1.0465,1.0548,1.0388,0.9771,0.9288,0.914,0.945,0.897,0.8678,0.8738,0.8975,0.9077,0.9019,0.9712,1.0058,0.9992,1.0291,1.0395,1.0331,1.0104,0.9754,0.9349,0.882,0.8269,0.7679,0.7204,0.6781,0.6366,0.5975,0.5613,0.5281,0.4988,0.5052,0.5281,0.4988,0.5055,0.5312,0.0,0.0,-1.4621,-1.4383,-1.3645,-1.3388,-1.4205,-1.3826,-1.3742,0.0,-1.4684,-1.4742,-1.4878,-1.4946,-1.5009,-1.5093,-1.4159,-1.3232,-1.2448,-1.1342,-1.0918,-1.1393,-1.1226,-1.1868,-1.3487,-1.2964,-1.2704,-1.2757,-1.168,-1.0879,-1.0328,-0.8633,-0.7417,-0.6587,-0.5332,-0.4967,-0.5338,-0.567,-0.6418,-0.7502,-0.8991,-1.0126,-1.0994,-1.186,-1.2972,-1.4073,-1.3795,-1.3296,-1.2554,-1.1171,-0.9323,-0.7582,-0.7434,-0.7215,-0.7003,-0.6961,-0.7795,0.0,-0.8722,-0.8568,-0.7823,-0.5461,-0.4008,0.0,0.3286,0.5081,0.659,0.9923,1.0974,1.1524,1.2243,1.2281,1.2225,1.2303,1.2545,1.2148,1.0493,1.1032,1.1171,1.0058,1.055,1.0604,0.9691,0.9438,0.9331,0.9303,0.9134,0.8986,0.8867,0.8804,0.8994,0.9498,0.9469,0.9623,1.0023,1.0369,1.047,1.0373,1.0692,1.0654,1.0288,0.9963,0.9431,0.8787,0.8063,0.7535,0.7143,0.6725,0.6125,0.5432,0.5432,0.5432,0.5432,0.5432,0.5404,0.5372,0.0,-1.4955,-1.4557,-1.4073,-1.385,-1.3494,-1.2771,-1.2907,-1.3147,-1.3269,-1.4069,-1.4691,-1.488,-1.4487,-1.4451,-1.5051,-1.3647,-1.2819,-1.301,-1.1618,-1.0992,-1.1458,-1.089,-1.0939,-1.1773,-1.2636,-1.2877,-1.2479,-1.2661,-1.2299,-1.1375,-0.995,-0.8895,-0.8125,-0.7014,-0.6566,-0.6649,-0.6977,-0.7147,-0.7267,-0.8438,-0.9479,-1.0394,-1.0692,-1.1678,-1.2934,-1.2982,-1.2545,-1.1553,-0.9105,-0.8008,-0.7492,-0.6487,-0.6545,-0.6882,-0.6293,-0.7388,-0.8692,-0.8257,-0.92,-1.0162,-0.9682,-0.7573,0.0,-0.4193,0.0569,0.5149,0.6564,0.9608,1.2293,1.3235,1.3825,1.3897,1.3129,1.3319,1.3024,1.1453,1.2474,1.256,1.0333,1.1258,1.1431,0.9759,0.956,0.948,0.9312,0.9266,0.9229,0.92,0.9189,0.912,0.8967,0.9459,0.9661,0.9536,0.9967,1.0183,1.017,1.0398,1.0456,1.0369,0.9969,0.9728,0.9542,0.8579,0.7956,0.7559,0.7148,0.6695,0.6279,0.6279,0.6279,0.6279,0.6279,0.6064,0.5828,-1.5231,-1.4795,-1.426,-1.3959,-1.3283,-1.2689,-1.2304,-1.2165,-1.2308,-1.2882,-1.3443,-1.3901,-1.4174,-1.3995,-1.4043,-1.451,-1.3324,-1.2452,-1.2224,-1.1003,-1.0567,-1.1163,-1.085,-1.0951,-1.1597,-1.2586,-1.3025,-1.2849,-1.3193,-1.3011,-1.2319,-1.0976,-1.0175,-0.9781,-0.8515,-0.8244,-0.8706,-0.814,-0.7909,-0.7978,-0.835,-0.8879,-0.9474,-0.9685,-1.0542,-1.1563,-1.0935,-1.0115,-0.9086,-0.735,-0.6036,-0.5282,-0.5933,-0.5941,-0.5733,-0.5955,-0.7168,-0.8475,-0.8521,-0.9658,-1.0877,-1.1229,-1.0504,0.0,0.0,-0.4408,-0.1002,0.1413,0.439,0.6878,0.7924,0.962,1.0855,1.0809,1.1958,1.2538,1.163,1.2566,1.2867,1.1554,1.1671,1.1472,1.0492,1.0339,1.0414,1.0675,1.0257,1.0003,1.0003,0.9553,0.9219,0.9054,0.9318,0.9331,0.9099,0.9606,0.9773,0.9612,1.0038,1.036,1.0598,1.0247,1.0085,1.002,0.933,0.8734,0.822,0.7854,0.7593,0.7325,0.6725,0.6484,0.6484,0.6484,0.6362,0.6217,-1.4888,-1.4482,-1.3955,-1.3838,-1.2742,-1.1974,-1.2316,-1.1773,-1.1711,-1.2774,-1.3088,-1.3327,-1.3644,-1.3702,-1.3846,-1.4182,-1.3246,-1.2378,-1.1757,-1.0696,-1.0408,-1.1146,-1.0854,-1.0977,-1.1622,-1.2243,-1.2706,-1.3031,-1.3106,-1.3011,-1.2721,-1.1426,-1.0749,-1.0574,-0.9484,-0.9433,-1.0102,-0.8919,-0.8475,-0.8546,-0.8211,-0.8271,-0.864,-0.8855,-0.9558,-1.0213,-0.8566,-0.7139,-0.5847,-0.4733,-0.3251,-0.2209,-0.421,-0.4489,-0.425,-0.5263,-0.669,-0.8115,-0.8855,-1.0039,-1.1171,-1.1735,-1.2571,-1.2605,0.0,0.0,0.0,-0.3647,-0.1017,0.1005,0.2104,0.4513,0.6699,0.7831,0.9789,1.131,1.1723,1.2435,1.2801,1.25,1.2104,1.1676,1.1279,1.1117,1.1351,1.2105,1.1462,1.1032,1.1032,1.0159,0.9654,0.9609,0.9337,0.9103,0.89,0.9255,0.931,0.9044,0.9678,1.0213,1.0669,1.0505,1.0467,1.0478,0.9989,0.9488,0.8963,0.8551,0.8365,0.8195,0.7148,0.673,0.673,0.673,0.6669,0.6635,-1.3995,-1.4077,-1.3897,-1.36,-1.2958,-1.2512,-1.256,-1.2146,-1.1994,-1.2493,-1.3387,-1.4062,-1.4276,-1.3989,-1.4106,-1.4914,-1.3634,-1.3012,-1.3556,-1.2049,-1.1434,-1.2111,-1.072,-1.0159,-1.0651,-1.0859,-1.1324,-1.2057,-1.1963,-1.1881,-1.1817,-1.0721,-0.9735,-0.8891,-0.9208,-0.9216,-0.8982,-0.8874,-0.8446,-0.7772,-0.7326,-0.7627,-0.8359,-0.8377,-0.8825,-0.9139,-0.6654,-0.4348,-0.21,0.0357,0.1044,0.0887,0.1011,-0.0734,-0.2906,-0.3454,-0.5437,-0.7678,-0.8668,-1.0401,-1.2048,-1.2404,-1.3023,-1.3462,-1.3095,0.0,-0.7956,-0.6618,0.0,0.02,0.1394,0.0,0.0,0.6335,0.7705,0.9538,1.2418,1.3125,1.2906,1.1766,1.2905,1.3151,1.153,1.1256,1.1512,1.2308,1.227,1.2213,1.2213,1.1429,1.0904,1.0722,0.9959,0.9446,0.9247,0.9016,0.8871,0.8836,0.9277,0.9726,1.019,1.0453,1.0792,1.1121,1.0213,0.976,0.9638,0.9012,0.8578,0.8257,0.7744,0.7573,0.7573,0.7573,0.7344,0.7089,-1.3928,-1.4004,-1.3886,-1.3565,-1.2992,-1.2455,-1.2026,-1.2065,-1.2032,-1.1736,-1.2521,-1.3192,-1.3383,-1.3439,-1.3661,-1.4174,-1.3735,-1.3368,-1.3211,-1.2478,-1.216,-1.2405,-1.1217,-1.057,-1.062,-1.0626,-1.0849,-1.1253,-1.1667,-1.1668,-1.1282,-1.059,-1.0077,-0.9672,-0.88,-0.8727,-0.9194,-0.8083,-0.7401,-0.7063,-0.7064,-0.719,-0.7376,-0.7295,-0.6962,-0.6323,-0.4406,-0.0976,0.3056,0.5899,0.5677,0.3804,0.1564,-0.0255,-0.2067,-0.4728,-0.6755,-0.8493,-1.0056,-1.1553,-1.2737,-1.295,-1.3539,-1.3999,-1.3722,-1.2411,-1.108,-1.0455,0.0,0.0,0.0,0.0,0.0,0.0,0.3724,0.6222,0.8656,1.0601,1.2227,1.344,1.3446,1.2815,1.1473,1.1704,1.2284,1.3088,1.2718,1.246,1.246,1.118,1.0411,1.0323,0.9887,0.9605,0.948,0.9251,0.9039,0.8801,0.8977,0.9209,0.9542,1.0063,1.0481,1.0778,1.0699,1.0582,1.0383,0.9676,0.931,0.9129,0.8562,0.8086,0.77,0.77,0.7603,0.7471,-1.4005,0.0,-1.3962,-1.3657,-1.31,-1.2501,-1.1982,-1.2248,-1.2278,-1.1699,-1.2162,-1.2588,-1.2747,-1.31,-1.3449,-1.3716,-1.3994,-1.3924,-1.3394,-1.3118,-1.3036,-1.3151,-1.2059,-1.1319,-1.104,-1.0773,-1.0675,-1.0773,-1.1166,-1.1223,-1.0928,-1.0307,-0.9985,-0.9872,-0.8454,-0.823,-0.8795,-0.7273,-0.6548,-0.6429,-0.6465,-0.6407,-0.6329,-0.6563,-0.5781,-0.4351,-0.2736,0.1298,0.6196,0.8233,0.748,0.5079,0.1663,-0.0641,-0.2681,-0.5903,-0.7919,-0.9497,-1.1209,-1.2435,-1.3248,-1.3344,-1.3862,-1.4239,-1.3783,-1.3599,-1.3404,-1.2894,-1.1773,0.0,0.0,0.0,-0.4927,-0.3473,0.0,0.3073,0.5414,0.7824,1.0474,1.3533,1.3041,1.2255,1.1756,1.2219,1.2895,1.3726,1.3461,1.327,1.3273,1.1634,1.0679,1.0641,1.0103,0.9769,0.9682,0.9534,0.9305,0.9019,0.8921,0.9031,0.9308,0.9985,1.0402,1.0613,1.1176,1.125,1.0954,1.0345,0.9976,0.976,0.9263,0.864,0.7999,0.7889,0.7783,0.77,-1.3998,-1.4099,-1.4131,-1.392,-1.3339,-1.2906,-1.2946,-1.298,-1.2964,-1.2939,-1.2908,-1.2892,-1.2884,-1.3378,-1.3796,-1.4061,-1.4509,-1.4842,-1.501,-1.4346,-1.4211,-1.4799,-1.3237,-1.2198,-1.1863,-1.1099,-1.0701,-1.0702,-1.0082,-1.0131,-1.0784,-0.9596,-0.8833,-0.8465,-0.8261,-0.7767,-0.7045,-0.6598,-0.625,-0.5966,-0.5189,-0.5058,-0.5481,-0.6631,-0.5959,-0.4124,-0.2084,0.1741,0.5781,0.553,0.484,0.3836,0.2469,-0.1324,-0.5391,-0.6042,-0.8092,-1.0399,-1.1571,-1.2682,-1.3504,-1.3567,-1.3897,-1.4103,-1.3706,-1.3888,-1.3913,-1.2999,-1.2504,-1.183,-1.0505,-0.8973,-0.7599,-0.6785,-0.329,0.0,0.0,0.5594,0.7315,1.0468,1.1264,1.1861,1.2668,1.2723,1.3049,1.3916,1.4747,1.5211,1.5206,1.3622,1.2646,1.2521,1.0944,1.002,0.9896,0.9696,0.9583,0.9576,0.9248,0.933,0.9797,1.047,1.0887,1.1113,1.1514,1.1549,1.128,1.0977,1.0432,0.9811,0.9786,0.9363,0.8734,0.8393,0.8038,0.77,-1.4657,0.0,-1.4493,-1.3993,-1.3608,-1.3278,-1.3033,-1.2842,-1.2668,-1.2419,-1.2376,-1.236,-1.236,-1.2649,-1.308,-1.3649,-1.413,-1.4557,-1.4936,-1.4898,-1.4907,-1.5031,-1.3848,-1.3079,-1.283,-1.2038,-1.1342,-1.0767,-1.0625,-1.0435,-1.019,-0.9465,-0.8945,-0.8551,-0.7489,-0.6742,-0.6212,-0.5369,-0.4859,-0.4641,-0.5139,-0.5624,-0.6125,-0.6558,-0.5815,-0.4282,-0.2388,-0.0344,0.1579,0.253,0.1649,-0.0014,-0.1026,-0.5287,-0.9859,-0.9583,-1.0618,-1.2112,-1.3351,-1.4047,-1.4375,-1.4183,-1.3998,-1.3787,-1.3458,-1.3278,-1.2992,-1.2491,-1.2148,-1.1582,-1.0505,-0.9301,-0.794,-0.6323,-0.3987,-0.1509,0.0,0.3545,0.5798,0.7577,0.9754,1.1057,1.0962,1.1926,1.2732,1.3108,1.3948,1.4459,1.4502,1.3422,1.2507,1.1886,1.132,1.0714,1.0034,0.9968,0.9819,0.9599,0.9479,0.9374,0.9295,0.9882,1.0131,1.0152,1.0946,1.125,1.1174,1.1182,1.0909,1.0519,1.0284,0.9778,0.9128,0.8533,0.8205,0.8062,-1.4954,-1.4883,-1.4662,-1.4137,-1.3681,-1.3261,-1.2875,-1.2513,-1.2161,-1.1862,-1.1721,-1.1665,-1.1665,-1.1969,-1.2408,-1.3052,-1.3666,-1.4249,-1.4761,-1.5044,-1.5145,-1.5031,-1.4402,-1.3819,-1.3313,-1.246,-1.1607,-1.0758,-1.0543,-1.0206,-0.9784,-0.9335,-0.8876,-0.836,-0.7106,-0.6114,-0.5349,-0.4649,-0.4145,-0.3934,-0.508,-0.576,-0.6064,-0.6033,-0.5442,-0.4436,-0.3104,-0.1892,-0.0915,-0.0517,-0.1731,-0.3614,-0.4843,-0.8585,-1.2436,-1.2033,-1.2506,-1.3326,-1.4024,-1.427,-1.426,-1.3965,-1.3619,-1.3313,-1.3185,-1.2929,-1.2638,-1.2271,-1.2035,-1.1585,-1.0624,-0.9482,-0.8065,-0.6233,-0.4805,-0.3305,0.0,0.1196,0.3559,0.4871,0.7972,0.9861,0.9471,1.0747,1.1863,1.2479,1.3125,1.3806,1.452,1.3154,1.2218,1.1965,1.136,1.0745,1.0138,1.0113,0.9992,0.9775,0.9656,0.946,0.9231,0.9772,0.9883,0.9722,1.0623,1.0925,1.0767,1.1085,1.1024,1.0708,1.0708,1.0315,0.9673,0.8959,0.8612,0.8421,-1.4895,-1.4804,-1.4626,-1.4313,-1.3552,-1.2889,-1.2573,-1.2048,-1.1592,-1.129,-1.102,-1.0873,-1.0873,-1.1327,-1.1824,-1.232,-1.3147,-1.3912,-1.4531,-1.4833,-1.4961,-1.4913,-1.489,-1.4392,-1.3318,-1.2431,-1.155,-1.0682,-0.9861,-0.9505,-0.9567,-0.915,-0.8556,-0.7822,-0.7057,-0.5868,-0.4453,-0.4361,-0.4108,-0.3828,-0.4934,-0.5347,-0.5309,-0.5244,-0.4973,-0.4544,-0.4045,-0.281,-0.1707,-0.3538,-0.5199,-0.683,-0.8707,-1.1086,-1.32,-1.3274,-1.361,-1.3914,-1.3607,-1.3402,-1.3216,-1.3027,-1.2818,-1.2693,-1.2807,-1.2876,-1.2771,-1.2277,-1.2164,-1.187,-1.0865,-0.9573,-0.8165,-0.6695,-0.5764,-0.4785,-0.3498,-0.15,0.0493,0.2214,0.5669,0.8005,0.8258,0.9295,1.056,1.2035,1.2462,1.3437,1.5232,1.2965,1.1963,1.2695,1.1121,1.0241,1.0199,1.0144,1.0096,1.0104,0.9775,0.9621,0.9626,1.0127,1.0146,0.9819,1.0525,1.0548,1.0129,1.082,1.083,1.0448,1.1037,1.0901,1.0307,0.9641,0.9149,0.8761,-1.4756,-1.4922,-1.4756,-1.3735,-1.3091,-1.2763,-1.2999,-1.2094,-1.1206,-1.0692,-1.0567,-1.0532,-1.0532,-1.065,-1.1049,-1.1803,-1.2488,-1.3221,-1.4024,-1.4524,-1.4844,-1.4974,-1.4782,-1.424,-1.3322,-1.3163,-1.2183,-1.033,-1.0359,-0.9982,-0.922,-0.8566,-0.7864,-0.7113,-0.6067,-0.4974,-0.3884,-0.3574,-0.3736,-0.4273,-0.4865,-0.5182,-0.534,-0.5546,-0.5196,-0.4485,-0.3734,-0.3388,-0.3622,-0.5755,-0.7734,-0.9662,-1.1502,-1.3163,-1.4435,-1.4462,-1.4067,-1.366,-1.3831,-1.3367,-1.282,-1.267,-1.2354,-1.2093,-1.2012,-1.1789,-1.1664,-1.1922,-1.1813,-1.1474,-1.0811,-0.999,-0.8958,-0.7602,-0.6399,-0.5765,-0.6091,-0.4816,-0.323,-0.1574,-0.0093,0.2358,0.6309,0.8245,0.9835,1.1201,1.2616,1.3671,1.4257,1.3601,1.2738,1.1723,1.1354,1.0862,1.0212,1.0179,1.0155,1.0104,1.0006,0.9893,0.9747,0.9789,0.9672,0.9453,0.989,0.9894,0.9663,1.0681,1.083,1.0412,1.0563,1.0376,0.9985,0.9551,0.9149,0.8789,-1.4833,-1.5203,-1.524,-1.4416,-1.3495,-1.2744,-1.2408,-1.1537,-1.0729,-1.026,-1.0185,-1.0135,-0.9976,-1.0222,-1.0623,-1.1203,-1.1911,-1.2722,-1.363,-1.4179,-1.4582,-1.4821,-1.4367,-1.3854,-1.3309,-1.2453,-1.1356,-0.9978,-0.9699,-0.9312,-0.8819,-0.8293,-0.7678,-0.6999,-0.6243,-0.522,-0.4044,-0.3495,-0.3681,-0.431,-0.4343,-0.4493,0.0,-0.4714,-0.4332,-0.3679,-0.2984,-0.3505,-0.4774,-0.6426,-0.8452,-1.056,-1.2263,-1.3618,-1.4549,-1.4352,-1.3931,-1.3441,-1.2992,-1.2461,-1.2011,-1.1879,-1.1593,-1.1368,-1.1461,-1.1278,-1.1166,-1.1374,-1.1454,-1.1321,-1.0721,-1.0002,-0.9016,-0.758,-0.6658,-0.6264,-0.6735,-0.5931,-0.5021,-0.428,-0.2936,-0.0758,0.258,0.5154,0.7576,0.9906,1.1055,1.2217,1.3518,1.2966,1.2323,1.167,1.1133,1.0621,1.0164,1.0157,1.0146,1.0144,1.008,1.0012,0.9923,0.9761,0.9594,0.943,0.9538,0.9608,0.9694,1.0168,1.0343,1.0292,1.0053,0.9845,0.9668,0.9631,0.9573,0.9466,-1.5053,-1.5558,-1.5856,-1.5463,-1.4199,-1.2802,-1.1507,-1.0787,-1.0254,-0.9893,-0.9848,-0.9712,-0.9369,-0.9842,-1.0276,-1.0498,-1.1242,-1.2112,-1.3097,-1.3671,-1.4154,-1.4558,-1.3839,-1.3344,-1.3143,-1.125,-1.0013,-0.9491,-0.8606,-0.8281,-0.847,-0.8148,-0.7735,-0.7226,-0.6947,-0.603,-0.4607,-0.3875,-0.3801,-0.4144,-0.3689,-0.3667,-0.3847,-0.3401,-0.2916,-0.246,-0.1991,-0.3088,-0.4938,-0.5884,-0.776,-0.9976,-1.1556,-1.2971,-1.3949,-1.3545,-1.3382,-1.3041,-1.1694,-1.114,-1.0936,-1.0872,-1.0662,-1.0556,-1.0913,-1.0921,-1.0817,-1.0651,-1.0913,-1.1007,-1.0402,-0.9573,-0.8552,-0.7246,-0.6744,-0.6433,-0.6267,-0.5741,-0.5491,-0.5749,-0.3944,0.0,-0.1649,0.1464,0.4814,0.8161,0.8838,1.0189,1.2714,1.1813,1.1418,1.1879,1.0709,1.0065,1.0046,1.0074,1.0106,1.0194,1.0081,1.0047,1.0083,0.9891,0.9736,0.9583,0.9394,0.9514,0.9827,0.9527,0.9655,0.9976,0.9512,0.9343,0.9377,0.9716,1.0056,1.0321,-1.5407,-1.59,-1.6072,-1.5027,-1.4015,-1.2885,-1.1501,-1.0788,-1.0179,-0.9555,-0.9481,-0.9343,-0.8953,-0.9002,-0.9215,-0.951,-0.9893,-1.0606,-1.1838,-1.2425,-1.3228,-1.438,-1.3574,-1.2837,-1.2319,-1.1512,-1.0204,-0.8379,-0.8528,-0.8513,-0.8322,-0.7777,-0.75,-0.7435,-0.7114,-0.6229,-0.4974,-0.4285,-0.402,-0.4001,-0.3651,-0.3414,-0.3214,-0.2934,-0.2288,-0.1488,-0.1065,-0.1624,-0.2721,-0.3771,-0.5695,-0.7935,-0.9703,-1.1582,-1.3105,-1.3025,-1.25,-1.1796,-1.1102,-1.0279,-0.9712,-1.0019,-0.9931,-0.979,-0.9859,-0.9743,-0.9615,-0.9634,-0.9575,-0.9427,-0.9148,-0.8421,-0.7845,-0.7744,-0.7047,-0.6348,-0.5933,-0.5524,-0.51,-0.4729,-0.4403,-0.4016,-0.3546,0.048,0.3863,0.5718,0.816,0.9987,1.0925,1.1527,1.1521,1.0795,1.0592,1.0265,0.9777,0.9881,0.9993,1.0119,1.0145,1.0107,1.0009,0.992,0.9782,0.9583,0.9394,0.9191,0.9023,0.9289,0.9289,0.9128,0.9029,0.898,0.902,0.9356,0.9881,1.0368,-1.6098,-1.6133,-1.5735,-1.4468,-1.3314,-1.2181,-1.1048,-1.0351,-0.9731,-0.9151,-0.9298,-0.9221,-0.8606,-0.8501,-0.8634,-0.896,-0.8918,-0.9428,-1.0782,-1.1389,-1.2241,-1.3516,-1.314,-1.2836,-1.2714,-1.1517,-1.0379,-0.9342,-0.8776,-0.8617,-0.8854,-0.822,-0.7919,-0.789,-0.738,-0.6743,-0.5983,-0.5294,-0.4607,-0.3976,-0.3556,-0.3058,-0.2464,-0.1877,-0.123,-0.0497,0.0365,0.043,-0.0197,-0.208,-0.3871,-0.5552,-0.7008,-0.8456,-0.9592,-0.9338,-0.9052,-0.8657,-0.8021,-0.7486,-0.7157,-0.7316,-0.7758,-0.8187,-0.8327,-0.8522,-0.8749,-0.8993,-0.8787,-0.8391,-0.7768,-0.7174,-0.6752,-0.6661,-0.5693,-0.5031,-0.5298,-0.4562,-0.4054,-0.4187,-0.426,-0.4402,-0.4643,-0.1083,0.1727,0.2871,0.5435,0.7825,0.9824,1.0751,1.0977,1.0462,1.0113,0.9655,0.908,0.9416,0.9722,0.9996,1.0096,1.0127,1.01,0.9965,0.9842,0.974,0.9429,0.9418,0.9631,0.9614,0.9168,0.8484,0.8484,0.8652,0.8963,0.9463,1.0054,1.0609,-1.62,-1.5755,-1.4947,-1.3702,-1.2381,-1.1221,-1.0442,-0.9774,-0.9199,-0.8865,-0.9076,-0.8953,-0.8121,-0.792,-0.7947,-0.8208,-0.7842,-0.8175,-0.9547,-1.0082,-1.0979,-1.2465,-1.2474,-1.2715,-1.3294,-1.163,-1.0702,-1.0621,-0.9495,-0.9134,-0.9517,-0.9231,-0.9078,-0.8987,-0.809,-0.7511,-0.7103,-0.6183,-0.5081,-0.3925,-0.3475,-0.2714,-0.1714,-0.0998,-0.03,0.0434,0.1595,0.2124,0.1949,-0.0195,-0.1777,-0.298,-0.3967,-0.5145,-0.6107,-0.5718,-0.5798,-0.5833,-0.4998,-0.4708,-0.4607,-0.4506,-0.5161,-0.5871,-0.6038,-0.6441,-0.6785,-0.6794,-0.6461,-0.604,-0.5538,-0.5143,-0.4855,-0.4764,-0.3761,-0.3199,-0.3861,-0.3147,-0.2745,-0.3279,-0.3395,-0.3734,-0.4567,-0.2702,-0.0796,0.0723,0.3147,0.5945,0.9142,0.9652,0.9913,1.0056,0.92,0.8463,0.7887,0.8555,0.9174,0.9734,0.9951,1.0102,1.0173,0.9996,0.9893,0.9841,0.9454,0.9589,1.001,0.9698,0.8984,0.811,0.811,0.8338,0.8792,0.9608,1.0204,1.0649,-1.474,-1.4137,-1.3516,-1.2595,-1.1323,-1.0284,-0.9851,-0.9193,-0.8791,-0.8885,-0.8607,-0.8114,-0.7308,-0.6871,-0.6661,-0.6713,-0.6291,-0.6517,-0.7671,-0.802,-0.9217,-1.1522,-1.1394,-1.19,-1.3271,-1.218,-1.1407,-1.1033,-1.1028,-1.0642,-0.996,-1.0942,-1.1388,-1.1307,-0.9731,-0.8639,-0.7896,-0.6427,-0.5043,-0.3793,-0.3449,-0.2452,-0.115,-0.0819,0.0067,0.1238,0.181,0.2502,0.3089,0.2486,0.1135,-0.0314,-0.0717,-0.2666,-0.4757,-0.4665,-0.4998,-0.5149,-0.4046,-0.3434,-0.3064,-0.2876,-0.2727,-0.259,-0.2436,-0.244,-0.2109,-0.0814,-0.0227,-0.0306,-0.148,-0.1471,-0.1494,-0.2137,-0.1722,-0.1213,-0.0867,-0.1125,-0.1305,-0.1204,-0.1392,-0.1792,-0.2439,-0.3908,-0.332,0.035,0.337,0.6212,0.8896,0.8182,0.8076,0.8911,0.7653,0.6609,0.5878,0.7006,0.8109,0.9179,0.9676,0.9987,1.0107,1.003,0.9891,0.9701,0.942,0.914,0.8856,0.8816,0.8532,0.811,0.811,0.8048,0.8147,0.9418,0.9935,1.0159,-1.2476,-1.19,-1.1324,-1.0825,-0.9761,-0.8954,-0.8866,-0.8226,-0.7771,-0.7812,-0.7854,-0.7604,-0.6824,-0.6136,-0.5825,-0.6064,-0.5262,-0.5217,-0.6405,-0.652,-0.7286,-0.9035,-1.0118,-1.1123,-1.2076,-1.2431,-1.2618,-1.266,-1.2189,-1.1931,-1.1859,-1.1956,-1.1865,-1.1577,-1.0272,-0.9097,-0.8041,-0.696,-0.5512,-0.3896,-0.3789,-0.2724,-0.1165,-0.0528,0.0366,0.1438,0.2435,0.3196,0.3754,0.4087,0.3229,0.1908,0.1239,0.0271,-0.0677,-0.0933,-0.123,-0.1359,-0.0899,-0.0456,-0.0077,0.0162,-0.0034,-0.0224,-0.0022,-0.0294,-0.04,0.023,0.1097,0.1632,0.1265,0.1084,0.0839,0.0338,0.0636,0.1166,0.1851,0.1172,0.0363,-0.0295,-0.0462,-0.0903,-0.1863,-0.2856,-0.2271,0.0579,0.2728,0.3968,0.413,0.4232,0.3753,0.2593,0.2713,0.2559,0.2066,0.4414,0.6252,0.7559,0.8697,0.9545,1.0099,0.9991,0.9764,0.9454,0.9257,0.9045,0.8829,0.8829,0.8672,0.8455,0.8455,0.8521,0.8743,0.968,1.0199,1.0578,-1.0546,-0.9945,-0.9321,-0.8827,-0.8123,-0.7613,-0.7582,-0.7059,-0.661,-0.6403,-0.6537,-0.6533,-0.6145,-0.5363,-0.4954,-0.5258,-0.4355,-0.4199,-0.5192,-0.5174,-0.5672,-0.7013,-0.8489,-0.987,-1.1127,-1.2014,-1.2903,-1.3785,-1.3195,-1.2989,-1.3145,-1.2555,-1.2149,-1.1844,-1.0606,-0.9337,-0.8041,-0.7212,-0.5738,-0.3993,-0.3993,-0.2927,-0.1204,-0.0499,0.0433,0.1438,0.2534,0.3296,0.3886,0.4613,0.4314,0.36,0.3094,0.2669,0.2313,0.1981,0.1725,0.1592,0.1751,0.2124,0.2546,0.2898,0.2712,0.2484,0.27,0.2434,0.225,0.259,0.3476,0.4173,0.4156,0.3771,0.3285,0.2753,0.2815,0.308,0.3532,0.2937,0.2022,0.0841,0.0128,-0.0555,-0.1285,-0.1882,-0.154,0.005,0.1106,0.1224,0.013,0.0701,0.0184,-0.1716,-0.1259,-0.108,-0.129,0.1692,0.4115,0.5931,0.7513,0.8912,1.0092,0.9855,0.9563,0.9237,0.9097,0.8981,0.8891,0.8891,0.8829,0.8705,0.8705,0.8751,0.8903,0.9781,1.0276,1.0668,-0.9215,-0.8491,-0.7633,-0.6698,-0.6518,-0.6354,-0.5903,-0.5776,-0.5471,-0.4736,-0.4512,-0.464,-0.5144,-0.4491,-0.4023,-0.4023,-0.3591,-0.3525,-0.3993,-0.3956,-0.4558,-0.596,-0.6429,-0.7965,-1.0746,-1.0759,-1.1801,-1.3995,-1.4053,-1.3813,-1.329,-1.2748,-1.2522,-1.2516,-1.0906,-0.9414,-0.8041,-0.695,-0.555,-0.3993,-0.3993,-0.2927,-0.1271,-0.0835,0.0134,0.1372,0.1845,0.2573,0.3392,0.3858,0.428,0.466,0.5052,0.4294,0.3297,0.3265,0.2948,0.2724,0.3314,0.3861,0.4408,0.493,0.5454,0.5895,0.6094,0.6339,0.6804,0.7801,0.834,0.8362,0.7503,0.6851,0.6123,0.5119,0.4634,0.4238,0.3851,0.39,0.3577,0.249,0.044,-0.0736,-0.0345,-0.1446,-0.2019,-0.16,-0.1603,-0.1704,-0.186,-0.1736,-0.1823,-0.2182,-0.3209,-0.3729,-0.3664,-0.0988,0.1756,0.4542,0.6219,0.8105,1.0078,0.9624,0.9296,0.9097,0.8968,0.8902,0.8891,0.8891,0.8829,0.8705,0.8705,0.8463,0.8274,0.9612,1.002,1.0084,-0.6463,-0.6023,-0.5543,-0.5244,-0.5199,-0.5164,-0.5004,-0.4746,-0.4457,-0.4218,-0.3638,-0.3317,-0.3479,-0.3516,-0.3425,-0.3126,-0.297,-0.307,-0.3493,-0.296,-0.2936,-0.3719,-0.4584,-0.5525,-0.6625,-0.8722,-1.0463,-1.1828,-1.2665,-1.3179,-1.3355,-1.3055,-1.2413,-1.1456,-1.0271,-0.8829,-0.729,-0.6459,-0.5282,-0.3993,-0.3993,-0.2927,-0.1271,-0.0869,-0.0033,0.0973,0.1746,0.2374,0.2995,0.3758,0.428,0.4663,0.5141,0.4784,0.4121,0.3872,0.3793,0.38,0.3663,0.43,0.4994,0.5025,0.5571,0.6248,0.6753,0.7416,0.8074,0.8717,0.9092,0.9218,0.8888,0.8375,0.7791,0.7153,0.6549,0.6046,0.5697,0.5235,0.4779,0.4308,0.2655,0.1161,0.0146,-0.1305,-0.2325,-0.2672,-0.3164,-0.4041,-0.5367,-0.4971,-0.6028,-0.8929,-0.8059,-0.7473,-0.7317,-0.4289,-0.1266,0.1726,0.3686,0.6159,0.9002,0.8899,0.8949,0.9087,0.8866,0.8818,0.8891,0.8891,0.8877,0.8832,0.8832,0.8696,0.8602,0.9337,0.9794,1.0145,-0.5004,-0.4684,-0.4455,-0.4455,-0.4498,-0.4385,-0.4029,-0.3764,-0.3426,-0.3042,-0.2504,-0.2132,-0.1962,-0.2295,-0.2532,-0.2436,-0.2442,-0.2543,-0.2803,-0.231,-0.2043,-0.2167,-0.2823,-0.3596,-0.4519,-0.6713,-0.8562,-1.0013,-1.1401,-1.2198,-1.2432,-1.235,-1.1678,-1.047,-0.9435,-0.8241,-0.6932,-0.6033,-0.5001,-0.3958,-0.3658,-0.2629,-0.1271,-0.0837,0.0034,0.1105,0.1554,0.217,0.2883,0.3519,0.4018,0.4441,0.4893,0.4957,0.4858,0.4753,0.484,0.4931,0.4695,0.5192,0.5735,0.5501,0.591,0.6515,0.7164,0.7855,0.8501,0.9046,0.9401,0.961,0.9641,0.9352,0.8962,0.8496,0.7868,0.7308,0.6854,0.6292,0.5836,0.5613,0.4354,0.2888,0.1352,-0.01,-0.1435,-0.2581,-0.3824,-0.5289,-0.7007,-0.6961,-0.8426,-1.1794,-1.0359,-0.9395,-0.9113,-0.6417,-0.3589,-0.0642,0.3253,0.6237,0.8319,0.8516,0.873,0.8946,0.8771,0.8744,0.8821,0.8877,0.8891,0.8891,0.8891,0.8818,0.8763,0.9281,0.9629,0.9919,-0.4651,-0.4374,-0.4188,-0.4118,-0.421,-0.3915,-0.2983,-0.283,-0.2446,-0.1447,-0.1277,-0.1131,-0.0729,-0.1008,-0.1412,-0.1879,-0.1946,-0.1946,-0.1946,-0.1879,-0.1676,-0.1238,-0.1204,-0.2093,-0.3955,-0.4766,-0.629,-0.8578,-1.0178,-1.0857,-1.0648,-1.0775,-1.0356,-0.9463,-0.8437,-0.754,-0.675,-0.5556,-0.461,-0.3823,-0.2993,-0.2099,-0.1206,-0.0843,0.0244,0.1516,0.1378,0.1995,0.2936,0.3289,0.3655,0.4079,0.4528,0.4972,0.5372,0.5734,0.5886,0.5981,0.6151,0.643,0.6587,0.6323,0.6443,0.6767,0.7349,0.7803,0.8286,0.8942,0.9348,0.9647,0.9858,0.9845,0.966,0.9219,0.8644,0.8063,0.7467,0.7117,0.6781,0.6471,0.5625,0.4516,0.3081,0.1936,0.0441,-0.1615,-0.3647,-0.547,-0.702,-0.7782,-0.9148,-1.1266,-1.037,-0.9675,-0.9284,-0.7461,-0.511,-0.2217,0.4472,0.776,0.7953,0.8374,0.8607,0.8705,0.8705,0.8705,0.8721,0.8843,0.8891,0.8891,0.8891,0.8829,0.8779,0.9329,0.9483,0.9499,-0.4443,-0.4154,-0.3892,-0.3441,-0.3012,-0.2649,-0.2415,-0.1989,-0.1601,-0.1329,-0.1045,-0.0796,-0.0696,-0.0468,-0.0492,-0.0977,-0.1274,-0.1473,-0.1473,-0.0835,-0.0434,-0.03,-0.03,-0.0531,-0.1014,-0.284,-0.493,-0.7335,-0.8233,-0.8827,-0.9115,-0.9139,-0.8593,-0.7531,-0.6972,-0.6143,-0.512,-0.4167,-0.347,-0.2962,-0.2391,-0.1632,-0.0843,-0.0739,0.0036,0.1092,0.1422,0.1979,0.2759,0.3906,0.4225,0.43,0.5163,0.5392,0.5312,0.54,0.5886,0.6355,0.6344,0.6691,0.7034,0.6911,0.6869,0.6911,0.7209,0.7709,0.8245,0.8768,0.9177,0.9542,0.9846,0.9885,0.9802,0.9588,0.9179,0.8725,0.8278,0.8108,0.7698,0.6803,0.7286,0.6573,0.3709,0.3226,0.1841,-0.1127,-0.2883,-0.4774,-0.6909,-0.7679,-0.885,-1.0573,-0.9863,-0.9322,-0.9072,-0.7664,-0.4712,-0.0232,0.4129,0.6584,0.7335,0.7939,0.8388,0.8705,0.8705,0.8756,0.8855,0.8889,0.8891,0.8891,0.8891,0.8889,0.8857,0.8903,0.9184,0.9561,-0.432,-0.4114,-0.3897,-0.3303,-0.2787,-0.2327,-0.2078,-0.1499,-0.1001,-0.0751,-0.0533,-0.0361,-0.0391,-0.015,-0.0108,-0.035,-0.0783,-0.0938,-0.0735,-0.0267,0.0167,0.0568,0.0601,0.0501,0.0334,-0.101,-0.2737,-0.4831,-0.5846,-0.6483,-0.6741,-0.7111,-0.6857,-0.6101,-0.548,-0.4865,-0.4226,-0.3163,-0.2447,-0.2023,-0.1598,-0.0984,-0.0349,-0.0072,0.056,0.1358,0.1835,0.2379,0.2973,0.3677,0.4108,0.4474,0.4867,0.5224,0.5454,0.5353,0.5855,0.6546,0.6785,0.702,0.7153,0.6919,0.6888,0.697,0.7272,0.7658,0.8121,0.8691,0.9043,0.9387,0.9776,0.9877,0.9879,0.9801,0.9763,0.9675,0.949,0.895,0.8382,0.782,0.7957,0.7206,0.4916,0.4758,0.3605,0.0742,-0.1173,-0.3118,-0.5204,-0.6617,-0.8158,-0.9887,-0.9109,-0.868,-0.8719,-0.5819,-0.2373,0.1588,0.4932,0.6815,0.7394,0.7885,0.8324,0.8705,0.8705,0.8744,0.8818,0.8877,0.8891,0.8891,0.8891,0.9103,0.9384,0.9329,0.9501,0.9764,-0.4389,-0.428,-0.4167,-0.3467,-0.3004,-0.2495,-0.1874,-0.1296,-0.0672,-0.009,0.0,0.0,0.0,0.0078,0.011,0.0109,-0.0208,-0.0268,0.01,0.0234,0.0635,0.1372,0.1471,0.1303,0.0902,0.0485,-0.0524,-0.2144,-0.3337,-0.3968,-0.4126,-0.4809,-0.4986,-0.4687,-0.3844,-0.3434,-0.3306,-0.2053,-0.1289,-0.0915,-0.0583,-0.0177,0.033,0.0739,0.1328,0.1999,0.2382,0.2866,0.3323,0.331,0.383,0.4494,0.4392,0.4934,0.555,0.5364,0.5855,0.6606,0.7168,0.7279,0.7127,0.6699,0.6757,0.6986,0.7325,0.7614,0.7971,0.8593,0.8914,0.9234,0.9707,0.9851,0.9924,1.0031,1.0304,1.043,1.0244,0.9378,0.8658,0.8377,0.7897,0.7199,0.6213,0.6287,0.5449,0.3186,0.1087,-0.0828,-0.2481,-0.4464,-0.6298,-0.7923,-0.7502,-0.719,-0.7072,-0.2746,0.0702,0.3244,0.6032,0.7509,0.7778,0.8059,0.8383,0.8705,0.8721,0.8799,0.8898,0.9012,0.9128,0.923,0.923,0.9607,1.017,1.017,1.017,1.017,-0.5047,-0.4981,-0.4785,-0.3716,-0.3065,-0.2495,-0.1874,-0.1296,-0.0672,-0.009,0.0,0.0,0.0,0.036,0.0609,0.0585,0.0831,0.0871,0.0604,0.1274,0.1743,0.1879,0.2271,0.2269,0.1811,0.1009,0.0134,-0.0893,-0.1089,-0.1608,-0.2379,-0.2503,-0.2549,-0.2478,-0.1826,-0.1302,-0.0887,0.0186,0.0645,0.0721,0.0687,0.0997,0.1471,0.105,0.1572,0.2567,0.264,0.3033,0.3625,0.4064,0.4161,0.4204,0.4893,0.5084,0.506,0.5232,0.5855,0.6546,0.6812,0.714,0.7252,0.672,0.6757,0.6917,0.6977,0.741,0.7909,0.8303,0.8717,0.9178,0.971,0.981,1.0022,1.0635,1.0607,1.0012,0.8605,0.8533,0.7918,0.6007,0.7098,0.7657,0.6761,0.7298,0.6948,0.5098,0.3545,0.2109,0.0833,-0.0162,-0.0927,-0.1448,-0.324,-0.3146,-0.0992,0.0915,0.28,0.4685,0.6079,0.7203,0.8054,0.8434,0.8649,0.8705,0.8829,0.9229,0.9807,0.9823,1.0199,1.0758,1.0758,1.0825,1.0927,1.0927,1.0927,1.0927,-0.53,-0.5024,-0.4705,-0.3753,-0.2994,-0.2365,-0.1875,-0.1029,-0.0314,-0.0045,0.0269,0.049,0.048,0.096,0.1287,0.13,0.1691,0.1944,0.1885,0.194,0.2211,0.2669,0.2898,0.3015,0.2987,0.2384,0.1807,0.1165,0.0601,0.0111,-0.0323,-0.0574,-0.0718,-0.0685,-0.0148,0.0187,0.0451,0.1155,0.1442,0.1327,0.1016,0.1031,0.1219,0.1328,0.1741,0.2304,0.297,0.3352,0.3624,0.3878,0.4297,0.4738,0.5018,0.5409,0.5793,0.5577,0.61,0.6797,0.697,0.7281,0.7417,0.6752,0.6661,0.6774,0.6868,0.7191,0.7577,0.7956,0.8481,0.9023,0.9452,0.9711,1.0068,1.0742,1.0018,0.9349,0.9304,0.8057,0.7015,0.6637,0.7238,0.763,0.7509,0.8002,0.7892,0.683,0.5951,0.497,0.3868,0.4175,0.4334,0.4209,0.1146,0.0465,0.2423,0.4354,0.5703,0.6457,0.7178,0.8102,0.918,0.9401,0.9804,1.0311,1.0273,1.0435,1.0758,1.065,1.0791,1.1096,1.1096,1.1358,1.1747,1.1747,1.1747,1.1747,-0.5216,-0.4831,-0.4401,-0.3709,-0.2994,-0.2322,-0.1875,-0.0895,-0.009,0.018,0.0627,0.0939,0.1073,0.1633,0.1957,0.1895,0.2406,0.2864,0.31,0.2747,0.284,0.3427,0.3535,0.3756,0.419,0.3733,0.3317,0.3008,0.2054,0.1532,0.1401,0.1047,0.0813,0.0735,0.1258,0.1465,0.1505,0.2004,0.2179,0.2021,0.1373,0.1113,0.1232,0.1656,0.1908,0.2185,0.3347,0.3796,0.3796,0.397,0.4574,0.5265,0.5132,0.5705,0.6318,0.5949,0.6399,0.704,0.7164,0.735,0.7374,0.6747,0.6599,0.6651,0.6791,0.6996,0.7241,0.7643,0.8235,0.8808,0.9224,0.9757,1.0351,1.1018,1.0086,0.949,1.0084,0.807,0.6725,0.7292,0.7377,0.762,0.8212,0.8632,0.8719,0.8326,0.7898,0.7293,0.6492,0.7342,0.79,0.7961,0.5106,0.4044,0.5053,0.6994,0.7982,0.7999,0.8314,0.907,1.0192,1.0252,1.0793,1.1684,1.1486,1.1503,1.1634,1.149,1.1523,1.169,1.1724,1.2123,1.2671,1.2671,1.2671,1.2671,-0.4563,-0.4432,-0.4264,-0.3709,-0.308,-0.2496,-0.1874,-0.1251,-0.0448,0.0671,0.085,0.1118,0.1651,0.215,0.2387,0.2206,0.2996,0.3587,0.3708,0.4051,0.4135,0.3968,0.4186,0.4656,0.5357,0.443,0.3942,0.3906,0.3248,0.278,0.2383,0.2343,0.2106,0.1717,0.2329,0.2585,0.2635,0.3224,0.3458,0.3369,0.2211,0.208,0.2484,0.1998,0.2134,0.2804,0.3949,0.4347,0.4434,0.5002,0.5219,0.5353,0.5585,0.5711,0.5845,0.6145,0.6665,0.7105,0.7174,0.709,0.6908,0.6655,0.6599,0.6599,0.6616,0.6774,0.7035,0.7441,0.7961,0.8527,0.918,1.0135,1.1106,1.1957,1.1999,1.1351,0.9703,0.8854,0.7813,0.623,0.7012,0.7958,0.8678,0.9333,0.9652,0.9488,0.8985,0.8604,0.8402,0.8185,0.8195,0.8437,0.812,0.784,0.7637,0.8171,0.8595,0.89,0.8929,0.9486,1.0472,1.0483,1.0923,1.1684,1.1486,1.1794,1.2413,1.2399,1.2805,1.342,1.3622,1.3729,1.3782,1.3782,1.3782,1.3782,-0.3455,-0.3243,-0.303,-0.2544,-0.1653,-0.1073,-0.1207,-0.0717,-0.0045,0.0806,0.1207,0.1696,0.2274,0.2861,0.3166,0.3069,0.3392,0.3683,0.3916,0.4067,0.4399,0.4908,0.547,0.5733,0.5641,0.5068,0.464,0.4267,0.3694,0.3322,0.3194,0.3194,0.3107,0.2936,0.3164,0.3275,0.3279,0.351,0.3396,0.2988,0.2541,0.2274,0.2141,0.2317,0.2495,0.2849,0.3991,0.4389,0.4476,0.5089,0.5567,0.5939,0.6377,0.6515,0.6575,0.6876,0.7052,0.711,0.7174,0.7152,0.7027,0.6839,0.6687,0.6599,0.6599,0.6855,0.7137,0.728,0.7933,0.86,0.8985,0.9658,1.0433,1.1262,1.0242,0.9336,0.9286,0.8027,0.7119,0.7135,0.7834,0.8607,0.9355,0.9764,0.9961,0.9912,0.9648,0.9425,0.929,0.9082,0.9017,0.9117,0.9176,0.8998,0.8585,0.877,0.8977,0.9191,0.9773,1.0522,1.1391,1.1972,1.2686,1.3429,1.3226,1.3307,1.3547,1.3415,1.3526,1.3789,1.3876,1.3904,1.3904,1.3904,1.3904,1.3904,-0.2486,-0.2317,-0.2144,-0.183,-0.0939,-0.0404,-0.0851,-0.0404,0.0225,0.0806,0.1429,0.1963,0.2363,0.2946,0.3246,0.2985,0.3242,0.3536,0.3749,0.4169,0.4774,0.5535,0.6246,0.6431,0.6112,0.5569,0.5089,0.4694,0.3968,0.358,0.358,0.358,0.3711,0.3838,0.3838,0.3838,0.3838,0.3838,0.3524,0.2988,0.2763,0.2451,0.214,0.254,0.2717,0.2893,0.421,0.4694,0.4781,0.5559,0.6124,0.6513,0.6878,0.7045,0.718,0.7561,0.7469,0.7329,0.7488,0.737,0.713,0.6868,0.6693,0.6599,0.6599,0.6805,0.7041,0.7171,0.7808,0.8445,0.8772,0.9483,1.0216,1.0834,0.9709,0.8985,0.9638,0.831,0.7545,0.8318,0.8765,0.9226,0.9775,0.9994,1.0111,1.013,1.0008,0.9881,0.9769,0.9678,0.9624,0.9624,0.9731,0.9631,0.9287,0.9304,0.9374,0.9506,1.0402,1.126,1.2086,1.2963,1.3665,1.4187,1.4198,1.4066,1.3837,1.3953,1.3997,1.3997,1.4051,1.4087,1.4087,1.4087,1.4087,1.4087,-0.1785,-0.1785,-0.1785,-0.1785,-0.1296,-0.0895,-0.0895,-0.0404,0.0225,0.0806,0.1429,0.1785,0.1785,0.2317,0.2413,0.1686,0.2506,0.3159,0.3276,0.4533,0.5421,0.5685,0.6273,0.6727,0.6975,0.5862,0.5305,0.5305,0.4144,0.358,0.358,0.358,0.3878,0.4389,0.4389,0.4389,0.4389,0.4389,0.4092,0.3534,0.2944,0.2717,0.2717,0.2717,0.2717,0.2937,0.4689,0.5305,0.5478,0.6634,0.6979,0.6979,0.7017,0.7169,0.7491,0.8053,0.7969,0.7783,0.8171,0.7759,0.7119,0.6712,0.6605,0.6599,0.6599,0.6599,0.6717,0.7114,0.7518,0.7992,0.8585,0.9791,1.0753,1.0952,1.1158,1.1199,1.0932,1.015,0.9582,0.9509,0.9621,0.9749,0.9885,1.0023,1.0134,1.0185,1.0076,0.9971,0.9904,0.9902,0.9902,0.9902,0.9966,0.9971,0.9902,0.9838,0.9838,0.9912,1.0723,1.1563,1.2423,1.3166,1.3514,1.3542,1.3992,1.375,1.3082,1.3876,1.4201,1.4223,1.442,1.4497,1.4497,1.4497,1.4497,1.4497,-0.0627,-0.0538,-0.0538,-0.0538,-0.0404,-0.0269,-0.0269,-0.0135,0.0225,0.0806,0.1073,0.1341,0.1741,0.1963,0.2129,0.2367,0.2667,0.3014,0.35,0.4231,0.4712,0.4779,0.5373,0.5705,0.5819,0.5041,0.465,0.465,0.3968,0.358,0.358,0.358,0.3878,0.4389,0.4389,0.465,0.5,0.4563,0.4303,0.4134,0.3568,0.3352,0.3352,0.3352,0.3352,0.3481,0.4829,0.5305,0.5478,0.6634,0.6979,0.6987,0.6784,0.7289,0.7861,0.7408,0.7476,0.7685,0.7664,0.7706,0.7707,0.7432,0.698,0.6599,0.6599,0.6712,0.6894,0.7146,0.7525,0.7977,0.8522,0.9149,0.9645,0.9844,1.0126,1.0237,1.002,0.976,0.9608,0.9633,0.9598,0.9647,0.9882,0.9939,1.0012,1.0122,1.009,1.0079,1.011,1.0072,1.0063,1.0115,1.008,1.0085,1.0115,0.9996,0.9923,0.9921,1.1337,1.2145,1.2449,1.3843,1.4483,1.4484,1.4526,1.4415,1.4203,1.4357,1.4408,1.442,1.4485,1.4497,1.4497,1.4497,1.4497,1.4497,0.0314,0.0359,0.0269,0.0045,0.0,0.0,0.0,0.0224,0.0493,0.0851,0.1118,0.1296,0.1429,0.1429,0.1474,0.1607,0.2052,0.2656,0.3448,0.3842,0.4092,0.4092,0.4443,0.4833,0.5305,0.4694,0.4389,0.4389,0.388,0.3593,0.3531,0.37,0.3999,0.45,0.467,0.4963,0.5253,0.4711,0.438,0.4199,0.37,0.3569,0.358,0.358,0.358,0.3709,0.4613,0.5089,0.5435,0.6383,0.6813,0.6971,0.6949,0.7355,0.7804,0.7377,0.7484,0.7724,0.7748,0.7711,0.7689,0.7702,0.7311,0.6868,0.6649,0.6757,0.6954,0.7162,0.7584,0.8042,0.8452,0.884,0.9138,0.9266,0.9496,0.9619,0.9493,0.9483,0.9514,0.9608,0.9574,0.9632,0.9875,0.9921,0.9997,1.0129,1.0137,1.0164,1.0202,1.0165,1.0165,1.0204,1.0159,1.0163,1.0204,1.0094,1.0016,1.0,1.1655,1.2468,1.2576,1.42,1.4771,1.4469,1.4626,1.4531,1.4279,1.4441,1.4533,1.4569,1.4522,1.4497,1.4497,1.4497,1.4497,1.4497,0.1073,0.0984,0.0806,0.0269,0.018,0.018,0.018,0.0627,0.0984,0.0984,0.1429,0.1518,0.0939,0.0895,0.0716,0.0224,0.1251,0.237,0.3251,0.3502,0.358,0.358,0.358,0.41,0.5132,0.4591,0.4322,0.4322,0.3802,0.3511,0.3372,0.3773,0.42,0.4635,0.5063,0.5259,0.53,0.4754,0.4336,0.3998,0.3554,0.3485,0.358,0.358,0.358,0.3665,0.422,0.4737,0.5305,0.5962,0.6501,0.6927,0.7247,0.735,0.7408,0.7652,0.7722,0.7783,0.82,0.7843,0.7409,0.7649,0.759,0.7319,0.6737,0.674,0.6937,0.7162,0.7629,0.8096,0.8348,0.8753,0.9057,0.9076,0.9207,0.9294,0.9284,0.9284,0.9331,0.9482,0.9538,0.966,0.9869,0.9956,1.006,1.0195,1.02,1.0195,1.0202,1.0204,1.0202,1.0204,1.0199,1.0202,1.0204,1.0142,1.0113,1.0123,1.1742,1.2576,1.2748,1.4316,1.4624,1.3962,1.4492,1.4344,1.3775,1.43,1.4591,1.4697,1.4547,1.4497,1.4497,1.4497,1.4497,1.4497,0.1652,0.1607,0.1563,0.1429,0.1429,0.1429,0.1429,0.1518,0.1607,0.1607,0.1295,0.1029,0.0895,0.0895,0.1029,0.1385,0.2502,0.3296,0.3532,0.3563,0.358,0.358,0.358,0.3711,0.397,0.3755,0.3607,0.3607,0.3359,0.3203,0.3171,0.3641,0.4118,0.4595,0.4711,0.502,0.5403,0.4492,0.415,0.4127,0.3554,0.3442,0.358,0.358,0.358,0.3665,0.422,0.4476,0.4737,0.583,0.6085,0.6108,0.6734,0.695,0.7037,0.7213,0.7478,0.7783,0.82,0.8371,0.8333,0.7824,0.7903,0.7832,0.6831,0.6633,0.6767,0.713,0.7304,0.7606,0.8275,0.8563,0.8756,0.8916,0.9148,0.9265,0.9158,0.9148,0.9237,0.9474,0.9421,0.9489,0.9789,0.9929,1.0062,1.0192,1.0197,1.0203,1.0199,1.0199,1.0198,1.0198,1.0197,1.02,1.0204,1.0194,1.0156,1.0123,1.1839,1.2671,1.2757,1.4409,1.5066,1.4902,1.4923,1.4838,1.4684,1.4673,1.4667,1.4697,1.4547,1.4497,1.4497,1.4497,1.4497,1.4497,0.2274,0.2228,0.214,0.1829,0.1785,0.1785,0.1785,0.2051,0.214,0.1829,0.1518,0.134,0.134,0.1073,0.1242,0.2083,0.278,0.3276,0.3476,0.3583,0.358,0.358,0.358,0.358,0.358,0.3431,0.3386,0.3504,0.3305,0.3272,0.3429,0.3798,0.4105,0.4327,0.45,0.4703,0.484,0.4013,0.383,0.4035,0.3468,0.3376,0.358,0.358,0.358,0.3624,0.3922,0.4176,0.455,0.5392,0.5692,0.576,0.6164,0.6563,0.6913,0.7046,0.7378,0.7783,0.82,0.836,0.8366,0.8151,0.8189,0.801,0.6856,0.6744,0.695,0.7155,0.742,0.7781,0.8301,0.8538,0.8699,0.8869,0.9013,0.9087,0.9013,0.9003,0.9107,0.9376,0.9349,0.9447,0.9815,0.994,1.0058,1.019,1.0196,1.0211,1.0254,1.025,1.0246,1.025,1.0225,1.0205,1.0194,1.061,1.0797,1.0778,1.2079,1.2902,1.332,1.4609,1.5199,1.5189,1.5059,1.5035,1.5065,1.4803,1.4747,1.4785,1.4578,1.4497,1.4497,1.4497,1.4497,1.4497,0.2944,0.2853,0.2676,0.2186,0.2097,0.2097,0.2097,0.2453,0.254,0.2007,0.1785,0.1696,0.1785,0.1429,0.1586,0.2593,0.28,0.3032,0.3398,0.3554,0.358,0.358,0.358,0.358,0.358,0.3536,0.3521,0.3585,0.3385,0.3406,0.37,0.3983,0.4065,0.3973,0.4302,0.4335,0.4106,0.352,0.3488,0.3822,0.3327,0.3329,0.358,0.358,0.358,0.358,0.358,0.3862,0.432,0.4866,0.5244,0.5499,0.5733,0.6282,0.6863,0.7054,0.7427,0.7894,0.828,0.8317,0.8285,0.8541,0.8532,0.8188,0.718,0.7132,0.7292,0.7207,0.7636,0.809,0.8301,0.8509,0.8697,0.8843,0.8889,0.8891,0.8891,0.8891,0.8992,0.9237,0.9303,0.9481,0.9844,0.994,1.003,1.0159,1.0192,1.0216,1.0281,1.0283,1.0293,1.0303,1.0254,1.0213,1.0196,1.1061,1.1573,1.1706,1.2532,1.3272,1.3949,1.4814,1.5209,1.5189,1.5082,1.5104,1.5187,1.4857,1.4794,1.4868,1.4602,1.4497,1.4497,1.4497,1.4511,1.4533,0.3488,0.3488,0.3444,0.3353,0.3353,0.3353,0.3353,0.299,0.2673,0.2584,0.1651,0.1207,0.1741,0.2185,0.2715,0.3372,0.3478,0.3524,0.3549,0.3612,0.358,0.358,0.358,0.358,0.358,0.4025,0.3995,0.3425,0.3227,0.3141,0.3197,0.3637,0.3845,0.3819,0.3897,0.3872,0.3815,0.3333,0.325,0.3385,0.3325,0.3424,0.358,0.358,0.358,0.358,0.358,0.358,0.3666,0.462,0.468,0.4599,0.5845,0.6361,0.6637,0.6978,0.7627,0.8285,0.8629,0.8962,0.9187,0.9046,0.9003,0.8898,0.8495,0.8056,0.7626,0.7272,0.7455,0.7768,0.809,0.8306,0.8504,0.8697,0.8821,0.8891,0.8891,0.8891,0.8957,0.9107,0.9331,0.9566,0.9791,0.9878,0.9944,1.002,1.0128,1.02,1.0213,1.0211,1.0244,1.0303,1.0293,1.0263,1.0202,1.1058,1.1849,1.2552,1.341,1.3878,1.4023,1.4887,1.5253,1.5199,1.5183,1.5183,1.5177,1.496,1.4877,1.4868,1.4602,1.4497,1.4497,1.4497,1.4569,1.4667,0.358,0.358,0.358,0.358,0.358,0.3488,0.317,0.2853,0.2451,0.1785,0.1518,0.1518,0.1785,0.2632,0.3306,0.358,0.358,0.358,0.358,0.3878,0.4051,0.4051,0.4355,0.453,0.453,0.4785,0.474,0.4446,0.3971,0.3683,0.3599,0.3746,0.3782,0.3782,0.3782,0.3721,0.3566,0.3236,0.3258,0.347,0.3343,0.3441,0.3624,0.3922,0.4051,0.4037,0.3948,0.3908,0.3896,0.4118,0.4182,0.4386,0.5386,0.6046,0.6575,0.6995,0.7656,0.8365,0.8706,0.9095,0.9421,0.9523,0.9541,0.9488,0.9245,0.9087,0.8764,0.8071,0.7751,0.7739,0.8187,0.8253,0.8363,0.8751,0.8794,0.8818,0.888,0.8891,0.8979,0.9188,0.9385,0.9582,0.9777,0.986,0.9944,1.0052,1.0152,1.0203,1.0196,1.0202,1.0234,1.0303,1.0303,1.0518,1.0977,1.1854,1.2693,1.349,1.4374,1.4738,1.4682,1.5109,1.5003,1.4468,1.4468,1.4468,1.4457,1.4259,1.4476,1.4877,1.4116,1.3829,1.3875,1.4334,1.4571,1.4698]},{"header":{"parameterUnit":"m.s-1","parameterCategory":1,"la1":30.6,"la2":28.766,"lo1":-90.7593,"lo2":-88.6598,"dy":0.0162,"dx":0.0183,"nx":116,"ny":114,"refTime":"2024-06-09T00:00:00:Z","depth":0,"parameterNumber":3,"parameterNumberName":"V-component_of_WINDS"},"data":[0.0,0.0,0.0,0.0,0.0,0.0,0.0,0.0,0.0,0.0,0.0,0.0,0.0,0.0,0.0,0.0,0.0,0.0,0.0,0.0,0.0,0.0,0.0,0.0,0.0,0.0,0.0,0.0,0.0,0.0,0.0,0.0,0.0,0.0,0.0,0.0,0.0,0.0,0.0,0.0,0.0,0.0,0.0,0.0,0.0,0.0,0.0,0.0,0.0,0.0,0.0,0.0,0.0,0.0,0.0,0.0,0.0,0.0,0.0,0.0,0.0,0.0,0.0,0.0,0.0,0.0,0.0,0.0,0.0,0.0,0.0,0.0,0.0,0.0,0.0,0.0,0.0,0.0,0.0,0.0,0.0,0.0,0.0,0.0,0.0,0.0,0.0,0.0,0.0,0.0,0.0,0.0,0.0,0.0,0.0,0.0,0.0,0.0,0.0,0.0,0.0,0.0,0.0,0.0,0.0,0.0,0.0,0.0,0.0,0.0,0.0,0.0,0.0,0.0,0.0,0.0,0.0,0.0,0.0,0.0,0.0,0.0,0.0,0.0,0.0,0.0,0.0,0.0,0.0,0.0,0.0,0.0,0.0,0.0,0.0,0.0,0.0,0.0,0.0,0.0,0.0,0.0,0.0,0.0,0.0,0.0,0.0,0.0,0.0,0.0,0.0,0.0,0.0,0.0,0.0,0.0,0.0,0.0,0.0,0.0,0.0,0.0,0.0,0.0,0.0,0.0,0.0,0.0,0.0,0.0,0.0,0.0,0.0,0.0,0.0,0.0,0.0,0.0,0.0,0.0,0.0,0.0,0.0,0.0,0.0,0.0,0.0,0.0,0.0,0.0,0.0,0.0,0.0,0.0,0.0,0.0,0.0,0.0,0.0,0.0,0.0,0.0,0.0,0.0,0.0,0.0,0.0,0.0,0.0,0.0,0.0,0.0,0.0,0.0,0.0,0.0,0.0,0.0,0.0,0.0,0.0,0.0,0.0,0.0,0.0,0.0,0.0,0.0,0.0,0.0,0.0,0.0,0.0,0.0,0.0,0.0,0.0,0.0,0.0,0.0,0.0,0.0,0.0,0.0,0.0,0.0,0.0,0.0,0.0,0.0,0.0,0.0,0.0,0.0,0.0,0.0,0.0,0.0,0.0,0.0,0.0,0.0,0.0,0.0,0.0,0.0,0.0,0.0,0.0,0.0,0.0,0.0,0.0,0.0,0.0,0.0,0.0,0.0,0.0,0.0,0.0,0.0,0.0,0.0,0.0,0.0,0.0,0.0,0.0,0.0,0.0,0.0,0.0,0.0,0.0,0.0,0.0,0.0,0.0,0.0,0.0,0.0,0.0,0.0,0.0,0.0,0.0,0.0,0.0,0.0,0.0,0.0,0.0,0.0,0.0,0.0,0.0,0.0,0.0,0.0,0.0,0.0,0.0,0.0,0.0,0.0,0.0,0.0,0.0,0.0,0.0,0.0,0.0,0.0,0.0,0.0,0.0,0.0,0.0,0.0,0.0,0.0,0.0,0.0,0.0,0.0,0.0,0.0,0.0,0.0,0.0,0.0,0.0,0.0,0.0,0.0,0.0,0.0,0.0,0.0,0.0,0.0,0.0,0.0,0.0,0.0,0.0,0.0,0.0,0.0,0.0,0.0,0.0,0.0,0.0,0.0,0.0,0.0,0.0,0.0,0.0,0.0,0.0,0.0,0.0,0.0,0.0,0.0,0.0,0.0,0.0,0.0,0.0,0.0,0.0,0.0,0.0,0.0,0.0,0.0,0.0,0.0,0.0,0.0,0.0,0.0,0.0,0.0,0.0,0.0,0.0,0.0,0.0,0.0,0.0,0.0,0.0,0.0,0.0,0.0,0.0,0.0,0.0,0.0,0.0,0.0,0.0,0.0,0.0,0.0,0.0,0.0,0.0,0.0,0.0,0.0,0.0,0.0,0.0,0.0,0.0,0.0,0.0,0.0,0.0,0.0,0.0,0.0,0.0,0.0,0.0,0.0,0.0,0.0,0.0,0.0,0.0,0.0,0.0,0.0,0.0,0.0,0.0,0.0,0.0,0.0,0.0,0.0,0.0,0.0,0.0,0.0,0.0,0.0,0.0,0.0,0.0,0.0,0.0,0.0,0.0,0.0,0.0,0.0,0.0,0.0,0.0,0.0,0.0,0.0,0.0,0.0,0.0,0.0,0.0,0.0,0.0,0.0,0.0,0.0,0.0,0.0,0.0,0.0,0.0,0.0,0.0,0.0,0.0,0.0,0.0,0.0,0.0,0.0,0.0,0.0,0.0,0.0,0.0,0.0,0.0,0.0,0.0,0.0,0.0,0.0,0.0,0.0,0.0,0.0,0.0,0.0,0.0,0.0,0.0,0.0,0.0,0.0,0.0,0.0,0.0,0.0,0.0,0.0,0.0,0.0,0.0,0.0,0.0,0.0,0.0,0.0,0.0,0.0,0.0,0.0,0.0,0.0,0.0,0.0,0.0,0.0,0.0,0.0,0.0,0.0,0.0,0.0,0.0,0.0,0.0,0.0,0.0,0.0,0.0,0.0,0.0,0.0,0.0,0.0,0.0,0.0,0.0,0.0,0.0,0.0,0.0,0.0,0.0,0.0,0.0,0.0,0.0,0.0,0.0,0.0,0.0,0.0,0.0,0.0,0.0,0.0,0.0,0.0,0.0,0.0,0.0,0.0,0.0,0.0,0.0,0.0,0.0,0.0,0.0,0.0,0.0,0.0,0.0,0.0,0.0,0.0,0.0,0.0,0.0,0.0,0.0,0.0,0.0,0.0,0.0,0.0,0.0,0.0,0.0,0.0,0.0,0.0,0.0,0.0,0.0,0.0,0.0,0.0,0.0,0.0,0.0,0.0,0.0,0.0,0.0,0.0,0.0,0.0,0.0,0.0,0.0,0.0,0.0,0.0,0.0,0.0,0.0,0.0,0.0,0.0,0.0,0.0,0.0,0.0,0.0,0.0,0.0,0.0,0.0,0.0,0.0,0.0,0.0,0.0,0.0,0.0,0.0,0.0,0.0,0.0,0.0,0.0,0.0,0.0,0.0,0.0,0.0,0.0,0.0,0.0,0.0,0.0,0.0,0.0,0.0,0.0,0.0,0.0,0.0,0.0,0.0,0.0,0.0,0.0,0.0,0.0,0.0,0.0,0.0,0.0,0.0,0.0,0.0,0.0,0.0,0.0,0.0,0.0,0.0,0.0,0.0,0.0,0.0,0.0,0.0,0.0,0.0,0.0,0.0,0.0,0.0,0.0,0.0,0.0,0.0,0.0,0.0,0.0,0.0,0.0,0.0,0.0,0.0,0.0,0.0,0.0,0.0,0.0,0.0,0.0,0.0,0.0,0.0,0.0,0.0,0.0,0.0,0.0,0.0,0.0,0.0,0.0,0.0,0.0,0.0,0.0,0.0,0.0,0.0,0.0,0.0,0.0,0.0,0.0,0.0,0.0,0.0,0.0,0.0,0.0,0.0,0.0,0.0,0.0,0.0,0.0,0.0,0.0,0.0,0.0,0.0,0.0,0.0,0.0,0.0,0.0,0.0,0.0,0.0,0.0,0.0,0.0,0.0,0.0,0.0,0.0,0.0,0.0,0.0,0.0,0.0,0.0,0.0,0.0,0.0,0.0,0.0,0.0,0.0,0.0,0.0,0.0,0.0,0.0,0.0,0.0,0.0,0.0,0.0,0.0,0.0,0.0,0.0,0.0,0.0,0.0,0.0,0.0,0.0,0.0,0.0,0.0,0.0,0.0,0.0,0.0,0.0,0.0,0.0,0.0,0.0,0.0,0.0,0.0,0.0,0.0,0.0,0.0,0.0,0.0,0.0,0.0,0.0,0.0,0.0,0.0,0.0,0.0,0.0,0.0,0.0,0.0,0.0,0.0,0.0,0.0,0.0,0.0,0.0,0.0,0.0,0.0,0.0,0.0,0.0,0.0,0.0,0.0,0.0,0.0,0.0,0.0,0.0,0.0,0.0,0.0,0.0,0.0,0.0,0.0,0.0,0.0,0.0,0.0,0.0,0.0,0.0,0.0,0.0,0.0,0.0,0.0,0.0,0.0,0.0,0.0,0.0,0.0,0.0,0.0,0.0,0.0,0.0,0.0,0.0,0.0,0.0,0.0,0.0,0.0,0.0,0.0,0.0,0.0,0.0,0.0,0.0,0.0,0.0,0.0,0.0,0.0,0.0,0.0,0.0,0.0,0.0,0.0,0.0,0.0,0.0,0.0,0.0,0.0,0.0,0.0,0.0,0.0,0.0,0.0,0.0,0.0,0.0,0.0,0.0,0.0,0.0,0.0,0.0,0.0,0.0,0.0,0.0,0.0,0.0,0.0,0.0,0.0,0.0,0.0,0.0,0.0,0.0,0.0,0.0,0.0,0.0,0.0,0.0,0.0,0.0,0.0,0.0,0.0,0.0,0.0,0.0,0.0,0.0,0.0,0.0,0.0,0.0,0.0,0.0,0.0,0.0,0.0,0.0,0.0,0.0,0.0,0.0,0.0,0.0,0.0,0.0,0.0,0.0,0.0,0.0,0.0,0.0,0.0,0.0,0.0,0.0,0.0,0.0,0.0,0.0,0.0,0.0,0.0,0.0,0.0,0.0,0.0,0.0,0.0,0.0,0.0,0.0,0.0,0.0,0.0,0.0,0.0,0.0,0.0,0.0,0.0,0.0,0.0,0.0,0.0,0.0,0.0,0.0,0.0,0.0,0.0,0.0,0.0,0.0,0.0,0.0,0.0,0.0,0.0,0.0,0.0,0.0,0.0,0.0,0.0,0.0,0.0,0.0,0.0,0.0,0.0,0.0,0.0,0.0,0.0,0.0,0.0,0.0,0.0,0.0,0.0,0.0,0.0,0.0,0.0,0.0,0.0,0.0,0.0,0.0,0.0,0.0,0.0,0.0,0.0,0.0,0.0,0.0,0.0,0.0,0.0,0.0,0.0,0.0,0.0,0.0,0.0,0.0,0.0,0.0,0.0,0.0,0.0,0.0,0.0,0.0,0.0,0.0,0.0,0.0,0.0,0.0,0.0,0.0,0.0,0.0,0.0,0.0,0.0,0.0,0.0,0.0,0.0,0.0,0.0,0.0,0.0,0.0,0.0,0.0,0.0,0.0,0.0,0.0,0.0,0.0,0.0,0.0,0.0,0.0,0.0,0.0,0.0,0.0,0.0,0.0,0.0,0.0,0.0,0.0,0.0,0.0,0.0,0.0,0.0,0.0,0.0,0.0,0.0,0.0,0.0,0.0,0.0,0.0,0.0,0.0,0.0,0.0,0.0,0.0,0.0,0.0,0.0,0.0,0.0,0.0,0.0,0.0,0.0,0.0,0.0,0.0,0.0,0.0,0.0,0.0,0.0,0.0,0.0,0.0,0.0,0.0,0.0,0.0,0.0,0.0,0.0,0.0,0.0,0.0,0.0,0.0,0.0,0.0,0.0,0.0,0.0,0.0,0.0,0.0,0.0,0.0,0.0,0.0,0.0,0.0,0.0,0.0,0.0,0.0,0.0,0.0,0.0,0.0,0.0,0.0,0.0,0.0,0.0,0.0,0.0,0.0,0.0,0.0,0.0,0.0,0.0,0.0,0.0,0.0,0.0,0.0,0.0,0.0,0.0,0.0,0.0,0.0,0.0,0.0,0.0,0.0,0.0,0.0,0.0,0.0,0.0,0.0,0.0,0.0,0.0,0.0,0.0,0.0,0.0,0.0,0.0,0.0,0.0,0.0,0.0,0.0,0.0,0.0,0.0,0.0,0.0,0.0,0.0,0.0,0.0,0.0,0.0,0.0,0.0,0.0,0.0,0.0,0.0,0.0,0.0,0.0,0.0,0.0,0.0,0.0,0.0,0.0,0.0,0.0,0.0,0.0,0.0,0.0,0.0,0.0,0.0,0.0,0.0,0.0,0.0,0.0,0.0,0.0,0.0,0.0,0.0,0.0,0.0,0.0,0.0,0.0,0.0,0.0,0.0,0.0,0.0,0.0,0.0,0.0,0.0,0.0,0.0,0.0,0.0,0.0,0.0,0.0,0.0,0.0,0.0,0.0,0.0,0.0,0.0,0.0,0.0,0.0,0.0,0.0,0.0,0.0,0.0,-1.5677,-1.5388,0.0,0.0,0.0,0.0,0.0,0.0,0.0,0.0,0.0,0.0,0.0,0.0,0.0,0.0,0.0,0.0,0.0,0.0,0.0,0.0,0.0,0.0,0.0,-0.6077,-0.5924,-0.5787,-0.5792,-0.5935,-0.62,0.0,0.0,0.0,0.0,0.0,-0.6476,-0.5235,-0.405,-0.2975,-0.1736,-0.1079,-0.095,-0.195,-0.3039,-0.4171,0.0,0.0,0.0,0.0,0.0,0.0,0.0,0.0,0.0,0.0,0.0,0.0,0.0,0.0,0.0,0.0,0.0,0.0,0.0,0.0,0.0,0.0,0.0,0.0,0.0,0.0,0.0,0.0,0.0,0.0,0.0,0.0,0.0,0.0,0.0,0.0,0.0,0.0,0.0,0.0,0.0,0.0,0.0,0.0,0.0,0.0,0.0,0.0,0.0,0.0,0.0,0.0,0.0,0.0,0.0,0.0,0.0,0.0,0.0,0.0,0.0,0.0,0.0,0.0,0.0,0.0,0.0,0.0,0.0,0.0,-1.6241,-1.6132,0.0,0.0,0.0,0.0,0.0,0.0,0.0,0.0,0.0,0.0,0.0,0.0,0.0,0.0,0.0,0.0,0.0,0.0,0.0,0.0,0.0,-0.5213,-0.5428,-0.5213,-0.4963,-0.4766,-0.5039,-0.5279,-0.5411,-0.6106,0.0,0.0,0.0,-0.6543,-0.5907,-0.4423,-0.3117,-0.2048,-0.0662,-0.0045,-0.0178,-0.1222,-0.2296,-0.341,-0.4428,0.0,0.0,0.0,0.0,0.0,0.0,0.0,0.0,0.0,0.0,0.0,0.0,0.0,0.0,0.0,0.0,0.0,0.0,0.0,0.0,0.0,0.0,0.0,0.0,0.0,0.0,0.0,0.0,0.0,0.0,0.0,0.0,0.0,0.0,0.0,0.0,0.0,0.0,0.0,0.0,0.0,0.0,0.0,0.0,0.0,0.0,0.0,0.0,0.0,0.0,0.0,0.0,0.0,0.0,0.0,0.0,0.0,0.0,0.0,0.0,0.0,0.0,0.0,-1.5276,-1.5591,-1.5975,-1.6118,-1.6459,-1.6944,-1.7379,-1.7393,-1.7086,-1.6692,0.0,0.0,0.0,0.0,0.0,0.0,0.0,0.0,0.0,0.0,0.0,0.0,0.0,0.0,0.0,0.0,0.0,0.0,0.0,-0.4019,-0.4059,-0.3825,-0.367,-0.3701,-0.3961,-0.4375,-0.5029,-0.5809,0.0,0.0,-0.6742,-0.6141,-0.5087,-0.3988,-0.2776,-0.1413,-0.0468,-0.0269,-0.0781,-0.1176,-0.1878,-0.2845,-0.3688,-0.4591,-0.5539,0.0,0.0,0.0,0.0,0.0,0.0,0.0,0.0,0.0,0.0,0.0,0.0,0.0,0.0,0.0,0.0,0.0,0.0,0.0,0.0,0.0,0.0,0.0,0.0,0.0,0.0,0.0,0.0,0.0,0.0,0.0,0.0,0.0,0.0,0.0,0.0,0.0,0.0,0.0,0.0,0.0,-1.0497,-1.0822,0.0,0.0,0.0,0.0,0.0,0.0,0.0,0.0,0.0,0.0,0.0,0.0,0.0,-1.4585,-1.4181,-1.5572,-1.6044,-1.5597,-1.7018,-1.7474,-1.7135,-1.8037,-1.8524,-1.8603,-1.9147,0.0,-1.7151,-1.7963,0.0,0.0,0.0,0.0,0.0,0.0,0.0,0.0,0.0,0.0,0.0,0.0,0.0,0.0,0.0,0.0,0.0,0.0,0.0,0.0,0.0,-0.2667,-0.2571,-0.2744,-0.3326,-0.3991,-0.4723,-0.567,-0.6411,-0.6884,-0.6427,-0.5775,-0.4985,-0.3501,-0.1943,-0.0355,-0.0112,-0.0134,-0.0401,-0.102,-0.1701,-0.2464,-0.3453,-0.4332,-0.5102,-0.5964,0.0,0.0,0.0,0.0,0.0,0.0,0.0,0.0,0.0,0.0,0.0,0.0,0.0,0.0,0.0,0.0,0.0,0.0,0.0,0.0,0.0,0.0,0.0,0.0,0.0,0.0,0.0,0.0,0.0,0.0,0.0,0.0,0.0,0.0,0.0,0.0,0.0,0.0,0.0,-0.9647,-0.9659,-0.9769,-1.0431,-1.1169,0.0,0.0,0.0,0.0,0.0,0.0,0.0,0.0,0.0,-1.512,-1.5205,-1.5475,-1.5905,-1.6603,-1.697,-1.7052,-1.8082,-1.8432,-1.8214,-1.9001,-1.9456,-1.9707,-1.9949,-1.9752,-1.9277,-1.9109,-1.9335,-1.978,0.0,0.0,0.0,0.0,-2.0123,-1.9932,0.0,0.0,0.0,0.0,0.0,0.0,0.0,0.0,0.0,0.0,0.0,0.0,-0.156,-0.1415,-0.1481,-0.1842,-0.2796,-0.3721,-0.4518,-0.5643,-0.6485,-0.6947,-0.6276,-0.5525,-0.4782,-0.2781,-0.1074,0.029,0.0022,-0.0157,-0.0245,-0.1043,-0.1747,-0.2373,-0.3429,-0.4232,-0.4866,-0.5813,-0.6496,0.0,0.0,0.0,0.0,0.0,0.0,0.0,0.0,0.0,0.0,0.0,0.0,0.0,0.0,0.0,0.0,0.0,0.0,0.0,0.0,0.0,0.0,0.0,0.0,0.0,0.0,0.0,0.0,0.0,0.0,0.0,0.0,0.0,0.0,0.0,0.0,0.0,0.0,-0.8948,-0.8763,-0.8659,-0.9421,-1.0302,0.0,0.0,0.0,0.0,0.0,0.0,-1.6099,-1.5873,-1.5805,-1.5908,-1.6056,-1.6488,-1.7306,-1.7579,-1.7924,-1.8295,-1.8946,-1.9251,-1.9288,-1.9788,-2.02,-2.0483,-2.0483,-2.0756,-2.1078,-2.0281,-2.0307,-2.0747,-2.0368,-2.0402,-2.073,-2.0973,-2.0787,-2.0539,0.0,0.0,0.0,0.0,0.0,0.0,0.0,0.0,0.0,0.0,0.0,0.0262,0.0262,0.0061,-0.0321,-0.092,-0.2229,-0.3439,-0.4433,-0.5755,-0.6696,-0.7171,-0.6484,-0.5473,-0.4169,-0.1748,-0.0312,0.0022,-0.0246,-0.0535,-0.087,-0.1491,-0.2086,-0.2719,-0.3525,-0.4332,-0.5121,-0.5891,-0.6575,-0.7273,0.0,0.0,0.0,0.0,0.0,0.0,0.0,0.0,0.0,0.0,0.0,0.0,0.0,0.0,0.0,0.0,0.0,0.0,0.0,0.0,0.0,0.0,0.0,0.0,0.0,0.0,0.0,0.0,0.0,0.0,0.0,0.0,0.0,0.0,0.0,0.0,0.0,0.0,0.0,-0.7163,-0.854,0.0,0.0,0.0,0.0,-1.5917,-1.6069,-1.6366,-1.6995,-1.6669,-1.6445,-1.6445,-1.6966,-1.7248,-1.7313,-1.8316,-1.8819,-1.8855,-1.9778,-2.0246,-2.0246,-2.0723,-2.0967,-2.0959,-2.0959,-2.1173,-2.156,-2.1519,-2.1502,-2.1601,-2.2005,-2.2325,-2.2565,-2.2565,-2.276,-2.3012,0.0,0.0,0.0,0.0,0.0,-0.1862,-0.1646,-0.0878,-0.0022,0.0831,0.1276,0.1502,0.1499,0.1337,0.0765,-0.0352,-0.1887,-0.3307,-0.4487,-0.6019,-0.6903,-0.6945,-0.6158,-0.4641,-0.2344,-0.105,-0.0268,0.0,-0.0268,-0.0579,-0.0915,-0.1703,-0.2378,-0.2984,-0.3799,-0.4604,-0.5384,-0.5828,-0.6399,-0.7048,-0.7506,-0.8204,0.0,0.0,0.0,0.0,0.0,0.0,0.0,0.0,0.0,0.0,0.0,0.0,0.0,0.0,0.0,0.0,0.0,0.0,0.0,0.0,0.0,0.0,0.0,0.0,0.0,0.0,0.0,0.0,0.0,0.0,0.0,0.0,0.0,0.0,0.0,0.0,0.0,-0.7087,-0.8444,0.0,-1.1018,-1.3324,-1.4927,-1.5426,-1.659,-1.7373,-1.7604,-1.7548,-1.7691,-1.8026,-1.8239,-1.8517,-1.8826,-1.9495,-1.9814,-1.9814,-2.0442,-2.0756,-2.0756,-2.0926,-2.115,-2.1399,-2.1622,-2.1935,-2.2315,-2.2539,-2.2513,-2.2351,-2.2747,-2.2949,-2.3021,-2.3021,-2.3093,-2.3189,0.0,0.0,0.0,0.0,-0.2283,-0.1796,-0.1367,-0.0327,0.0816,0.1956,0.267,0.3,0.2804,0.2493,0.1606,-0.0154,-0.1899,-0.3545,-0.5045,-0.6455,-0.7169,-0.7006,-0.5443,-0.3523,-0.1215,-0.0579,-0.0179,0.0,-0.0379,-0.0735,-0.1046,-0.1942,-0.2677,-0.3277,-0.4082,-0.4875,-0.5622,-0.5986,-0.6474,-0.7048,-0.7536,-0.8243,-0.91,0.0,0.0,0.0,0.0,0.0,0.0,0.0,0.0,0.0,0.0,0.0,0.0,0.0,0.0,0.0,0.0,0.0,0.0,0.0,0.0,0.0,0.0,0.0,0.0,0.0,0.0,0.0,0.0,0.0,0.0,0.0,0.0,0.0,0.0,-0.7373,-0.7111,-0.7495,-0.8823,-1.013,-1.1238,-1.3709,-1.5437,-1.5948,-1.734,-1.8273,-1.8491,-1.8708,-1.8999,-1.9354,-1.9528,-1.9786,-2.0154,-2.0398,-2.0558,-2.055,-2.0983,-2.1267,-2.1397,-2.1502,-2.177,-2.2141,-2.2362,-2.2609,-2.2889,-2.3221,-2.3245,-2.3045,-2.3174,-2.3268,-2.3369,-2.3369,-2.3446,-2.3544,0.0,0.0,0.0,-0.2676,-0.2413,-0.1993,-0.1374,0.015,0.1631,0.2795,0.4177,0.4836,0.4245,0.3562,0.2172,-0.0265,-0.2209,-0.4134,-0.6095,-0.7039,-0.7439,-0.7302,-0.4369,-0.2172,-0.0905,-0.0313,-0.0022,-0.0022,-0.0626,-0.1068,-0.1329,-0.2276,-0.3014,-0.3553,-0.4368,-0.5135,-0.5863,-0.6404,-0.6865,-0.7322,-0.8348,-0.8643,-0.869,0.0,0.0,0.0,0.0,0.0,0.0,0.0,0.0,0.0,0.0,0.0,0.0,0.0,0.0,0.0,0.0,0.0,0.0,0.0,0.0,0.0,0.0,0.0,0.0,0.0,0.0,0.0,0.0,0.0,0.0,0.0,0.0,0.0,-0.8725,-0.7835,-0.7486,-0.8339,-0.9702,-1.1081,-1.2336,-1.435,-1.6175,-1.7602,-1.8366,-1.9044,-1.9681,-2.0089,-2.0306,-2.0306,-2.0756,-2.0999,-2.0999,-2.0999,-2.1023,-2.1023,-2.143,-2.1795,-2.2152,-2.2521,-2.2889,-2.3189,-2.3221,-2.3221,-2.3245,-2.3588,-2.3726,-2.3683,-2.336,-2.3437,-2.3735,-2.3726,-2.3937,-2.4247,0.0,0.0,-0.263,-0.2378,-0.2265,-0.1936,-0.1127,0.0588,0.2288,0.3728,0.5347,0.6242,0.5886,0.4985,0.3181,0.0122,-0.2117,-0.4369,-0.6703,-0.7349,-0.6836,-0.5009,-0.286,-0.1341,-0.0555,-0.0379,-0.029,-0.029,-0.1135,-0.158,-0.1689,-0.2767,-0.356,-0.4107,-0.4862,-0.5703,-0.6564,-0.7044,-0.7541,-0.8001,-0.8055,-0.8605,-0.9484,0.0,0.0,0.0,0.0,0.0,0.0,0.0,0.0,0.0,0.0,0.0,0.0,0.0,0.0,0.0,0.0,0.0,0.0,0.0,0.0,0.0,0.0,0.0,0.0,0.0,0.0,0.0,0.0,0.0,0.0,0.0,-0.8856,-0.8349,-0.8049,-0.826,-0.8706,-0.9338,-1.127,-1.2818,-1.3569,-1.591,-1.7538,-1.7978,-1.9159,-1.9924,-2.0116,-2.0558,-2.0797,-2.0797,-2.0926,-2.0999,-2.0999,-2.1283,-2.1557,-2.1811,-2.1998,-2.2375,-2.2896,-2.2763,-2.2889,-2.3212,-2.3468,-2.3566,-2.361,-2.408,-2.4275,-2.4265,-2.4174,-2.4192,-2.4311,-2.443,-2.4556,-2.4639,0.0,-0.2509,-0.2781,-0.2546,-0.2764,-0.2519,-0.1083,0.0691,0.2646,0.4808,0.6566,0.7473,0.7123,0.5899,0.3776,0.0456,-0.2124,-0.4537,-0.6825,-0.6409,-0.5078,-0.2889,-0.1383,-0.0414,-0.0067,-0.0178,-0.0356,-0.0599,-0.14,-0.1973,-0.2328,-0.3237,-0.4067,-0.479,-0.5496,-0.6309,-0.7169,-0.7627,-0.8122,-0.858,-0.8404,-0.8796,-0.9512,-0.9903,-1.0293,-1.0655,-1.0851,-1.0647,-1.025,-1.0015,0.0,0.0,0.0,0.0,0.0,0.0,0.0,0.0,0.0,0.0,0.0,0.0,0.0,0.0,0.0,0.0,0.0,0.0,0.0,0.0,0.0,0.0,0.0,0.0,-0.9397,-0.9213,-0.9122,-0.9402,-0.9954,-1.0793,-1.2519,-1.3896,-1.4592,-1.674,-1.8241,-1.8623,-1.9665,-2.0382,-2.0583,-2.1015,-2.1244,-2.1244,-2.1541,-2.1703,-2.1703,-2.2077,-2.2379,-2.2574,-2.2652,-2.2933,-2.3392,-2.3221,-2.3291,-2.3631,-2.3903,-2.404,-2.407,-2.4458,-2.4632,-2.4632,0.0,0.0,0.0,0.0,-2.4837,-2.4877,0.0,-0.2626,-0.2949,-0.2787,-0.332,-0.309,-0.1041,0.0768,0.2934,0.5841,0.7643,0.8483,0.8067,0.6561,0.4213,0.0832,-0.1996,-0.4371,-0.6197,-0.4339,-0.245,-0.0823,0.0147,0.0587,0.051,0.0178,-0.0332,-0.0993,-0.1659,-0.2388,-0.3203,-0.3834,-0.4652,-0.5597,-0.6278,-0.6996,-0.7765,-0.8198,-0.8652,-0.9098,-0.9152,-0.9114,-0.9138,-0.9976,-1.03,-1.0348,-1.0772,-1.1064,-1.12,-1.0725,0.0,0.0,0.0,0.0,0.0,0.0,0.0,0.0,0.0,0.0,0.0,0.0,0.0,0.0,0.0,0.0,0.0,0.0,0.0,0.0,0.0,0.0,0.0,0.0,-1.0346,-1.0824,-1.1398,-1.1166,-1.1342,-1.2359,-1.3653,-1.4774,-1.5599,-1.73,-1.8686,-1.9527,-2.0122,-2.0641,-2.111,-2.1513,0.0,0.0,0.0,-2.2772,-2.2772,-2.3045,-2.3221,-2.3268,-2.3221,-2.3414,-2.3798,-2.3747,-2.3939,-2.4275,-2.4453,-2.4536,-2.4552,-2.4736,-2.4837,-2.4851,-2.4837,-2.4837,-2.4861,-2.4861,-2.4939,-2.5034,0.0,-0.2295,-0.2274,-0.1992,-0.1889,-0.1473,-0.0404,0.1698,0.3928,0.6079,0.7864,0.8888,0.8798,0.7531,0.5258,0.1676,-0.0912,-0.263,0.0,0.0,0.0914,0.1387,0.185,0.1797,0.1134,0.0395,-0.0505,-0.1552,-0.2582,-0.3509,-0.4315,-0.5182,-0.5952,-0.6642,-0.7308,-0.7959,-0.8586,-0.8838,-0.9223,-0.9646,-0.9596,-0.948,-0.935,-0.9588,-0.9676,-0.9686,-0.977,-0.9842,-0.9869,-0.9771,-1.0078,-1.052,-1.0635,0.0,0.0,0.0,0.0,0.0,0.0,0.0,0.0,0.0,0.0,0.0,0.0,0.0,0.0,0.0,0.0,0.0,0.0,0.0,0.0,-1.2225,-1.2509,-1.2858,-1.3732,-1.3773,-1.3533,-1.302,-1.508,-1.6709,-1.7218,-1.8841,-2.0113,-2.0639,-2.1101,-2.1519,-2.1869,-2.2271,-2.26,-2.288,-2.3036,-2.3085,-2.3085,-2.3165,-2.3346,-2.3597,-2.3337,0.0,-2.4338,-2.4081,-2.421,-2.4685,-2.4731,-2.4746,-2.4751,-2.4894,-2.5063,-2.5191,-2.502,-2.5063,-2.5202,-2.5202,-2.5223,-2.5244,-0.2367,-0.2314,-0.2372,-0.2258,-0.227,-0.1781,-0.0232,0.1771,0.4079,0.6839,0.8366,0.9085,0.8781,0.7796,0.5748,0.2254,0.0507,-0.0242,0.0,0.2095,0.3474,0.3976,0.4203,0.3821,0.2828,0.1677,0.0164,-0.1747,-0.2956,-0.43,-0.5775,-0.6435,-0.7048,-0.7628,-0.8204,-0.8709,-0.9162,-0.9333,-0.9574,-0.9849,-0.9853,-0.9787,-0.9701,-0.97,-0.9724,-0.9754,-0.9754,-0.9754,-0.9754,-0.9754,-1.0001,-1.0367,-1.0767,-1.1446,-1.224,0.0,0.0,0.0,0.0,0.0,0.0,0.0,0.0,0.0,0.0,0.0,0.0,0.0,0.0,-1.0154,-1.1176,0.0,-1.1797,-1.3179,-1.34,-1.3655,-1.4411,-1.481,-1.4805,-1.4171,-1.6067,-1.756,-1.8021,-1.9646,-2.0894,-2.1502,-2.1749,-2.2077,-2.2626,-2.2855,-2.3058,-2.3339,-2.3511,-2.3659,-2.3757,-2.3912,-2.4081,-2.4237,-2.4081,-2.4227,-2.4639,-2.4487,-2.4551,-2.4795,-2.4873,-2.4904,-2.4917,-2.5086,-2.5233,-2.5341,-2.5241,-2.5262,-2.5341,-2.5341,-2.537,-2.5399,-0.2372,-0.2271,-0.2386,-0.2494,-0.2599,-0.2012,-0.0056,0.1655,0.3909,0.7159,0.8162,0.8286,0.7551,0.7242,0.6176,0.3929,0.2867,0.0,0.0,0.4991,0.5822,0.6399,0.6407,0.5827,0.4637,0.3261,0.1222,-0.1509,-0.319,-0.4958,-0.6777,-0.7214,-0.7736,-0.8318,-0.8764,-0.9159,-0.9494,-0.9621,-0.974,-0.9856,-1.0068,-1.0174,-1.0204,-1.0289,-1.0201,-1.002,-1.002,-1.002,-1.002,-1.002,-1.002,-1.013,-1.078,-1.1106,-1.1517,-1.2966,-1.2932,0.0,0.0,0.0,0.0,0.0,0.0,0.0,0.0,0.0,-0.9641,-0.9849,-0.997,-1.0416,-1.1739,-1.2133,-1.2656,-1.3806,-1.417,-1.445,-1.4898,-1.5462,-1.5741,-1.5535,-1.6947,-1.8184,-1.8857,-2.0315,-2.1546,-2.2311,-2.2364,-2.2676,-2.3388,-2.341,-2.3514,-2.375,-2.4017,-2.4234,-2.44,-2.4674,-2.4804,-2.4804,-2.4804,-2.4809,-2.4842,-2.4842,-2.4874,-2.4925,-2.5046,-2.5105,-2.5105,-2.5262,-2.537,-2.5418,-2.5418,-2.5428,-2.5438,-2.5427,-2.5454,-2.5502,0.0,-0.1784,-0.1452,-0.1472,-0.0854,-0.013,0.0609,0.1951,0.3661,0.5848,0.5804,0.5129,0.3922,0.5307,0.7015,0.8721,0.7328,0.0,0.8387,0.8563,0.8414,0.7975,0.7619,0.6897,0.5748,0.4458,0.2396,-0.0467,-0.3593,-0.5515,-0.6293,-0.6878,-0.7558,-0.8318,-0.8667,-0.9046,-0.9423,-0.9558,-0.9618,-0.97,-1.0418,-1.078,-1.0961,-1.1609,-1.1116,-1.0093,-1.0093,-1.0093,-1.0093,-1.0093,-1.0093,-1.0103,-1.0191,-1.0755,-1.1541,-1.2384,0.0,-1.3787,-1.4622,-1.422,-1.3421,-1.271,-1.1927,-1.12,0.0,0.0,-1.029,-1.0258,-1.0536,-1.1086,-1.2073,-1.2994,-1.3918,-1.4952,-1.5863,-1.647,-1.6541,-1.6609,-1.6733,-1.6954,-1.8022,-1.9309,-2.0656,-2.1507,-2.2356,-2.328,-2.3347,-2.3601,-2.4152,-2.4178,-2.4318,-2.4644,-2.4693,-2.4717,-2.4747,-2.478,-2.4804,-2.4804,-2.4804,-2.486,-2.4986,-2.4986,-2.5115,-2.5339,-2.5408,-2.5447,-2.5447,-2.5466,-2.5486,-2.5486,-2.5486,-2.5529,-2.5572,-2.5512,-2.5488,-2.5497,0.0,-0.1774,-0.1418,-0.0882,-0.0356,0.0133,0.0506,0.1656,0.2962,0.4275,0.445,0.3908,0.2482,0.3912,0.5453,0.6627,0.783,0.0,0.9507,0.9562,0.9433,0.914,0.8705,0.7919,0.6738,0.5158,0.2978,0.0168,-0.2374,-0.4537,-0.6323,-0.6697,-0.7322,-0.8133,-0.8266,-0.8517,-0.8854,-0.9421,-0.9657,-0.974,-1.0576,-1.0945,-1.103,-1.1342,-1.111,-1.0697,-1.1239,-1.1363,0.0,0.0,-1.0616,-1.0526,-0.9981,-1.0108,-1.0624,-1.145,-1.2031,0.0,-1.3586,-1.3661,-1.3287,-1.2509,-1.18,-1.1213,-1.0926,-1.0774,-1.0726,-1.0865,-1.1153,-1.1851,-1.3405,-1.416,-1.5011,-1.6414,-1.6998,-1.7276,-1.7276,-1.7507,-1.786,-1.8426,-1.9595,-2.049,-2.0821,-2.211,-2.3218,-2.3915,-2.3971,-2.4161,-2.4576,-2.4601,-2.47,-2.4907,-2.4917,-2.4968,-2.5091,-2.513,-2.5149,-2.5149,-2.5199,-2.5243,-2.5288,-2.5288,-2.5341,-2.5456,-2.5485,-2.5495,-2.5495,-2.5495,-2.5514,-2.5553,-2.5564,-2.5597,-2.5649,-2.5584,-2.558,-2.5619,0.0,-0.2078,-0.1831,-0.0928,-0.0466,-0.0088,0.0347,0.1219,0.2084,0.2729,0.2794,0.2153,0.0476,0.1633,0.3109,0.4553,0.7292,0.9177,0.973,0.9815,0.9777,0.9612,0.9242,0.8519,0.7382,0.5742,0.3627,0.1029,-0.1204,-0.3397,-0.5534,-0.605,-0.6694,-0.7425,-0.7708,-0.7968,-0.8258,-0.9038,-0.9403,-0.9552,-1.0435,-1.0854,-1.0976,-1.1177,-1.1246,-1.1327,-1.1913,-1.2029,0.0,0.0,-1.0824,-1.0677,-0.9803,-0.9727,-1.0146,-1.112,-1.1824,-1.2438,-1.3152,-1.3297,-1.3057,-1.2317,-1.1709,-1.128,-1.1164,-1.1134,-1.1212,-1.1483,-1.1971,-1.2824,-1.4316,-1.5198,-1.6129,-1.736,-1.7804,-1.7991,-1.7991,-1.8267,-1.8816,-1.965,-2.0812,-2.1552,-2.1552,-2.2865,-2.3934,-2.4476,-2.4517,-2.4661,-2.4951,-2.4983,-2.5025,-2.5117,-2.5126,-2.5209,-2.5351,-2.5399,-2.5428,-2.5432,-2.548,-2.5499,-2.5499,-2.5515,-2.5528,-2.5531,-2.555,-2.5554,-2.5554,-2.5554,-2.5586,-2.5636,-2.5629,-2.5656,-2.5691,-2.5653,-2.5666,-2.5703,0.0,0.0,-0.2683,-0.1808,-0.1173,-0.0501,0.0288,0.0711,0.1038,0.1318,0.041,-0.1032,-0.3026,-0.2153,0.0281,0.452,0.6346,0.7969,0.9591,0.9709,0.9529,0.9135,0.8984,0.8463,0.7515,0.6287,0.4584,0.2335,-0.059,-0.2462,-0.332,-0.4639,-0.5494,-0.6009,-0.698,-0.7527,-0.7756,-0.8311,-0.8689,-0.8998,-0.9879,-1.0458,-1.0884,-1.1594,-1.1869,-1.183,-1.1541,0.0,0.0,-1.0638,-1.0417,-1.0292,-0.9545,-0.9807,0.0,-1.1821,-1.3279,-1.4425,-1.4073,-1.3548,-1.2966,-1.2345,-1.1746,-1.1371,-1.1703,-1.1723,-1.1779,-1.2092,-1.3162,-1.4096,-1.4281,-1.5914,-1.7295,-1.7463,-1.8328,-1.8956,-1.8956,-1.8971,-1.9392,-2.0532,-2.1395,-2.2361,-2.3593,-2.4048,-2.4501,-2.505,-2.5082,-2.5173,-2.537,-2.5447,-2.5447,-2.5389,-2.5447,-2.5495,-2.5495,-2.5505,-2.5497,-2.5503,-2.5503,-2.5503,-2.5498,-2.5566,-2.5601,-2.5601,-2.5668,-2.5693,-2.5693,-2.5693,-2.5703,-2.5699,-2.5696,-2.5698,-2.5703,-2.5703,-2.5703,-2.5703,0.0,0.0,0.0,-0.2305,-0.1112,-0.0043,0.0638,0.0489,0.0066,-0.0607,-0.2034,0.0,0.0,0.0,0.0,0.0,0.5038,0.7305,0.8811,0.9114,0.9076,0.8713,0.8104,0.7373,0.6522,0.5231,0.4099,0.3133,0.097,-0.1041,-0.2868,-0.3181,-0.3897,-0.4936,-0.549,-0.5875,-0.6178,-0.7201,-0.7859,-0.8308,-0.9187,-0.991,-1.0509,-1.075,-1.0833,-1.0855,0.0,0.0,-1.1292,-1.0673,-1.0563,-1.0518,-0.9689,0.0,-1.121,-1.2641,-1.332,-1.3643,-1.3819,-1.3369,-1.274,-1.2313,-1.2045,-1.1932,-1.2045,-1.2187,-1.2376,-1.2611,-1.3638,-1.4757,-1.56,-1.6998,-1.8254,-1.8975,-1.9412,-1.9663,-1.9663,-2.0236,-2.0778,-2.1121,-2.2492,-2.3587,-2.3957,-2.446,-2.4886,-2.5209,-2.523,-2.5261,-2.5332,-2.5361,-2.5361,-2.5322,-2.5361,-2.539,-2.5428,-2.5478,-2.5517,-2.5572,-2.5609,-2.5634,-2.5633,-2.5661,-2.5668,-2.5671,-2.5689,-2.5703,-2.5703,-2.5703,-2.5703,-2.5703,-2.5698,-2.5697,-2.5703,-2.5703,-2.5703,-2.5703,0.0,0.0,0.0,0.0,0.0,0.0,0.0,0.0,0.0,0.0,0.0,0.0,0.0,0.0,0.0,0.0,0.0,0.6126,0.7411,0.0,0.8812,0.8244,0.7444,0.6548,0.5526,0.4507,0.3782,0.3346,0.1714,-0.0,-0.1738,-0.1926,-0.2639,-0.3824,-0.4208,-0.4713,-0.5331,-0.6285,-0.7139,-0.7887,-0.8425,-0.9218,-1.0001,-0.9822,-0.9872,0.0,0.0,0.0,-1.0082,-1.0183,-1.0308,-1.0345,-0.997,-1.0769,-1.2099,-1.3426,-1.3505,-1.3226,-1.3483,-1.3053,-1.2474,-1.224,-1.2197,-1.2251,-1.242,-1.2671,-1.2905,-1.3143,-1.4415,-1.5765,-1.6664,-1.804,-1.9251,-1.9933,-2.0083,-2.0207,-2.0501,-2.1107,-2.1753,-2.2333,-2.3492,-2.4321,-2.4543,-2.4925,-2.5201,-2.5332,-2.5332,-2.5332,-2.5332,-2.5361,-2.5361,-2.5332,-2.5361,-2.5399,-2.5476,-2.5507,-2.5574,-2.5641,-2.5676,-2.5703,-2.5703,-2.5703,-2.5703,-2.5703,-2.5703,-2.5703,-2.5703,-2.5703,-2.5703,-2.5703,-2.5703,-2.5703,-2.5703,-2.5703,-2.5703,-2.5703,0.0,0.0,0.0,0.0,0.0,0.0,0.0,0.0,0.0,0.0,0.0,0.0,0.0,0.0,0.0,0.0,0.0,0.0,0.0,0.0,0.0,0.7697,0.6973,0.5947,0.4549,0.4078,0.3545,0.2898,0.1515,0.0569,-0.0034,-0.0929,-0.1821,-0.2662,-0.3208,-0.4069,-0.514,-0.5563,-0.6451,-0.7589,-0.7623,-0.837,-0.9383,-0.8945,0.0,0.0,0.0,0.0,-0.774,-0.9147,-0.9668,-0.9863,-1.0463,-1.1764,-1.3215,-1.4043,-1.3773,-1.3188,-1.3041,-1.2573,-1.2151,-1.219,-1.2238,-1.2368,-1.2818,-1.3134,-1.3434,-1.3747,-1.5473,-1.7026,0.0,-1.8949,-2.0208,-2.0227,-2.0273,-2.0564,-2.1333,-2.156,-2.2266,-2.3925,-2.4259,-2.4626,-2.5332,-2.5399,-2.5399,-2.5399,-2.5399,-2.539,-2.539,-2.5466,-2.5466,-2.5399,-2.5466,-2.5534,-2.5591,-2.56,-2.5644,-2.5703,-2.5703,-2.5703,-2.5703,-2.5703,-2.5703,-2.5703,-2.5703,-2.5703,-2.5703,-2.5703,-2.5703,-2.5703,-2.5703,-2.5703,-2.5703,-2.5703,-2.5703,-2.5703,0.0,0.0,0.0,0.0,0.0,0.0,0.0,0.0,0.0,0.0,0.0,0.0,0.0,0.0,0.0,0.0,0.0,0.0,0.0,0.0,0.0,0.0,0.0,0.4566,0.3364,0.2342,0.1337,0.0352,0.026,0.0155,-0.0033,-0.1603,-0.2109,-0.1702,-0.2521,-0.3241,-0.3836,-0.4579,-0.5453,-0.6326,0.0,-0.7534,-0.8587,0.0,0.0,0.0,0.0,0.0,0.0,0.0,0.0,0.0,0.0,-1.3201,-1.3619,-1.2948,-1.2444,-1.2045,-1.1766,-1.1565,-1.1571,-1.2086,-1.2614,-1.3056,-1.3225,-1.3631,-1.4235,-1.515,-1.6338,-1.7293,-1.7567,-1.9076,-2.008,-1.9501,-1.9867,-2.0304,-2.0505,-2.1617,-2.2573,-2.2955,0.0,-2.5248,-2.5396,-2.5445,-2.5457,-2.5399,-2.5341,-2.5322,-2.5322,-2.5332,-2.5332,-2.5322,-2.539,-2.5466,-2.5524,-2.5619,-2.5684,-2.5703,-2.5703,-2.5703,-2.5703,-2.5703,-2.5703,-2.5703,-2.5703,-2.5703,-2.5703,-2.5703,-2.5703,-2.5703,-2.5703,-2.5703,-2.5703,-2.5703,-2.5703,-2.5703,0.0,0.0,0.0,0.0,0.0,0.0,0.0,0.0,0.0,0.0,0.0,0.0,0.0,0.0,0.0,0.0,0.0,0.0,0.0,0.0,0.0,0.0,0.354,0.1922,0.125,-0.0102,-0.1354,0.0,0.0,0.0,-0.1198,-0.1797,-0.2033,-0.1945,-0.2707,-0.3268,-0.3656,-0.4307,0.0,0.0,0.0,0.0,0.0,0.0,0.0,0.0,0.0,0.0,0.0,0.0,0.0,-0.5973,-0.8021,-0.9343,-1.0238,-1.0736,0.0,-1.1024,-1.092,-1.0816,-1.0958,-1.1953,-1.254,-1.3035,-1.3728,-1.4139,-1.4712,-1.5878,-1.6545,-1.7087,-1.7683,-1.8896,-1.9636,-1.9095,-1.9562,0.0,-2.038,-2.1434,-2.236,0.0,-2.4257,-2.522,-2.5302,-2.5425,-2.5482,-2.5449,-2.5378,-2.5332,-2.5332,-2.5332,-2.5361,-2.539,-2.5418,-2.5486,-2.5543,-2.5649,-2.5703,-2.5703,-2.5703,-2.5703,-2.5703,-2.5703,-2.5703,-2.5703,-2.5703,-2.5703,-2.5703,-2.5703,-2.5703,-2.5703,-2.5703,-2.5703,-2.5703,-2.5703,-2.5703,-2.5703,0.0,0.0,0.0,0.0,0.0,0.0,0.0,0.0,0.0,0.0,0.0,0.0,0.0,0.0,0.0,0.0,0.0,0.0,0.0,0.0,0.0,0.0,0.1,-0.0924,-0.119,-0.2614,-0.4041,-0.5433,0.0,0.0,0.0,0.0,0.0,0.0,0.0,0.0,0.0,0.0,0.0,0.0,0.0,0.0,0.0,0.0,0.0,0.0,0.0,0.0,0.0,0.0,0.4419,0.0888,-0.1045,-0.2992,-0.5104,-0.7755,-0.8942,-0.9541,-1.02,-1.024,-1.0423,-1.174,-1.2261,-1.2785,-1.4067,-1.452,-1.5006,-1.6188,-1.6426,-1.6703,-1.758,-1.8438,-1.8956,-1.8755,0.0,-1.9756,-2.0476,-2.1076,-2.1837,-2.2863,-2.4031,-2.4822,-2.5003,-2.5286,-2.5467,-2.5504,-2.5453,-2.5407,-2.5409,-2.5409,-2.5438,-2.5505,-2.5515,-2.5543,-2.5615,-2.5658,-2.5686,-2.5686,-2.5693,-2.5693,-2.5693,-2.5703,-2.5703,-2.5703,-2.5703,-2.5703,-2.5703,-2.5703,-2.5703,-2.5703,-2.5703,-2.5703,-2.5703,-2.5703,-2.5703,-2.5703,0.0,0.0,0.0,0.0,0.0,0.0,0.0,0.0,0.0,0.0,-0.2377,-0.3927,0.0,0.0,0.0,0.0,0.0,0.0,0.0,0.0,0.0,0.0,0.0132,-0.1403,-0.2691,-0.3628,-0.5299,-0.7724,0.0,0.0,0.0,0.0,0.0,0.0,0.0,0.0,0.0,0.0,0.0,0.0,0.0,0.0,0.0,0.0,0.0,0.0,0.0,0.0,0.0,0.0,0.6327,0.2873,0.2814,0.0897,-0.1806,-0.4328,-0.5144,-0.5905,-0.8931,-0.9923,-1.0301,-1.1153,-1.2296,-1.3287,-1.3604,-1.4375,0.0,-1.6426,-1.6601,-1.6643,-1.6876,-1.7534,-1.8001,-1.7852,-1.8177,-1.8786,-1.9738,-2.0671,-2.127,0.0,-2.318,-2.4386,-2.4159,-2.4813,-2.5322,-2.5487,-2.5491,-2.5477,-2.5476,-2.5481,-2.5505,-2.5582,-2.5582,-2.5607,-2.5681,-2.5634,-2.5621,-2.5621,-2.5618,-2.5615,-2.5615,-2.5674,-2.5703,-2.5703,-2.5703,-2.5703,-2.5703,-2.5703,-2.5703,-2.5703,-2.5703,-2.5703,-2.5703,-2.5703,-2.5703,-2.5703,0.0,0.0,0.0,0.0,0.0,0.0,0.0,0.1771,0.1401,-0.018,-0.1721,-0.3477,-0.5565,-0.4796,-0.3477,0.0,0.0,0.0,0.0,0.0,0.0,0.0,0.0,-0.4089,-0.5569,-0.6423,-0.7924,0.0,0.0,0.0,0.0,0.0,0.0,0.0,0.0,0.0,0.0,0.0,0.0,0.0,0.0,0.0,0.0,0.0,0.0,0.0,0.0,0.0,0.0,0.0,0.76,0.6239,0.6401,0.4452,0.1606,-0.0911,-0.2885,-0.4902,-0.7861,-0.9038,-0.9601,-1.0339,-1.1629,-1.2882,-1.3463,0.0,0.0,-1.6396,-1.6242,-1.6057,-1.6506,-1.6884,0.0,-1.7418,-1.7753,-1.8316,-1.92,-1.9874,-2.0232,-2.0128,-2.2029,-2.3344,-2.328,-2.4274,-2.5114,-2.5522,-2.555,-2.5551,-2.5544,-2.5591,-2.5616,-2.5654,-2.5654,-2.5671,-2.5703,-2.5671,-2.5635,-2.5601,-2.5641,-2.5629,-2.5596,-2.5674,-2.5703,-2.5703,-2.5703,-2.5703,-2.5703,-2.5703,-2.5703,-2.5703,-2.5703,-2.5703,-2.5703,-2.5703,-2.5703,-2.5703,0.0,0.0,0.0,0.0,0.0,0.0,0.0,0.1879,0.1667,0.0037,-0.1477,-0.3303,-0.5672,-0.4787,-0.329,0.0,0.0,0.0,0.0,0.0,0.0,0.0,0.0,0.0,-0.7909,0.0,0.0,0.0,0.0,0.0,0.0,0.0,0.0,0.0,0.0,0.0,0.0,0.0,0.0,0.0,0.0,-1.0088,0.0,0.0,0.0,0.0,0.0,0.0,0.0,0.0,0.8008,0.8459,0.8433,0.6919,0.4637,0.1942,-0.0789,-0.3546,-0.6385,-0.7598,-0.8287,-0.918,-1.0677,-1.2182,-1.3163,-1.4331,0.0,-1.6062,-1.5699,-1.5447,-1.6079,-1.6198,-1.6419,0.0,-1.7287,-1.7681,-1.8555,-1.8748,-1.881,-1.8871,-2.064,0.0,-2.2373,-2.3587,-2.4595,-2.5255,-2.5327,-2.5422,-2.5606,-2.5671,-2.5703,-2.5703,-2.5703,-2.5703,-2.5703,-2.5693,-2.5647,-2.5596,-2.5648,-2.5653,-2.5598,-2.5672,-2.5703,-2.5703,-2.5703,-2.5703,-2.5703,-2.5703,-2.5703,-2.5703,-2.5703,-2.5703,-2.5703,-2.5703,-2.5703,-2.5703,0.0,0.0,0.0,0.0,0.0,0.0,0.0,0.2075,0.1636,-0.0451,-0.1697,-0.3406,-0.605,-0.5419,-0.4005,0.0,0.0,0.0,0.0,0.0,0.0,0.0,0.0,0.0,0.0,0.0,0.0,0.0,0.0,0.0,0.0,0.0,0.0,0.0,0.0,-0.8786,0.0,0.0,0.0,0.0,0.0,0.0,0.0,0.0,0.0,0.0,0.0,0.0,0.0,0.0,0.0,0.7107,0.7146,0.723,0.6691,0.3538,0.0,0.0,-0.3883,-0.538,-0.6053,-0.7461,-0.9606,-1.1541,-1.219,0.0,-1.499,-1.5191,-1.517,-1.5137,-1.5223,-1.523,-1.5584,-1.6673,-1.6364,-1.636,-1.7471,-1.7127,-1.688,-1.7172,0.0,0.0,-2.1415,-2.2508,-2.3474,-2.4265,-2.4436,-2.4859,-2.5651,-2.5703,-2.5703,-2.5703,-2.5703,-2.5703,-2.5703,-2.5644,-2.5615,-2.5602,-2.5611,-2.5611,-2.5598,-2.5673,-2.5703,-2.5703,-2.5703,-2.5703,-2.5703,-2.5703,-2.5703,-2.5703,-2.5703,-2.5703,-2.5703,-2.5703,-2.5703,-2.5703,0.0,0.0,0.0,0.0,0.0,0.0,0.1413,0.2335,0.2022,-0.0738,-0.1691,-0.3345,-0.6651,-0.6751,-0.5437,-0.2572,0.0,0.0,0.0,0.0,0.0,0.0,0.0,0.0,0.0,0.0,0.0,-1.2318,-1.2864,0.0,0.0,0.0,0.0,0.0,0.0,-0.967,-1.0212,0.0,0.0,0.0,0.0,0.0,0.0,0.0,0.0,0.0,0.0,0.0,0.0,0.0,0.0,0.0,0.6195,0.5328,0.0,0.0,0.3371,0.1645,-0.2096,-0.3516,-0.4506,-0.6798,-0.8952,-1.0782,-1.1842,-1.3355,-1.4543,-1.4607,-1.4625,-1.4626,-1.4622,-1.4622,-1.5108,-1.6556,-1.5931,-1.55,-1.6199,-1.5414,-1.4747,-1.4671,-1.6436,-1.8165,-1.9471,-2.122,-2.2811,-2.4101,-2.4323,-2.4756,-2.5596,-2.5684,-2.5703,-2.5703,-2.5185,-2.4922,-2.4922,-2.4414,-2.4141,-2.4102,-2.4627,-2.4861,-2.4841,-2.5431,-2.5703,-2.5703,-2.5703,-2.5703,-2.5703,-2.5703,-2.5703,-2.5703,-2.5703,-2.5703,-2.5703,-2.5703,-2.5703,-2.5703,0.0,0.0,0.0,0.0,0.0,0.0729,0.0994,0.2002,0.1616,-0.1457,-0.2254,-0.3841,-0.7297,-0.7665,-0.6462,-0.3448,-0.1254,0.0,0.0,0.0,0.0,0.0,0.0,0.0,0.0,0.0,-1.0136,-1.1059,-1.1694,-1.1365,0.0,0.0,-1.0439,-0.9749,0.0,0.0,0.0,0.0,0.0,0.0,0.0,0.0,0.0,0.0,0.0,0.0,0.0,0.0,0.0,0.0,0.0,0.0,0.0,0.0,0.0,0.0,0.3789,0.2204,-0.012,-0.1495,-0.2888,-0.542,-0.7763,-0.981,-1.1234,-1.2803,-1.3993,-1.4195,-1.4249,-1.4216,-1.4141,-1.412,-1.4558,-1.5883,-1.523,-1.4347,-1.3765,-1.2298,-1.1383,-1.1607,-1.3133,-1.5234,-1.7991,-2.0371,-2.2327,-2.3764,-2.3961,-2.449,-2.5566,-2.5674,-2.5576,-2.5322,-2.4717,-2.4277,-2.4023,-2.3467,-2.3174,-2.3105,-2.3984,-2.4379,-2.4364,-2.5283,-2.5703,-2.5703,-2.5703,-2.5703,-2.5703,-2.5703,-2.5703,-2.5703,-2.5703,-2.5703,-2.5703,-2.5703,-2.5703,-2.5703,0.0,0.0,0.0,0.0,0.0,0.0,0.0367,0.0813,0.0088,-0.2805,-0.3645,-0.5074,-0.7975,-0.788,-0.6779,-0.4753,-0.2438,0.0,0.0,0.0,0.0,0.0,0.0,0.0,0.0,0.0,-0.9048,-0.9334,-0.9542,-0.9498,-0.9236,-0.9704,-0.9797,-0.9638,0.0,0.0,0.0,0.0,0.0,0.0,0.0,0.0,0.0,0.0,0.0,0.0,0.0,0.0,0.0,0.0,0.0,0.0,0.0,0.0,0.0,0.0,0.3401,0.2608,0.2256,0.0807,-0.1067,-0.2889,-0.5759,-0.8536,-1.0144,-1.1858,-1.3308,-1.3966,-1.4096,-1.4018,-1.376,-1.371,-1.3862,-1.4348,-1.4077,-1.278,-0.9775,-0.7396,-0.6529,-0.7988,-0.8872,-1.1632,-1.7344,-2.0145,-2.2022,-2.3041,-2.3116,-2.3872,-2.5605,-2.5703,-2.5303,-2.4443,-2.4404,-2.3994,-2.3115,-2.3174,-2.3174,-2.3105,-2.3984,-2.4404,-2.4433,-2.5303,-2.5703,-2.5703,-2.5703,-2.5703,-2.5703,-2.5703,-2.5703,-2.5703,-2.5703,-2.5703,-2.5703,-2.5703,-2.5703,-2.5703,0.0,0.0,0.0,0.0,0.0,0.0,0.0,0.0529,-0.0117,-0.2967,-0.3454,-0.4674,-0.7692,-0.7519,-0.6494,-0.4753,-0.2495,0.0,0.0,0.0,0.0,0.0,0.0,0.0,0.0,0.0,-0.6959,-0.678,-0.6729,-0.6607,-0.6425,-0.7707,-0.8567,-0.8998,-0.9472,0.0,0.0,0.0,0.0,0.0,0.0,0.0,0.0,0.0,0.0,0.0,0.0,0.0,0.0,0.0,0.0,0.0,0.0,0.0,0.0,0.0,0.0,0.0,0.2791,0.1194,-0.0915,-0.3868,-0.6043,-0.8032,-1.0156,-1.1694,-1.2816,-1.3261,-1.349,-1.3595,-1.3514,-1.3352,-1.3546,-1.4521,-1.3572,-1.1031,-0.6289,-0.4835,-0.4355,-0.4583,-1.0532,-1.5764,-1.8656,-1.9876,-2.0918,-2.1934,-2.2601,-2.3481,-2.468,-2.474,-2.4639,-2.4414,-2.3818,-2.3115,-2.2285,-2.1709,-2.1406,-2.1396,-2.2266,-2.2998,-2.3613,-2.4434,-2.511,-2.5628,-2.5678,-2.5648,-2.5564,-2.5661,-2.5647,-2.5567,-2.5661,-2.5674,-2.5644,-2.5684,-2.5703,-2.5703,0.0,0.0,0.0,0.0,0.0,0.0,0.0,-0.0343,-0.0978,-0.3223,-0.3585,-0.455,-0.6954,-0.6756,-0.589,-0.4571,-0.2771,0.0,0.0,0.0,0.0,0.0,0.0,0.0,0.0,-0.5121,-0.447,-0.3567,-0.3486,-0.3734,-0.4352,-0.6063,-0.7481,-0.8535,-0.9342,-1.032,0.0,0.0,0.0,0.0,0.0,0.0,0.0,0.0,0.0,0.0,0.0,0.0,0.0,0.0,0.0,0.0,0.0,0.0,0.0,0.0,-0.3488,-0.0346,0.0,-0.0257,-0.1756,-0.4131,-0.5894,-0.7649,-0.977,-1.1314,-1.2442,-1.3032,-1.3425,-1.3748,-1.4038,-1.3883,-1.4093,-1.5216,-1.4189,-1.1147,-0.513,-0.3584,-0.3179,-0.3418,-1.0816,-1.6788,-1.9066,-1.9647,-2.034,-2.1423,-2.2091,-2.2859,-2.3796,-2.3847,-2.373,-2.3467,-2.293,-2.2246,-2.1416,-2.0869,-2.0596,-2.0605,-2.1464,-2.2146,-2.2714,-2.3847,-2.4639,-2.5126,-2.5464,-2.5584,0.0,-2.5588,-2.5584,-2.5513,-2.5617,-2.5644,-2.5605,-2.5684,-2.5703,-2.5654,0.0,0.0,0.0,0.0,0.0,0.0,0.0,-0.165,-0.2306,-0.3524,-0.3988,-0.4657,-0.5843,-0.566,-0.5108,-0.4252,0.0,0.0,0.0,0.0,0.0,0.0,0.0,0.0,0.0,-0.2899,-0.1597,0.0115,0.0026,-0.0936,-0.2775,-0.465,-0.6475,-0.8204,-0.9603,-1.0551,0.0,0.0,0.0,0.0,0.0,0.0,0.0,0.0,0.0,0.0,0.0,0.0,0.0,0.0,0.0,0.0,0.0,0.0,0.0,0.0,0.0,0.0,0.0,-0.3421,-0.3599,-0.4272,-0.5762,-0.7544,-0.926,-1.0863,0.0,-1.3222,-1.3787,-1.4335,-1.5095,-1.5053,-1.5225,-1.6217,-1.5549,-1.2557,-0.5813,-0.3447,-0.2871,-0.4136,-1.0021,-1.5278,-1.8624,-1.9374,-2.0124,-2.1278,-2.1559,-2.2062,-2.2949,-2.3003,-2.2656,-2.1924,-2.1836,-2.1416,-2.0605,-2.0605,-2.0594,-2.0604,-2.1346,-2.1725,-2.1851,-2.3465,-2.4243,-2.4345,-2.5153,-2.5485,-2.5488,-2.55,-2.5503,-2.5502,-2.5568,-2.5599,-2.5604,-2.5605,-2.5605,-2.5478,0.0,0.0,0.0,0.0,0.0,0.0,0.0,0.0,0.0,0.0,-0.3933,-0.4397,-0.4687,-0.4815,-0.4631,0.0,0.0,0.0,0.0,0.0,0.0,0.0,0.0,0.0,-0.2302,0.0071,0.1903,0.309,0.2208,0.1136,-0.0145,-0.2727,-0.5184,-0.7488,-0.8791,-1.0741,0.0,0.0,0.0,0.0,0.0,0.0,0.0,0.0,0.0,0.0,-0.2535,-0.2993,0.0,0.0,0.0,0.0,0.0,0.0,0.0,0.0,-1.2284,-1.1784,-1.0292,0.0,-0.6563,-0.9078,-0.9249,-0.9256,0.0,-1.2067,-1.2924,-1.3572,0.0,0.0,-1.5353,-1.5164,-1.5202,-1.6096,-1.4989,-1.1784,-0.5414,-0.3335,-0.314,-0.4915,-1.0774,-1.5393,-1.7239,-1.8421,-1.9376,-2.0072,-2.0908,-2.1579,-2.2013,-2.2031,-2.1991,-2.1904,-2.125,-2.081,-2.0596,-2.0552,-2.052,-2.053,-2.0662,-2.1074,-2.1756,-2.2819,-2.3638,-2.4275,-2.5129,-2.5438,-2.5348,-2.5457,-2.5476,-2.5444,-2.5553,-2.5599,-2.5524,-2.4926,-2.4707,-2.459,0.0,0.0,0.0,0.0,0.0,0.0,0.0,0.0,0.0,0.0,0.0,0.0,0.0,0.0,0.0,0.0,0.0,0.0,0.0,0.0,0.0,0.0,0.0,-0.1039,-0.0713,0.1832,0.3578,0.4427,0.389,0.2591,0.0558,-0.2247,-0.4858,-0.7295,-0.9376,-1.1813,0.0,0.0,0.0,0.0,0.0,0.0,0.0,0.0,0.0,0.0,-0.1384,-0.2497,0.0,-0.552,-0.7386,-0.9208,0.0,0.0,0.0,0.0,-1.3733,-1.3759,-1.3356,-1.0992,-0.9048,-1.0748,-1.0768,-1.0677,-1.1901,0.0,0.0,0.0,0.0,0.0,0.0,0.0,-1.5809,-1.6502,-1.5396,-1.2417,-0.6629,-0.4402,-0.4164,-0.6294,-1.0619,-1.4302,-1.6561,-1.7611,-1.8607,-1.967,-2.0341,-2.0824,-2.1087,-2.1101,-2.1165,-2.1299,-2.0821,-2.0548,-2.0548,-2.0524,-2.0475,-2.0446,-2.0383,-2.0595,-2.1097,-2.234,-2.3148,-2.361,-2.4485,-2.4822,-2.4716,-2.4399,-2.4235,-2.4216,-2.4349,-2.4409,-2.4356,-2.3951,-2.3799,-2.3689,0.0,0.0,0.0,0.0,0.0,0.0,0.0,0.0,0.0,0.0,0.0,0.0,0.0,0.0,0.0,0.0,0.0,0.0,0.0,0.0,0.0,0.0,0.0,-0.0438,0.0768,0.3109,0.4552,0.506,0.5055,0.3561,0.0638,-0.2168,-0.4972,-0.7738,-1.0807,-1.3322,0.0,0.0,0.0,0.0,0.0,0.0,0.0,0.0,0.0,0.0,0.0,0.0,0.0,-0.5782,-0.7756,-0.9653,-1.0581,0.0,0.0,0.0,0.0,0.0,-1.468,-1.3122,-1.1456,-1.1352,-1.1567,-1.1956,-1.2565,0.0,0.0,0.0,0.0,0.0,0.0,-1.6258,0.0,-1.6895,-1.5693,-1.3069,-0.8398,-0.6144,-0.5752,-0.7931,-1.0268,-1.2925,-1.6076,-1.6797,-1.7799,-1.9606,-1.9768,-1.9973,-2.0381,-2.0399,-2.046,-2.058,-2.0529,-2.0485,-2.0465,-2.0465,-2.0437,-2.0379,-2.0331,-2.0302,-2.035,-2.1898,-2.2601,-2.2649,-2.3523,-2.3898,-2.3841,-2.31,-2.2811,-2.2828,-2.2937,-2.2999,-2.2999,-2.2917,-2.289,-2.2784,0.0,0.0,0.0,0.0,0.0,0.0,0.0,0.0,0.0,0.0,0.0,0.0,0.0,0.0,0.0,0.0,0.0,0.0,0.0,0.0,0.0,-0.1579,-0.0324,0.0748,0.1681,0.4905,0.6479,0.625,0.5298,0.3898,0.2033,-0.1126,-0.5023,-0.9537,-1.2846,-1.4731,-1.5488,0.0,0.0,0.0,0.0,0.0,0.0,0.0,0.0,0.0,0.0,0.0,0.0,-0.558,-0.7679,-0.975,-1.1247,0.0,0.0,0.0,0.0,0.0,-1.502,-1.4822,-1.4457,-1.3831,-1.3424,-1.3284,-1.361,0.0,0.0,0.0,0.0,0.0,0.0,-1.5823,-1.5864,-1.6263,-1.391,-1.1247,-0.9062,-0.8053,-0.8015,-0.9271,-1.0761,-1.2682,-1.5176,-1.5745,-1.6925,-1.9279,-1.9068,-1.9288,-2.0342,-2.0399,-2.0437,-2.0515,-2.0513,-2.0446,-2.0331,-2.0331,-2.0331,-2.0321,-2.0302,-2.0302,-2.0331,-2.1273,-2.1696,-2.1754,-2.262,-2.2995,-2.2985,-2.286,-2.283,-2.2896,-2.2911,-2.2979,-2.2991,-2.2201,-2.1948,-2.1874,0.0,0.0,0.0,0.0,0.0,0.0,0.0,0.0,0.0,0.0,0.0,0.0,0.0,0.0,0.0,0.0,0.0,0.0,0.0,0.0,0.0,-0.1077,0.07,0.2062,0.2972,0.5474,0.6468,0.579,0.4955,0.3456,0.1265,-0.3553,-0.7746,-1.1364,-1.3591,-1.4894,-1.5497,-1.6126,0.0,0.0,0.0,0.0,0.0,0.0,0.0,0.0,0.0,0.0,0.0,0.0,-0.8564,-1.1041,-1.2157,0.0,0.0,0.0,0.0,0.0,-1.5098,-1.5197,-1.5197,-1.4795,-1.4223,-1.3765,-1.3697,0.0,0.0,0.0,0.0,0.0,0.0,0.0,-1.4543,-1.3957,-1.2106,-1.0402,-0.9398,-0.912,-0.9337,-1.0146,-1.1201,-1.2691,-1.4786,-1.5259,-1.6224,-1.8128,-1.8538,-1.8998,-1.9662,-2.0139,-2.0409,-2.0437,-2.0403,-2.036,-2.0302,-2.0302,-2.0302,-2.0302,-2.0302,-2.0302,-2.0331,-2.1129,-2.1504,-2.1523,-2.1918,-2.21,-2.2062,-2.1629,-2.1466,-2.1503,-2.1503,-2.1526,-2.1529,-2.1097,-2.0988,-2.0978,0.0,0.0,0.0,0.0,0.0,0.0,0.0,0.0,0.0,0.0,0.0,0.0,0.0,0.0,0.0,0.0,0.0,0.0,0.0,0.0,-0.2859,-0.0495,0.1518,0.3082,0.4189,0.5894,0.6341,0.5425,0.4684,0.2535,-0.0974,-0.6487,-1.0301,-1.2612,-1.4015,-1.4856,-1.5263,-1.5792,-1.5579,0.0,0.0,0.0,0.0,0.0,0.0,0.0,0.0,0.0,0.0,0.0,0.0,0.0,0.0,0.0,0.0,-1.4363,-1.4566,-1.4796,-1.4779,-1.4999,-1.5129,-1.4686,0.0,-1.411,-1.3748,-1.3578,0.0,0.0,0.0,0.0,0.0,-1.3777,-1.3362,-1.2021,-1.1023,-1.0248,-0.9753,-0.9864,-1.0259,-1.0943,-1.1736,-1.2924,-1.4725,-1.4994,-1.5701,-1.7253,-1.808,-1.8686,-1.9083,-1.9929,-2.0389,-2.0381,-2.0327,-2.0302,-2.0302,-2.0302,-2.0302,-2.0302,-2.0302,-2.0302,-2.0321,-2.0946,-2.1225,-2.1225,-2.1225,-2.1225,-2.1168,-2.0552,-2.0302,-2.0302,-2.0302,-2.0302,-2.0302,-2.0302,-2.0331,-2.0369,0.0,0.0,0.0,0.0,0.0,0.0,0.0,0.0,0.0,0.0,0.0,0.0,0.0,0.0,0.0,0.0,0.0,0.0,0.0,0.0,-0.2592,0.0383,0.1962,0.3507,0.5076,0.6758,0.7119,0.6123,0.4897,0.1146,-0.4952,-0.8454,-1.101,-1.2757,-1.4543,-1.5106,-1.4778,-1.5263,-1.5074,0.0,0.0,0.0,0.0,0.0,0.0,0.0,0.0,0.0,0.0,0.0,0.0,0.0,0.0,0.0,-1.3593,-1.3648,-1.3779,-1.3882,-1.3823,-1.4399,-1.4705,-1.3392,-1.3952,0.0,-1.426,-1.3808,0.0,-1.3576,0.0,0.0,0.0,-1.3533,-1.2868,-1.1718,-1.1256,-1.084,-1.0313,-1.0462,-1.0959,-1.1803,-1.2506,-1.3523,-1.503,-1.4853,-1.5468,-1.7435,-1.7651,-1.8103,-1.9052,-1.9932,-2.0372,-2.0313,-2.03,-2.0302,-2.0302,-2.0302,-2.0302,-2.0302,-2.0302,-2.0302,-2.0302,-2.036,-2.0389,-2.0389,-2.0389,-2.0389,-2.0379,-2.0321,-2.0302,-2.0302,-2.0302,-2.0302,-2.0302,-2.0302,-2.0302,-2.0312,0.0,0.0,0.0,0.0,0.0,0.0,0.0,0.0,0.0,0.0,0.0,0.0,0.0,0.0,0.0,0.0,0.0,0.0,0.0,-0.4576,-0.3071,-0.0256,0.2255,0.4719,0.7136,0.7641,0.7545,0.6819,0.3043,-0.1488,-0.6652,-0.8857,-1.0751,-1.2331,-1.2685,-1.2779,-1.2698,-1.3539,-1.3643,-1.3075,0.0,0.0,0.0,0.0,0.0,0.0,0.0,0.0,0.0,0.0,-1.094,-1.2602,-1.344,-1.3036,-1.2372,-1.2941,-1.293,-1.2743,-1.2707,-1.3284,-1.3671,-1.2809,-1.3691,0.0,0.0,-1.1901,-1.2094,-1.236,-1.3168,0.0,-1.3841,-1.3285,-1.2593,-1.191,-1.1472,-1.1145,-1.0945,-1.1409,-1.1967,-1.2561,-1.3215,-1.3944,-1.4754,-1.4839,-1.5181,-1.598,-1.7089,-1.7872,-1.8213,-1.9103,-1.975,-2.0105,-1.9628,-1.9563,-1.9982,-1.9991,-1.9991,-1.9991,-2.0198,-2.0302,-2.0302,-2.0302,-2.0302,-2.0302,-2.0302,-2.0302,-2.0302,-2.0302,-2.0302,-2.0302,-2.0302,-2.0302,-2.0302,-2.0302,-2.0302,-2.0302,0.0,0.0,0.0,0.0,0.0,0.0,0.0,0.0,0.0,0.0,0.0,0.0,0.0,0.0,0.0,0.0,0.0,0.0,-0.4935,-0.4879,-0.3601,-0.0965,0.1829,0.4864,0.8199,0.8096,0.7851,0.7549,0.2157,-0.2326,-0.5895,-0.7732,-0.9373,-1.073,-1.0477,-1.0564,-1.0971,-1.1825,-1.2117,-1.1977,-1.1285,-0.9752,0.0,0.0,0.0,0.0,0.0,0.0,0.0,0.0,-1.1602,-1.2756,-1.289,-1.2116,-1.1284,-1.1774,-1.187,-1.1803,-1.1757,-1.2448,-1.2992,0.0,0.0,0.0,-0.7743,-0.9235,-1.1111,-1.0583,-1.2184,-1.3741,-1.3948,-1.342,-1.2841,-1.2464,-1.2075,-1.1805,-1.1805,-1.2391,-1.2933,-1.3298,-1.386,-1.436,-1.4719,-1.4935,-1.5183,-1.5459,-1.6923,-1.7737,-1.7606,-1.8525,-1.9195,-1.9544,-1.9021,-1.9075,-1.979,-1.98,-1.98,-1.98,-2.0031,-2.0153,-2.0215,-2.0277,-2.0302,-2.0302,-2.0302,-2.0302,-2.0302,-2.0302,-2.0302,-2.0302,-2.0302,-2.0302,-2.0302,-2.0302,-2.0302,-2.0302,0.0,0.0,0.0,0.0,0.0,0.0,0.0,0.0,0.0,0.0,0.0,0.0,0.0,0.0,0.0,0.0,0.0,0.0,-0.4944,-0.5115,-0.4066,-0.1536,0.0497,0.3571,0.7851,0.7976,0.8078,0.828,0.2736,-0.0824,-0.2524,-0.4998,-0.6733,-0.7764,-0.8107,-0.8851,-0.9886,-1.0231,-1.0599,-1.0968,-1.0911,-1.014,0.0,0.0,0.0,0.0,0.0,0.0,0.0,0.0,-1.2478,-1.3476,-1.2262,-1.1229,-1.0409,-1.0084,-1.0555,-1.1144,-1.1016,-1.1982,-1.2743,0.0,0.0,0.0,-0.0685,-0.5949,-1.0791,-0.8328,-1.0693,-1.3437,-1.4245,-1.4022,-1.3622,-1.3344,-1.3073,-1.2908,-1.2916,-1.3367,-1.3811,-1.4076,-1.4457,-1.4815,-1.5067,-1.516,-1.5503,-1.6237,-1.7215,-1.7669,-1.7407,-1.8345,-1.8793,-1.8585,-1.8595,-1.8971,-1.9781,-1.979,-1.98,-1.98,-1.98,-1.9869,-2.0012,-2.0215,-2.0294,-2.0302,-2.0302,-2.0302,-2.0302,-2.0302,-2.0302,-2.0302,-2.0302,-2.0302,-2.0302,-2.0302,-2.0302,-2.0302,0.0,0.0,0.0,0.0,0.0,0.0,0.0,0.0,0.0,0.0,0.0,0.0,0.0,0.0,0.0,0.0,0.0,0.0,-0.4675,-0.5107,-0.4444,-0.248,-0.096,0.1058,0.3646,0.5784,0.6786,0.6613,0.3827,0.1605,-0.0074,-0.1657,-0.3265,-0.4853,-0.5094,-0.6053,-0.7553,-0.833,-0.9186,-1.0057,-1.0339,-1.0187,0.0,0.0,0.0,0.0,0.0,0.0,0.0,0.0,0.0,0.0,-1.1468,-1.0161,-0.8949,-0.8884,-0.9006,-0.9166,-0.9223,-0.8181,0.0,-0.5343,0.0,0.0,0.0,-0.1001,0.0,0.0,-1.1223,-1.3253,-1.4342,-1.4346,-1.4143,-1.3957,-1.3785,-1.3669,-1.3667,-1.4055,-1.44,-1.4573,-1.4742,-1.4907,-1.5085,-1.5034,-1.5306,-1.61,-1.6437,-1.6828,-1.7297,-1.7075,-1.7141,-1.7596,-1.7562,-1.7894,-1.8596,-1.9302,-1.9591,-1.9453,-1.9783,-1.9964,-2.0003,-2.0059,-2.017,-2.0302,-2.0302,-2.0302,-2.0302,-2.0302,-2.0302,-2.0302,-2.0302,-2.0302,-2.0302,-2.0302,-2.0302,-2.0302,0.0,0.0,0.0,0.0,0.0,0.0,0.0,0.0,0.0,0.0,0.0,0.0,0.0,0.0,0.0,0.0,0.0,0.0,0.0,-0.5281,-0.5083,-0.3797,-0.2681,-0.1004,0.1329,0.4363,0.5981,0.6099,0.5423,0.4773,0.4135,0.212,0.0193,-0.165,-0.249,-0.3986,-0.5947,-0.6799,-0.7798,-0.8884,-0.9496,-0.9937,-1.0117,0.0,0.0,0.0,0.0,0.0,0.0,0.0,0.0,0.0,-1.1162,-1.0022,-0.8955,-0.8071,-0.7655,-0.7344,-0.6756,-0.5091,0.0,-0.0676,0.0431,0.1636,0.4246,0.0,0.0,-0.7743,-1.0535,-1.2473,-1.387,-1.4208,-1.4261,-1.4217,-1.4129,-1.4082,-1.4074,-1.4398,-1.4671,-1.4751,-1.4843,-1.4934,-1.501,-1.4948,-1.5204,-1.5957,-1.6063,-1.6271,-1.6636,-1.6258,-1.6209,-1.6594,-1.6559,-1.691,-1.7706,-1.8302,-1.8728,-1.8998,-1.9271,-1.9611,-2.0003,-2.0078,-2.0188,-2.0302,-2.0302,-2.0302,-2.0302,-2.0302,-2.0302,-2.0273,-1.9917,-2.0004,-2.0264,-1.9908,-2.0004,-2.0302,0.0,0.0,0.0,0.0,0.0,0.0,0.0,0.0,0.0,0.0,0.0,0.0,0.0,0.0,0.0,0.0,0.0,0.0,0.0,0.0,-0.5722,-0.5249,-0.4597,-0.293,-0.0072,0.3173,0.5343,0.6394,0.7251,0.8159,0.9048,0.5976,0.3504,0.1578,-0.0375,-0.2585,-0.4909,-0.5714,-0.668,-0.7775,-0.864,-0.9572,-1.0393,-1.0082,0.0,0.0,0.0,0.0,0.0,0.0,0.0,0.0,-1.1299,-1.0598,-1.0049,-0.7791,-0.665,-0.5728,-0.3794,-0.2373,0.0,0.2933,0.4685,0.0,0.6334,0.2893,-0.1659,-0.6017,-0.892,-1.1197,-1.2944,-1.3666,-1.4042,-1.416,-1.4177,-1.4189,-1.4209,-1.4477,-1.4662,-1.4655,-1.4758,-1.4828,-1.4831,-1.4832,-1.5113,-1.5796,-1.592,-1.588,-1.5717,-1.5746,-1.5722,-1.5594,-1.5655,-1.6116,-1.6959,-1.7067,-1.7541,-1.8367,-1.8412,-1.8942,-1.9898,-2.0159,-2.0277,-2.0302,-2.0302,-2.0302,-2.0302,-2.0302,-2.0302,-2.0215,-1.9338,-1.9482,-2.009,-1.929,-1.9494,-2.0196,0.0,0.0,0.0,0.0,0.0,0.0,0.0,0.0,0.0,0.0,0.0,0.0,0.0,0.0,0.0,0.0,0.0,0.0,0.0,0.0,-0.5471,-0.536,-0.635,-0.6194,-0.4701,-0.0297,0.3437,0.6402,0.8088,0.9263,0.9904,0.7992,0.585,0.3455,0.0507,-0.1957,-0.3927,-0.5647,-0.6901,-0.78,-0.9032,-0.9966,-1.0687,-1.1065,-1.1541,0.0,0.0,0.0,0.0,0.0,0.0,0.0,-1.1575,-1.1206,-1.0879,-0.9322,-0.7383,-0.4888,-0.099,0.144,0.0,0.0,0.793,0.7134,0.5804,0.3097,-0.0152,-0.3853,-0.6921,-0.9633,-1.1896,-1.2809,-1.3408,-1.3961,-1.404,-1.4127,-1.4328,-1.438,-1.439,-1.4398,-1.4316,-1.4268,-1.4268,-1.4323,-1.4678,-1.5455,-1.5101,-1.5095,-1.5677,-1.5131,-1.4791,-1.4765,-1.5371,-1.58,-1.5999,-1.6842,-1.7309,-1.7403,-1.7718,-1.8289,-1.9087,-1.9754,-2.0152,-2.0302,-2.0302,-2.0302,-2.0302,-2.0302,-2.0302,-2.0215,-1.9338,-1.9107,-1.9261,-1.9071,-1.9119,-1.9386,0.0,0.0,0.0,0.0,0.0,0.0,0.0,0.0,0.0,0.0,0.0,0.0,0.0,0.0,0.0,0.0,0.0,0.0,0.0,-0.495,-0.5571,-0.5907,-0.6707,-0.6461,-0.5078,-0.0976,0.2541,0.5396,0.8183,0.9913,1.0595,0.9014,0.6981,0.4546,0.1585,-0.0883,-0.2903,-0.485,-0.6227,-0.7192,-0.8405,-0.9586,-1.0663,-1.1168,-1.1716,-1.219,-1.2125,0.0,0.0,0.0,0.0,0.0,0.0,0.0,-1.1709,-0.9623,-0.679,-0.3556,-0.0028,0.0,0.0,0.8535,0.0,0.7016,0.5757,0.3974,0.1652,-0.1639,-0.5273,-0.8468,-1.0401,-1.1566,-1.2379,-1.2824,-1.3163,-1.3431,-1.3576,-1.3786,-1.3913,-1.3913,-1.3961,-1.4038,-1.4147,-1.4087,-1.4311,-1.4923,-1.459,-1.4581,-1.5105,-1.4738,-1.4497,-1.4497,-1.4912,-1.5159,-1.5221,-1.5784,-1.6279,-1.6714,-1.6923,-1.747,-1.8315,-1.9577,-2.0197,-2.0302,-2.0302,-2.0302,-2.0273,-1.9852,-1.9686,-1.9552,-1.8289,-1.8039,-1.8386,-1.8379,-1.8638,-1.9061,0.0,0.0,0.0,0.0,0.0,0.0,0.0,0.0,0.0,0.0,0.0,0.0,0.0,0.0,0.0,0.0,0.0,0.0,0.0,-0.4917,-0.5675,-0.635,-0.6506,-0.5792,-0.4074,-0.0657,0.2137,0.4252,0.7978,1.0241,1.1026,0.9362,0.7471,0.5326,0.2546,0.0184,-0.1864,-0.3925,-0.5415,-0.6445,-0.7674,-0.8983,-1.0296,-1.088,-1.1424,-1.1861,-1.168,-1.1871,-1.2232,-1.2264,0.0,0.0,0.0,0.0,-1.2469,-1.029,-0.6709,-0.2861,-0.0026,0.0,0.7849,0.8045,0.7303,0.0,0.5857,0.4694,0.2917,0.0125,-0.3919,-0.7362,-0.8716,-1.0057,-1.1031,-1.1376,-1.1956,-1.2386,-1.2511,-1.2941,-1.3265,-1.3265,-1.3548,-1.3804,-1.3983,-1.3913,-1.3983,-1.4316,-1.4248,-1.427,-1.4432,-1.4476,-1.4497,-1.4497,-1.4497,-1.4547,-1.4657,-1.4697,-1.5151,-1.6026,-1.6211,-1.6711,-1.7512,-1.9106,-1.9844,-1.985,-1.985,-1.985,-1.9802,-1.9064,-1.8782,-1.8616,-1.7099,-1.6907,-1.7484,-1.7484,-1.7955,-1.8593,0.0,0.0,0.0,0.0,0.0,0.0,0.0,0.0,0.0,0.0,0.0,-0.1197,-0.2124,-0.1685,0.0,0.0,0.0,0.0,-0.3069,0.0,0.0,-0.5971,-0.6601,-0.6169,-0.4538,-0.1091,0.1823,0.4128,0.7946,1.0202,0.0,0.0,0.0,0.6353,0.2864,0.0585,-0.0802,-0.3667,-0.5376,-0.6288,-0.807,-0.8917,-0.9264,-1.0586,-1.0921,-1.0657,-1.0801,-1.0966,-1.1057,-1.0726,-1.121,0.0,0.0,0.0,-1.303,-1.3688,-1.0038,-0.4782,0.0,0.0,0.805,0.0,0.6883,0.6303,0.0,0.398,0.2151,0.0505,-0.2888,-0.5914,-0.7026,-0.8231,-0.9332,-1.0174,-1.0685,-1.1146,-1.1659,-1.2055,-1.2278,-1.2278,-1.2769,-1.3131,-1.3158,-1.3459,-1.367,-1.3715,-1.4011,-1.421,-1.4236,-1.4408,-1.4497,-1.4497,-1.4497,-1.4508,-1.4531,-1.4645,-1.4774,-1.4925,-1.586,-1.6368,-1.6518,-1.7517,-1.7995,-1.8052,-1.8052,-1.8052,-1.8042,-1.7917,-1.7869,-1.7779,-1.6859,-1.6571,-1.6657,-1.6657,-1.6724,-1.6926,0.0,0.0,0.0,0.0,0.0,0.0,0.0,0.0,0.0,0.0,0.0,-0.1287,-0.1895,-0.1465,0.0,0.0,0.0,0.0,-0.3462,-0.4277,0.0,0.0,-0.5888,-0.5356,-0.3844,-0.0479,0.2511,0.5046,0.8381,0.0,0.0,1.0003,0.8567,0.0,0.0,0.0,-0.0778,0.0,-0.5052,-0.6541,-0.7661,-0.8408,-0.8913,-0.9564,-0.9912,-1.009,-1.0171,-1.0217,-1.0294,-1.0307,-1.0698,-1.1254,-1.1589,0.0,0.0,0.0,-1.0467,-0.6308,-0.012,0.4375,0.7328,0.0,0.7126,0.6657,0.5961,0.445,0.2813,0.1524,-0.1046,-0.3528,-0.506,-0.646,-0.7587,-0.8168,-0.899,-0.9805,-1.0511,-1.1017,-1.1395,-1.1621,-1.2145,-1.244,-1.2295,-1.2865,-1.3224,-1.3164,-1.3586,-1.3904,-1.4033,-1.4123,-1.4162,-1.4162,-1.4162,-1.4223,-1.4329,-1.4395,-1.4512,-1.4707,-1.5243,-1.552,-1.5529,-1.5908,-1.6682,-1.7696,-1.7656,-1.7673,-1.7674,-1.7205,-1.7032,-1.6936,-1.6099,-1.5772,-1.583,-1.632,-1.6494,-1.6535,0.0,0.0,0.0,0.0,0.0,0.0,0.0,0.0,0.0,0.0,0.0,0.0,-0.1638,0.0,0.0,0.0,0.0,0.0,-0.3749,0.0,0.0,0.0,0.0,-0.484,-0.3223,0.015,0.3251,0.6006,0.0,0.0,1.2022,1.139,1.0203,0.0,0.6026,0.3149,0.0,0.0,0.0,-0.6169,-0.681,-0.7516,-0.8199,-0.8319,-0.878,-0.934,-0.9281,-0.9387,-0.9581,-0.9843,-1.0245,-1.0702,-1.0892,-1.164,0.0,0.0,0.0,0.0,0.0,0.0,0.585,0.7468,0.7549,0.7043,0.6291,0.5077,0.3733,0.2433,0.0702,-0.1064,-0.2629,-0.4348,-0.5754,-0.6399,-0.7456,-0.8505,-0.9283,-1.0031,-1.0535,-1.0694,-1.1276,-1.1594,-1.1388,-1.2104,-1.2588,-1.2616,-1.2951,-1.3236,-1.3377,-1.3496,-1.3562,-1.3562,-1.3784,-1.3969,-1.4114,-1.4114,-1.4255,-1.4502,-1.468,-1.4766,-1.4766,-1.4832,-1.5624,-1.6989,-1.6953,-1.6993,-1.7023,-1.6378,-1.6138,-1.6099,-1.5421,-1.5168,-1.5276,-1.5926,-1.6144,-1.6099,0.0,0.0,0.0,0.0,0.0,0.0,0.0,0.0,0.0,0.0,0.0,0.0,0.0,-0.0954,-0.0706,-0.0701,0.0,0.0,0.0,0.0,0.0,0.0,0.0,0.0,-0.3257,0.0346,0.3629,0.657,0.0,0.0,1.3215,1.2914,1.239,1.1511,0.8034,0.502,0.2366,0.0,0.0,0.0,-0.5511,-0.6133,-0.6571,-0.703,-0.7559,-0.807,-0.7891,-0.8271,-0.8866,-0.8866,-0.952,-1.0281,-1.006,-1.0528,-1.1296,0.0,0.0,0.0,0.0,0.1864,0.0,0.7324,0.7956,0.7396,0.6343,0.5498,0.4503,0.2986,0.1968,0.114,0.0485,-0.1592,-0.3728,-0.5389,-0.6358,-0.7212,-0.8143,-0.9195,-0.966,-0.9184,-0.9938,-1.0481,-1.0465,-1.1032,-1.159,-1.2101,-1.2042,-1.1982,-1.1999,-1.2428,-1.267,-1.267,-1.3473,-1.3913,-1.3927,-1.3927,-1.3918,-1.3946,-1.4271,-1.4432,-1.4434,-1.4619,-1.4823,-1.5053,-1.5103,-1.5206,-1.5324,-1.5151,-1.5155,-1.5251,-1.5078,-1.5088,-1.5209,-1.5247,-1.5194,-1.5078,0.0,0.0,0.0,0.0,0.0,0.0,0.0,0.0,0.0,0.0,0.0,0.0,0.0,-0.0066,-0.0032,-0.0649,-0.1307,0.0,0.0,0.0,0.0,0.0,0.0,0.0,0.0,-0.0403,0.3226,0.0,0.0,1.2588,1.381,1.3765,1.3234,1.2228,0.958,0.6698,0.3763,0.2182,0.0,-0.2681,-0.3486,-0.4123,-0.4726,-0.5735,-0.6519,-0.705,-0.726,-0.7656,-0.8161,-0.8629,-0.9189,-0.9686,-0.9848,-1.0429,-1.1228,-1.2135,-1.0531,-0.8017,0.0,0.0,0.0,0.3782,0.5957,0.7478,0.6684,0.599,0.5161,0.3869,0.2887,0.2026,0.1203,-0.0841,-0.2673,-0.3417,-0.4605,-0.5792,-0.6767,-0.7405,-0.7834,-0.8085,-0.856,-0.8951,-0.9152,-0.9648,-1.0058,-1.0293,-1.0547,-1.061,-1.042,-1.0752,-1.11,-1.1428,-1.1958,-1.2565,-1.326,-1.3515,-1.3636,-1.3651,-1.3944,-1.4152,-1.4262,-1.435,-1.4523,-1.4766,-1.4804,-1.4874,-1.5,-1.496,-1.4959,-1.5009,-1.4999,-1.5002,-1.5008,-1.5054,-1.5009,-1.4917,0.0,0.0,0.0,0.0,0.0,0.0,0.0,0.0,0.0,0.1036,0.0,0.0,0.0,0.0,0.0362,-0.1013,-0.1632,-0.2279,-0.3109,-0.3857,0.0,0.0,0.0,0.0,0.0,-0.1348,0.2452,0.5601,0.9578,0.0,0.0,1.3992,1.3586,1.2923,1.0916,0.8444,0.0,0.4803,0.2707,-0.0078,-0.0648,-0.1703,-0.2991,-0.3872,-0.4966,-0.6124,-0.6515,-0.7114,-0.7821,-0.8684,-0.9251,-0.9654,-0.9759,-1.0169,-1.0823,-1.1937,-1.0996,-0.9451,-0.8723,0.0,0.0,0.0,0.3946,0.6193,0.7092,0.6852,0.612,0.5033,0.4124,0.3198,0.2165,0.0459,-0.1111,-0.2054,-0.3048,-0.4182,-0.548,-0.6111,-0.6547,-0.6794,-0.7262,-0.7613,-0.7746,-0.8221,-0.8611,-0.8854,-0.9126,-0.9185,-0.8903,-0.924,-0.9808,-1.0639,-1.097,-1.1563,-1.2455,-1.2835,-1.3025,-1.3034,-1.3381,-1.3689,-1.3904,-1.3934,-1.4143,-1.4446,-1.4501,-1.4678,-1.4895,-1.485,-1.4859,-1.4894,-1.4899,-1.49,-1.4913,-1.495,-1.4909,-1.4813,0.0,0.0,0.0,0.0,0.0,0.0,0.0,0.0,0.2423,0.1884,0.0,0.0,0.0,0.0,0.0,-0.1821,-0.1922,-0.2372,-0.3645,-0.4515,0.0,0.0,0.0,0.0,0.0,-0.2385,0.1384,0.5518,0.9011,1.1962,1.4332,1.361,1.3426,1.3653,1.2042,1.0182,0.8239,0.8045,0.6123,0.3209,0.2916,0.1142,-0.1317,-0.1293,-0.2879,-0.5133,-0.5596,-0.6593,-0.7868,-0.8945,-0.976,-1.0241,-0.9787,-0.9732,-1.0028,-1.108,-1.186,-1.167,0.0,0.0,0.0,-0.0013,0.2077,0.3572,0.7474,0.8028,0.7458,0.6447,0.5645,0.4781,0.357,0.2524,0.1069,-0.1287,-0.1728,-0.2428,-0.4266,-0.5438,-0.5917,-0.5335,-0.6074,-0.6552,-0.6319,-0.6796,-0.7366,-0.7903,-0.7882,-0.7724,-0.7464,-0.795,-0.8878,-1.0269,-1.06,-1.1015,-1.156,-1.1887,-1.2089,-1.2081,-1.2617,-1.3021,-1.3286,-1.3421,-1.3636,-1.3904,-1.4101,-1.4446,-1.4868,-1.4747,-1.4776,-1.4877,-1.4756,-1.4776,-1.4895,-1.4886,-1.4804,-1.4688,0.0,0.0,0.0,0.0,0.0,0.4805,0.3379,0.3126,0.2831,0.0,0.0,0.0,0.2478,0.0929,-0.0632,-0.1888,-0.2637,-0.3452,-0.4436,-0.4723,-0.5485,-0.6873,-0.6805,-0.6857,-0.7134,-0.3516,0.0107,0.3648,0.7276,1.0402,1.2938,1.2743,1.2346,1.1777,1.1853,1.107,0.9692,0.9301,0.8007,0.6158,0.5602,0.4475,0.2979,0.1483,-0.0464,-0.2575,-0.3924,-0.5766,-0.7724,-0.891,-0.9869,-1.0639,-1.0849,-1.062,-1.0415,-1.1006,-1.1439,-1.1647,-1.1148,0.0,0.0,0.0,0.0,0.0,0.4911,0.7042,0.8504,0.7483,0.6661,0.5831,0.484,0.3462,0.2204,0.149,-0.0163,-0.1657,-0.2466,-0.3715,-0.4461,-0.4306,-0.4909,-0.5506,-0.5974,-0.58,-0.5974,-0.6717,-0.6564,-0.6341,-0.6066,-0.6739,-0.7489,-0.8275,-0.917,-0.9899,-1.0442,-1.1169,-1.152,-1.1527,-1.2061,-1.2441,-1.2679,-1.3143,-1.3456,-1.3628,-1.3864,-1.4144,-1.44,-1.4515,-1.4578,-1.4622,-1.4677,-1.4666,-1.4623,-1.4717,-1.4666,-1.4556,0.0,0.0,0.0,0.4976,0.5277,0.4924,0.3667,0.3428,0.3192,0.0,0.0,0.0,0.2976,0.1258,-0.0365,-0.1588,-0.2665,-0.3562,-0.4301,-0.4527,-0.5194,-0.6489,-0.6341,-0.652,-0.7157,-0.4361,-0.1137,0.2524,0.5624,0.8625,1.149,1.1299,1.0908,1.0331,1.0265,1.008,0.9844,0.9934,0.9436,0.8575,0.8569,0.7452,0.5682,0.4284,0.2084,-0.0529,-0.2618,-0.5005,-0.745,-0.9109,-1.0348,-1.1248,-1.152,-1.1156,-1.0749,-1.1406,-1.1466,-1.1493,-1.227,-1.1042,-0.9504,-0.927,0.0,0.0,0.34,0.5844,0.7657,0.8555,0.7929,0.6924,0.603,0.4564,0.3283,0.2621,0.1138,-0.0386,-0.1618,-0.2496,-0.3114,-0.3375,-0.3996,-0.4544,-0.4872,-0.4809,-0.4963,-0.5429,-0.5416,-0.537,-0.5328,-0.5885,-0.6445,-0.6983,-0.776,-0.8477,-0.9116,-0.9981,-1.0486,-1.0605,-1.1271,-1.1728,-1.1966,-1.2422,-1.2795,-1.3101,-1.3479,-1.3751,-1.3969,-1.4162,-1.4341,-1.4508,-1.4591,-1.4569,-1.4508,-1.4591,-1.4578,-1.4497,0.0,0.0,0.3645,0.5023,0.5409,0.5206,0.4309,0.3899,0.365,0.0,0.3832,0.3881,0.3366,0.2067,0.0557,-0.1155,-0.2243,-0.3116,-0.3776,-0.4156,-0.4719,-0.5557,-0.5782,-0.6047,-0.6361,-0.4977,-0.2297,0.1708,0.3993,0.6732,0.9801,0.9546,0.9324,0.9108,0.8018,0.8066,0.9017,1.0021,1.0372,1.0326,1.1303,1.0038,0.7521,0.7091,0.4818,0.1479,-0.1086,-0.3938,-0.6923,-0.9626,-1.121,-1.2075,-1.2132,-1.1659,-1.1262,-1.2118,-1.1833,0.0,-1.2228,-1.2466,-1.228,-1.1385,-0.9055,0.0,0.1907,0.4321,0.5933,0.8974,0.8887,0.7957,0.6997,0.5597,0.4209,0.3011,0.2297,0.109,-0.1242,-0.1698,-0.1995,-0.2531,-0.3301,-0.3729,-0.3527,-0.3933,-0.4228,-0.4289,-0.4529,-0.4753,-0.4991,-0.5238,-0.562,-0.6138,-0.6447,-0.6991,-0.776,-0.8624,-0.9182,-0.9422,-1.0325,-1.0889,-1.113,-1.1512,-1.1964,-1.2433,-1.3029,-1.3386,-1.3577,-1.3789,-1.4087,-1.4432,-1.4432,-1.4432,-1.4432,-1.4432,-1.4453,-1.4464,0.0,0.2402,0.3697,0.5332,0.5986,0.6185,0.5887,0.528,0.485,0.483,0.4639,0.4178,0.3401,0.1811,0.0252,-0.1185,-0.204,-0.3078,-0.448,-0.4228,-0.4469,-0.5557,-0.5341,-0.5484,-0.6063,-0.5169,-0.3211,-0.0163,0.2204,0.4721,0.7317,0.8057,0.8115,0.761,0.7264,0.7229,0.7548,0.9343,1.0255,1.0623,1.183,1.155,1.0349,0.9884,0.8026,0.5291,0.2612,-0.1042,-0.5449,-1.0755,-1.2753,-1.3108,-1.3525,-1.3345,-1.2942,-1.2761,-1.2479,-1.2129,-1.1683,-1.1361,-1.1139,-1.0992,-0.7946,0.0,-0.3018,0.1889,0.6082,0.5962,0.7306,0.8214,0.7224,0.5691,0.4785,0.5304,0.3788,0.1917,0.02,-0.1064,-0.1849,-0.1962,-0.2677,-0.3251,-0.348,-0.3598,-0.383,-0.4268,-0.4345,-0.4402,-0.4462,-0.4507,-0.4773,-0.5308,-0.5796,-0.6334,-0.6928,-0.7752,-0.8172,-0.8235,-0.9322,-0.9879,-0.997,-1.1169,-1.1749,-1.1889,-1.2719,-1.3175,-1.3361,-1.3586,-1.3804,-1.402,-1.402,-1.402,-1.402,-1.402,-1.4114,-1.4245,0.1132,0.2642,0.419,0.5463,0.6515,0.6961,0.6439,0.5933,0.5512,0.5237,0.5093,0.4651,0.3699,0.2092,0.0736,-0.0222,-0.1312,-0.2421,-0.3534,-0.339,-0.3716,-0.4767,-0.4606,-0.479,-0.5377,-0.5213,-0.3858,-0.135,0.072,0.2944,0.5293,0.6628,0.7091,0.6785,0.6272,0.6796,0.8119,0.9201,1.0401,1.1663,1.2438,1.2391,1.1805,1.139,0.9873,0.769,0.5662,0.0796,-0.5219,-0.8568,-1.1534,-1.3851,-1.4148,-1.3996,-1.3671,-1.3533,-1.3065,-1.2447,-1.1783,-1.1208,-1.0736,-1.0425,-0.8736,0.0,0.0,-0.1594,0.1237,0.2375,0.3278,0.358,0.2632,0.1438,0.0974,0.2125,0.2596,0.2494,0.166,0.0247,-0.0928,-0.1572,-0.2084,-0.2622,-0.3158,-0.3384,-0.3739,-0.4313,-0.4354,-0.435,-0.435,-0.4329,-0.4422,-0.4688,-0.5085,-0.5497,-0.5909,-0.6695,-0.7232,-0.7509,-0.8349,-0.8966,-0.9376,-1.0247,-1.0958,-1.1527,-1.2105,-1.2589,-1.2965,-1.3202,-1.3353,-1.3491,-1.3789,-1.3904,-1.3904,-1.3904,-1.396,-1.4047,0.1139,0.2979,0.4703,0.5661,0.7027,0.7739,0.6968,0.6559,0.6097,0.5521,0.5455,0.5149,0.4237,0.2695,0.1486,0.0867,-0.0405,-0.152,-0.2312,-0.242,-0.2886,-0.3893,-0.387,-0.4131,-0.4784,-0.5071,-0.4282,-0.2356,-0.0486,0.1482,0.3498,0.5328,0.6206,0.6197,0.5642,0.6636,0.8743,0.9076,1.0466,1.2434,1.2704,1.2736,1.2571,1.23,1.1191,0.9524,0.7679,0.22,-0.4346,-0.5666,-0.9787,-1.4352,-1.4214,-1.4128,-1.412,-1.4265,-1.3567,-1.2616,-1.2022,-1.1198,-1.0372,-0.976,-0.9733,-0.9033,0.0,0.0,0.0,-0.1427,-0.0999,-0.1334,-0.2067,-0.2766,-0.2913,-0.1934,0.0342,0.1994,0.2067,0.1061,-0.0196,-0.1563,-0.1863,-0.2164,-0.263,-0.3214,-0.3715,-0.4109,-0.4143,-0.4152,-0.4152,-0.4079,-0.4073,-0.4178,-0.4379,-0.4613,-0.4933,-0.5699,-0.628,-0.6723,-0.7359,-0.8087,-0.8873,-0.9335,-1.0108,-1.1139,-1.1541,-1.1981,-1.2451,-1.2797,-1.2942,-1.3051,-1.3586,-1.3798,-1.3798,-1.3798,-1.3827,-1.3833,0.1163,0.296,0.4785,0.602,0.7595,0.864,0.8552,0.7888,0.7171,0.6434,0.5995,0.5575,0.509,0.3553,0.2203,0.1305,0.0476,-0.0625,-0.2117,-0.2016,-0.243,-0.3674,-0.338,-0.3697,-0.477,-0.4609,-0.4234,-0.3686,-0.1284,0.0571,0.1925,0.4304,0.548,0.5637,0.624,0.682,0.7404,0.8495,1.0021,1.1743,1.2072,1.2506,1.2934,1.2899,1.243,1.1285,0.7621,0.36,-0.0538,-0.4184,-0.9533,-1.4504,-1.3605,-1.4004,-1.4776,-1.4667,-1.3802,-1.2715,-1.193,-1.0631,-0.9371,-0.9012,-0.9289,-0.9514,-0.9084,0.0,-0.578,-0.5218,0.0,-0.1943,-0.2157,0.0,0.0,-0.2722,-0.1957,-0.1087,-0.0325,-0.0057,-0.0592,-0.2367,-0.2596,-0.2408,-0.1981,-0.3042,-0.363,-0.3269,-0.3259,-0.3244,-0.3244,-0.3116,-0.3282,-0.3744,-0.3674,-0.3888,-0.4386,-0.4946,-0.5278,-0.5336,-0.6346,-0.7263,-0.8069,-0.8888,-0.9717,-1.0554,-1.1343,-1.1735,-1.1849,-1.2404,-1.2778,-1.3023,-1.3346,-1.3454,-1.3454,-1.3454,-1.3526,-1.3617,0.1249,0.2977,0.4815,0.6075,0.7691,0.8721,0.8499,0.7798,0.7088,0.6505,0.638,0.6117,0.5612,0.4334,0.3123,0.215,0.1323,0.0175,-0.1359,-0.1587,-0.2062,-0.2921,-0.3111,-0.3588,-0.4372,-0.4483,-0.4273,-0.3793,-0.1874,-0.0204,0.131,0.362,0.5302,0.6371,0.6512,0.742,0.884,0.8977,0.9867,1.1248,1.1933,1.2391,1.2712,1.3296,1.3518,1.3257,1.1478,0.7948,0.3758,0.1362,-0.4659,-1.1537,-1.373,-1.4607,-1.4709,-1.4029,-1.2976,-1.1743,-1.0368,-0.9148,-0.8232,-0.8171,-0.8501,-0.8961,-0.9431,-0.8935,-0.8387,-0.8504,0.0,0.0,0.0,0.0,0.0,0.0,-0.6823,-0.5627,-0.3652,-0.3065,-0.2992,-0.3413,-0.2827,-0.2116,-0.1358,-0.2568,-0.3465,-0.3599,-0.3617,-0.3632,-0.3632,-0.31,-0.2838,-0.2936,-0.3165,-0.3448,-0.383,-0.4216,-0.4631,-0.5107,-0.5555,-0.6359,-0.7455,-0.8149,-0.8991,-0.9963,-1.0652,-1.1054,-1.1281,-1.1843,-1.2133,-1.2281,-1.2754,-1.313,-1.3405,-1.3405,-1.3438,-1.3478,0.1472,0.0,0.4774,0.5938,0.7525,0.8552,0.8273,0.7765,0.7305,0.696,0.7021,0.6942,0.6495,0.5426,0.4337,0.3356,0.2405,0.1188,-0.0351,-0.0975,-0.1687,-0.2616,-0.3062,-0.3623,-0.4266,-0.4462,-0.434,-0.3894,-0.2424,-0.0908,0.0644,0.2956,0.4924,0.6565,0.6816,0.7982,0.9768,0.935,1.0035,1.142,1.1969,1.2507,1.3048,1.3607,1.4042,1.4345,1.4241,1.1853,0.845,0.6608,-0.0033,-0.8088,-1.1472,-1.3354,-1.4123,-1.3182,-1.2021,-1.0687,-0.9077,-0.7998,-0.7382,-0.7511,-0.7963,-0.8555,-0.9341,-0.9926,-1.0332,-1.0535,-1.093,0.0,0.0,0.0,-1.2271,-1.1448,0.0,-0.9053,-0.7316,-0.6196,-0.508,-0.3785,-0.2713,-0.1777,-0.0977,-0.2127,-0.3096,-0.3518,-0.3607,-0.3525,-0.3279,-0.2659,-0.2319,-0.231,-0.2589,-0.2917,-0.3287,-0.3612,-0.4094,-0.467,-0.4894,-0.5616,-0.6794,-0.7389,-0.8274,-0.9389,-0.9975,-1.0445,-1.0811,-1.129,-1.1578,-1.1735,-1.2181,-1.2689,-1.3183,-1.326,-1.3346,-1.3405,0.1936,0.3352,0.4763,0.5589,0.7092,0.8222,0.8287,0.8269,0.8259,0.8243,0.8183,0.8134,0.8129,0.7039,0.5963,0.5083,0.3922,0.2484,0.0754,-0.0031,-0.1275,-0.3179,-0.33,-0.3758,-0.4763,-0.4541,-0.4405,-0.4378,-0.2891,-0.1582,-0.04,0.2149,0.4095,0.5523,0.7213,0.8366,0.9057,0.9292,1.061,1.2507,1.2077,1.2922,1.4371,1.3824,1.3787,1.4035,1.4154,1.4181,1.3619,1.0132,0.2865,-0.4823,-0.5357,-0.8995,-1.2935,-1.2319,-1.1189,-0.9868,-0.8562,-0.762,-0.703,-0.71,-0.7822,-0.8685,-0.942,-1.0324,-1.0919,-1.0715,-1.0965,-1.1226,-1.1315,-1.1331,-1.1646,-1.2496,-1.1197,0.0,0.0,-0.8953,-0.6111,-0.3101,-0.2189,-0.1561,-0.0969,-0.1816,-0.2419,-0.2454,-0.2634,-0.2341,-0.1431,-0.1372,-0.1581,-0.2095,-0.193,-0.213,-0.2721,-0.3244,-0.3536,-0.3556,-0.4337,-0.5145,-0.5974,-0.6702,-0.7658,-0.876,-0.9491,-1.0039,-1.0427,-1.0787,-1.1236,-1.1693,-1.1714,-1.2092,-1.2649,-1.2924,-1.3182,-1.3405,0.2849,0.0,0.45,0.5512,0.6674,0.7666,0.8223,0.85,0.8706,0.8941,0.8951,0.8939,0.8939,0.8332,0.7363,0.6006,0.4796,0.3495,0.2066,0.0358,-0.101,-0.1945,-0.2912,-0.3812,-0.4638,-0.4501,-0.4297,-0.4079,-0.3223,-0.2099,-0.0713,0.1478,0.3591,0.5606,0.7076,0.84,0.952,0.9394,0.9799,1.0611,1.1341,1.2633,1.4087,1.3826,1.4039,1.4457,1.4462,1.4322,1.3856,1.2032,0.6433,-0.0332,-0.3577,-0.7276,-1.0299,-0.9751,-0.8949,-0.7903,-0.6261,-0.5427,-0.5161,-0.5694,-0.649,-0.7331,-0.8167,-0.8956,-0.9614,-0.9803,-1.0058,-1.0474,-1.1167,-1.1693,-1.2345,-1.3332,-1.274,-1.229,0.0,-1.0368,-0.7907,-0.5973,-0.372,-0.2275,-0.2106,-0.221,-0.236,-0.2578,-0.1006,0.0347,0.1301,0.0381,-0.0246,-0.0441,-0.1315,-0.1889,-0.211,-0.2278,-0.2746,-0.3494,-0.3782,-0.4322,-0.5126,-0.5908,-0.6579,-0.7175,-0.8514,-0.9151,-0.9335,-1.0202,-1.0815,-1.1182,-1.1371,-1.1809,-1.2392,-1.2832,-1.3067,-1.3156,0.3556,0.3918,0.4483,0.5356,0.6636,0.7734,0.8361,0.8843,0.9289,0.9606,0.9792,0.9875,0.9875,0.9393,0.8567,0.7272,0.5942,0.4561,0.3171,0.1019,-0.0595,-0.1514,-0.293,-0.3995,-0.4649,-0.4597,-0.4397,-0.4076,-0.3605,-0.2735,-0.1462,0.0755,0.2927,0.5048,0.7106,0.8773,1.0008,0.9857,1.0069,1.0592,1.1613,1.2861,1.4114,1.4042,1.4271,1.4625,1.4605,1.4368,1.3954,1.3154,0.8507,0.2449,-0.1029,-0.4857,-0.7961,-0.7593,-0.7148,-0.6428,-0.4863,-0.4363,-0.4428,-0.5117,-0.5781,-0.6565,-0.7651,-0.8277,-0.8767,-0.9289,-0.953,-0.9938,-1.0905,-1.1761,-1.2659,-1.3676,-1.3476,-1.3015,0.0,-1.0921,-0.9272,-0.7758,-0.5556,-0.4059,-0.3827,-0.326,-0.2793,-0.2539,-0.0516,0.1299,0.2626,0.1761,0.0962,0.0418,-0.062,-0.1272,-0.147,-0.1692,-0.2169,-0.2896,-0.3301,-0.3774,-0.4305,-0.5169,-0.5792,-0.6223,-0.7439,-0.8121,-0.8488,-0.9426,-1.0057,-1.0477,-1.085,-1.1356,-1.1946,-1.2502,-1.2767,-1.2906,0.4026,0.4385,0.4823,0.5245,0.698,0.841,0.8722,0.9371,0.9945,1.0301,1.0688,1.092,1.092,1.0289,0.9575,0.8828,0.7363,0.5763,0.4098,0.1953,-0.0065,-0.1864,-0.3267,-0.4263,-0.4782,-0.4866,-0.4755,-0.4425,-0.4161,-0.3578,-0.2631,-0.004,0.2094,0.39,0.7276,0.9391,1.0427,1.0593,1.1287,1.2329,1.2771,1.3575,1.4488,1.4407,1.4441,1.4521,1.4586,1.4456,1.4155,1.356,0.9143,0.3651,0.2292,-0.1731,-0.5911,-0.5841,-0.5777,-0.5446,-0.4388,-0.4355,-0.4777,-0.5164,-0.564,-0.6363,-0.7733,-0.8124,-0.8413,-0.9168,-0.9334,-0.9612,-1.0539,-1.151,-1.2513,-1.3576,-1.3498,-1.2713,-1.101,-1.0844,-1.0262,-0.8485,-0.7662,-0.6867,-0.5945,-0.4942,-0.3765,-0.2367,-0.109,0.0528,0.2583,0.2697,0.2002,0.0499,0.0194,-0.0246,-0.0847,-0.1426,-0.1735,-0.1804,-0.2896,-0.3431,-0.3504,-0.4482,-0.5254,-0.5842,-0.6355,-0.7048,-0.7878,-0.8453,-0.9047,-0.9658,-1.0158,-1.0712,-1.1298,-1.1959,-1.2364,-1.263,0.4441,0.5284,0.6226,0.6923,0.7944,0.8895,0.9488,0.997,1.045,1.0975,1.1136,1.1196,1.1196,1.1029,1.0531,0.9601,0.8344,0.6919,0.5348,0.2659,0.0518,-0.0883,-0.321,-0.4524,-0.4652,-0.5826,-0.5942,-0.4927,-0.5624,-0.5252,-0.3796,-0.0806,0.1511,0.3279,0.6798,0.9256,1.0745,1.0234,1.0849,1.2151,1.2117,1.3073,1.4476,1.4262,1.4373,1.4671,1.484,1.4823,1.4526,1.3236,0.9944,0.595,0.3462,-0.0144,-0.3499,-0.3472,-0.3835,-0.3982,-0.2751,-0.2629,-0.2989,-0.3425,-0.4164,-0.4948,-0.5665,-0.6367,-0.7113,-0.7891,-0.831,-0.8964,-1.044,-1.1242,-1.2274,-1.4074,-1.4629,-1.4449,-1.3365,-1.2796,-1.2055,-1.0853,-1.0673,-0.9547,-0.6736,-0.6529,-0.5621,-0.3344,-0.1998,-0.0119,0.2546,0.2551,0.2103,0.1232,0.0869,0.0379,-0.0223,-0.0378,-0.0911,-0.1804,-0.2104,-0.2582,-0.3214,-0.3684,-0.4181,-0.4765,-0.5682,-0.6425,-0.7085,-0.8233,-0.9047,-0.9625,-0.9764,-1.002,-1.0476,-1.1743,-1.2364,-1.261,0.5694,0.6571,0.7515,0.8115,0.8805,0.9473,1.0003,1.0479,1.0966,1.1445,1.1512,1.1557,1.1681,1.1453,1.1001,1.0266,0.9181,0.7873,0.6356,0.3832,0.1758,0.0291,-0.2308,-0.3907,-0.4292,-0.5642,-0.6038,-0.5446,-0.6149,-0.5904,-0.4714,-0.1444,0.1011,0.2828,0.715,0.9922,1.1342,1.1431,1.1946,1.2697,1.2613,1.3428,0.0,1.4507,1.4626,1.4894,1.4999,1.4886,1.4477,1.3175,1.0721,0.7778,0.53,0.2401,-0.0254,-0.0972,-0.1772,-0.2279,-0.1797,-0.1918,-0.2335,-0.2852,-0.36,-0.4421,-0.5253,-0.5934,-0.6577,-0.7211,-0.7799,-0.857,-0.9781,-1.0915,-1.2353,-1.4484,-1.478,-1.458,-1.412,-1.3479,-1.2748,-1.1921,-1.1999,-1.1195,-0.885,-0.841,-0.7477,-0.5576,-0.304,-0.048,0.2111,0.2491,0.2423,0.2032,0.1813,0.1398,0.08,0.0621,0.0,-0.1021,-0.1394,-0.1924,-0.2543,-0.3078,-0.3563,-0.4003,-0.4834,-0.5603,-0.6356,-0.7387,-0.819,-0.879,-0.9092,-0.9302,-0.9584,-1.079,-1.1561,-1.2061,0.7342,0.8013,0.8699,0.9018,0.9668,1.0229,1.0498,1.0977,1.1438,1.179,1.184,1.194,1.221,1.1781,1.1313,1.0918,1.0034,0.8881,0.7372,0.5316,0.3333,0.153,-0.1028,-0.2836,-0.38,-0.5127,-0.584,-0.5931,-0.6397,-0.6212,-0.537,-0.1994,0.0541,0.2471,0.7648,1.0658,1.1924,1.3081,1.3478,1.3346,1.353,1.4051,1.4741,1.488,1.5002,1.5104,1.5123,1.4848,1.434,1.3372,1.1504,0.9262,0.7397,0.5175,0.2997,0.1454,0.0409,-0.0398,-0.0895,-0.1343,-0.1806,-0.2485,-0.3133,-0.3973,-0.5293,-0.5837,-0.6245,-0.6818,-0.7535,-0.8257,-0.8963,-1.0632,-1.256,-1.4534,-1.43,-1.3874,-1.3832,-1.3444,-1.2936,-1.2329,-1.2508,0.0,-1.1553,-1.0415,-0.9296,-0.8232,-0.4334,-0.0959,0.142,0.243,0.2926,0.2934,0.2895,0.258,0.1953,0.1506,0.0906,0.0156,-0.0727,-0.1345,-0.1755,-0.2627,-0.3187,-0.3536,-0.406,-0.4795,-0.5674,-0.6396,-0.708,-0.7724,-0.8305,-0.8523,-0.863,-0.9507,-1.0368,-1.1165,0.8584,0.918,0.9657,0.9994,1.0851,1.1551,1.1755,1.1518,1.1505,1.2066,1.2136,1.2231,1.2494,1.2447,1.2229,1.1902,1.1431,1.0468,0.876,0.6994,0.4913,0.2406,-0.0059,-0.1976,-0.3301,-0.5993,-0.698,-0.6144,-0.7952,-0.7767,-0.5667,-0.2452,0.0082,0.2167,0.6633,0.973,1.1648,1.2901,1.3047,1.25,1.3277,1.3692,1.3921,1.475,1.5081,1.5112,1.5226,1.5138,1.486,1.4074,1.2354,1.0295,0.8853,0.652,0.4195,0.346,0.2628,0.1868,0.156,0.1376,0.1021,0.0044,-0.0629,-0.1485,-0.3156,-0.3936,-0.4768,-0.6286,-0.6925,-0.76,-0.8873,-1.0634,-1.2255,-1.3346,-1.3682,-1.3612,-1.3018,-1.3588,-1.3825,-1.3171,-1.3756,-1.4006,-1.3467,-1.2227,-1.0908,-0.9564,-0.6177,-0.2723,0.0525,0.2267,0.3467,0.4171,0.396,0.3484,0.2712,0.2033,0.1449,0.0974,0.0155,-0.064,-0.1407,-0.2177,-0.2874,-0.3536,-0.406,-0.4633,-0.5289,-0.6295,-0.7,-0.7458,-0.7577,-0.7636,-0.7738,-0.861,-0.9336,-1.0056,1.0355,1.0427,1.0464,1.0755,1.1221,1.1763,1.2378,1.2501,1.2511,1.2423,1.2739,1.2927,1.2819,1.2783,1.2622,1.2333,1.2219,1.1591,1.0188,0.8739,0.6961,0.472,0.1934,-0.0392,-0.2185,-0.5248,-0.6772,-0.6663,-0.7971,-0.7725,-0.5944,-0.2671,-0.0086,0.2059,0.7034,1.0433,1.2543,1.3354,1.3668,1.3641,1.413,1.4386,1.4529,1.502,1.5204,1.5197,1.5201,1.515,1.5028,1.4569,1.3499,1.2183,1.127,0.9391,0.7327,0.6448,0.5412,0.4435,0.3826,0.3631,0.3414,0.2627,0.1863,0.0861,-0.0838,-0.2343,-0.3781,-0.5166,-0.6562,-0.7998,-0.9593,-1.1154,-1.2436,-1.3145,-1.3412,-1.3455,-1.3195,-1.325,-1.3363,-1.3486,-1.3934,-1.3961,-1.3295,-1.2698,-1.1729,-1.0179,-0.6957,-0.3505,0.0043,0.2212,0.4104,0.574,0.5462,0.484,0.3901,0.3219,0.2424,0.1494,0.0905,0.0066,-0.0972,-0.196,-0.266,-0.3141,-0.3954,-0.4593,-0.5121,-0.6066,-0.657,-0.6779,-0.6779,-0.7037,-0.7488,-0.8226,-0.8856,-0.9511,1.1878,1.1658,1.1417,1.1549,1.1596,1.1928,1.278,1.3576,1.3832,1.302,1.3456,1.3655,1.3188,1.3116,1.3032,1.2822,1.2924,1.2588,1.1582,1.0532,0.905,0.6981,0.4356,0.173,-0.0842,-0.3835,-0.5811,-0.6701,-0.7452,-0.7169,-0.5832,-0.2669,0.0277,0.3116,0.7985,1.1295,1.3289,1.3806,1.4248,1.4649,1.4903,1.501,1.5039,1.5231,1.53,1.5287,1.518,1.5115,1.506,1.4911,1.4471,1.3873,1.3287,1.1904,1.0264,0.9106,0.7907,0.6769,0.5877,0.5636,0.5491,0.4811,0.4069,0.304,0.1325,-0.0422,-0.2091,-0.3593,-0.6158,-0.8586,-1.0094,-1.1157,-1.2015,-1.2658,-1.2799,-1.283,-1.283,-1.2621,-1.2645,-1.3152,-1.3616,-1.3578,-1.2721,-1.2714,-1.2152,-1.0669,-0.7692,-0.446,-0.1021,0.1832,0.4781,0.7892,0.7384,0.6553,0.5472,0.4669,0.3568,0.2203,0.1598,0.0706,-0.0511,-0.1853,-0.2582,-0.2845,-0.3868,-0.4599,-0.5156,-0.5798,-0.6117,-0.6195,-0.6195,-0.6632,-0.7312,-0.8026,-0.8562,-0.9095,1.2423,1.2729,1.2882,1.254,1.2631,1.2871,1.3192,1.4499,1.5075,1.4082,1.4184,1.4124,1.36,1.3706,1.381,1.3763,1.3885,1.3662,1.2958,1.2409,1.084,0.7993,0.688,0.4479,0.0521,-0.223,-0.4208,-0.5381,-0.6824,-0.665,-0.4885,-0.2301,0.1626,0.6627,0.9154,1.1207,1.2822,1.3705,1.395,1.3795,1.4648,1.465,1.4211,1.4997,1.5303,1.5302,1.5294,1.5156,1.5017,1.506,1.483,1.4401,1.3682,1.2542,1.1274,1.0237,0.9254,0.8321,0.757,0.7407,0.7176,0.6029,0.5591,0.4949,0.3091,0.2504,0.1533,-0.1368,-0.5474,-0.8764,-0.9475,-0.9555,-0.9848,-1.0866,-1.1187,-1.1076,-1.0433,-1.1684,-1.2412,-1.1696,-1.2972,-1.3613,-1.2847,-1.2683,-1.2284,-1.145,-0.9135,-0.6518,-0.3685,0.059,0.5473,1.1004,0.9884,0.8691,0.7626,0.6171,0.4801,0.3501,0.2323,0.1116,-0.011,-0.1882,-0.2813,-0.3105,-0.395,-0.4733,-0.5454,-0.5536,-0.5809,-0.6195,-0.6195,-0.6401,-0.6806,-0.7903,-0.8336,-0.8524,1.3147,1.3044,1.2969,1.2958,1.2894,1.309,1.385,1.4689,1.5089,1.4693,1.5167,1.5086,1.3915,1.4029,1.4151,1.4029,1.4359,1.4334,1.3736,1.3368,1.2369,1.0532,0.8873,0.665,0.3721,0.0163,-0.2282,-0.3571,-0.4894,-0.4881,-0.3597,-0.1257,0.2468,0.7199,0.9008,1.089,1.2744,1.3442,1.3993,1.4414,1.4786,1.488,1.4808,1.5118,1.5259,1.5284,1.5157,1.5035,1.4916,1.4737,1.4718,1.474,1.4527,1.3777,1.2912,1.2553,1.1458,1.0321,1.0018,0.9491,0.8877,0.827,0.7715,0.6852,0.5049,0.3738,0.224,-0.0081,-0.3504,-0.6608,-0.8342,-0.8988,-0.9357,-0.9672,-1.0391,-1.0649,-0.9867,-1.0491,-1.1078,-1.1256,-1.2443,-1.2918,-1.2104,-1.2881,-1.2877,-1.1538,-1.0269,-0.8461,-0.5954,-0.1385,0.2727,0.6145,0.8288,0.8999,0.8211,0.703,0.5882,0.4746,0.2514,0.0814,-0.0419,-0.2078,-0.3196,-0.3844,-0.4341,-0.4809,-0.5253,-0.5253,-0.5472,-0.5784,-0.5784,-0.6248,-0.6986,-0.7769,-0.837,-0.8876,1.3621,1.3439,1.3311,1.3399,1.3256,1.3387,1.4185,1.4799,1.5112,1.4903,1.5684,1.5675,1.4217,1.4343,1.4489,1.435,1.4701,1.4766,1.4364,1.4121,1.3527,1.2459,1.0866,0.8887,0.6489,0.3079,0.0422,-0.1418,-0.2327,-0.2525,-0.1965,0.0768,0.3977,0.7509,0.9219,1.0981,1.2744,1.3352,1.4113,1.4904,1.4904,1.506,1.5294,1.5246,1.5257,1.5284,1.5141,1.5023,1.4892,1.4632,1.4682,1.4853,1.4877,1.4403,1.3821,1.3873,1.2883,1.1699,1.138,1.0679,0.9933,0.9479,0.8872,0.8063,0.6767,0.5373,0.3672,0.1327,-0.1557,-0.436,-0.665,-0.7906,-0.8614,-0.8665,-0.9504,-0.9995,-0.9574,-0.9682,-1.0052,-1.068,-1.1689,-1.2097,-1.1501,-1.2782,-1.3015,-1.1494,-1.1225,-1.0338,-0.8524,-0.3445,0.0442,0.2693,0.6709,0.8644,0.8259,0.7477,0.6491,0.5293,0.2279,0.0272,-0.0839,-0.2457,-0.3647,-0.443,-0.471,-0.4927,-0.5108,-0.5108,-0.5253,-0.5492,-0.5492,-0.6043,-0.6925,-0.7642,-0.8321,-0.8951,1.3727,1.4061,1.4356,1.3965,1.3899,1.3943,1.4076,1.4948,1.5343,1.4685,1.5479,1.5665,1.4526,1.469,1.4886,1.4886,1.4956,1.4971,1.4904,1.4762,1.4239,1.3231,1.2966,1.1375,0.8246,0.6497,0.415,0.1163,0.0736,0.0392,0.0145,0.3897,0.6484,0.8089,1.017,1.1678,1.2744,1.3567,1.4271,1.4904,1.4904,1.506,1.5299,1.5299,1.5302,1.53,1.5299,1.5174,1.4992,1.4919,1.4804,1.4668,1.4466,1.4046,1.36,1.3598,1.303,1.216,1.1098,1.0608,1.0138,0.908,0.8602,0.8342,0.8124,0.7898,0.6716,0.3112,0.0073,-0.2477,-0.431,-0.5903,-0.7138,-0.7807,-0.8318,-0.8787,-0.9239,-0.9473,-0.9631,-0.9715,-1.0606,-1.1236,-1.1303,-1.2219,-1.2395,-1.1382,-1.1973,-1.2127,-1.158,-0.5463,-0.048,0.2793,0.6036,0.7775,0.7903,0.7504,0.6495,0.4871,0.1579,-0.0407,-0.126,-0.3057,-0.4187,-0.471,-0.4971,-0.5088,-0.5108,-0.5108,-0.5253,-0.5492,-0.5492,-0.5789,-0.6349,-0.7476,-0.8078,-0.8462,1.4183,1.4364,1.4535,1.4407,1.4382,1.4384,1.443,1.4825,1.5047,1.4832,1.5155,1.5279,1.4922,1.4933,1.4985,1.503,1.5101,1.5091,1.4979,1.5053,1.4929,1.4511,1.3902,1.3016,1.1769,0.9518,0.7429,0.5484,0.4578,0.4219,0.4372,0.6157,0.787,0.9485,1.073,1.2042,1.3288,1.3851,1.4414,1.4904,1.4904,1.506,1.5299,1.5298,1.5332,1.536,1.5321,1.5206,1.5057,1.4935,1.4804,1.4677,1.4517,1.4402,1.4372,1.4451,1.3795,1.2828,1.1982,1.0985,0.9961,0.8972,0.8457,0.8069,0.7599,0.6795,0.5733,0.4204,0.212,-0.008,-0.2175,-0.3663,-0.4964,-0.6136,-0.6992,-0.7669,-0.8136,-0.8543,-0.8895,-0.9186,-1.0268,-1.1043,-1.1151,-1.2157,-1.2858,-1.299,-1.2929,-1.2344,-1.1127,-0.6166,-0.2763,-0.1434,0.3013,0.553,0.5846,0.464,0.4045,0.4041,0.0193,-0.2349,-0.3683,-0.4583,-0.4884,-0.473,-0.5171,-0.5272,-0.5108,-0.5108,-0.5151,-0.5228,-0.5228,-0.5434,-0.5829,-0.6753,-0.7481,-0.8142,1.4534,1.4855,1.516,1.516,1.5432,1.5678,1.5722,1.5828,1.5945,1.6022,1.5809,1.5666,1.5698,1.5357,1.5131,1.5167,1.5205,1.5199,1.5123,1.5226,1.5264,1.5178,1.4692,1.416,1.3605,1.1865,1.0204,0.8666,0.7439,0.7114,0.7655,0.8252,0.9289,1.0701,1.1548,1.251,1.3533,1.4042,1.4524,1.4903,1.495,1.5105,1.5299,1.5329,1.5547,1.5801,1.543,1.5444,1.5555,1.5093,1.4867,1.4756,1.4623,1.4602,1.4624,1.4628,1.4156,1.3367,1.2152,1.1134,1.0085,0.8803,0.8248,0.7868,0.7227,0.6361,0.5468,0.4659,0.3352,0.1738,-0.0379,-0.2031,-0.344,-0.4613,-0.5769,-0.6697,-0.7255,-0.7735,-0.8144,-0.8441,-0.9284,-1.0073,-1.0627,-1.1474,-1.2358,-1.3277,-1.2607,-1.1606,-1.034,-0.6961,-0.4599,-0.3578,0.0498,0.2805,0.3049,0.221,0.1414,0.0656,-0.253,-0.449,-0.53,-0.5425,-0.5323,-0.501,-0.5349,-0.5411,-0.5248,-0.5151,-0.5108,-0.5108,-0.5108,-0.5272,-0.5583,-0.6289,-0.6932,-0.7543,1.4865,1.5508,1.6196,1.6214,1.6885,1.7477,1.7591,1.7616,1.7683,1.7881,1.7189,1.669,1.6703,1.5915,1.5365,1.5305,1.5297,1.5297,1.5297,1.5305,1.5299,1.5302,1.5304,1.4893,1.4023,1.3552,1.2479,1.0784,0.9491,0.9272,1.006,1.0181,1.0771,1.1739,1.2508,1.3125,1.3614,1.4196,1.4622,1.4918,1.5047,1.5178,1.5324,1.5436,1.5945,1.6503,1.575,1.596,1.6439,1.5475,1.5081,1.4962,1.4811,1.4648,1.4464,1.4282,1.421,1.3756,1.1815,1.1082,1.0439,0.8624,0.8027,0.7717,0.7066,0.6547,0.5856,0.4606,0.392,0.2949,0.1036,-0.0861,-0.2431,-0.331,-0.4669,-0.5832,-0.6519,-0.7025,-0.7336,-0.7314,-0.7707,-0.8449,-0.9626,-1.0318,-1.1212,-1.2474,-1.1393,-1.0287,-0.9444,-0.7782,-0.5941,-0.3907,-0.1504,-0.0232,-0.0223,0.0016,-0.1453,-0.4623,-0.6155,-0.6628,-0.6158,-0.5729,-0.5537,-0.5492,-0.5492,-0.5492,-0.5449,-0.5209,-0.5108,-0.5108,-0.5108,-0.5253,-0.5539,-0.6058,-0.6426,-0.6745,1.5885,1.6507,1.7202,1.7298,1.7526,1.7723,1.7747,1.7799,1.7848,1.789,1.7723,1.7365,1.6773,1.6497,1.6096,1.5428,1.5328,1.53,1.53,1.5299,1.5297,1.53,1.53,1.5196,1.4966,1.4609,1.3825,1.2578,1.1867,1.1555,1.1666,1.1697,1.2103,1.2848,1.3182,1.3717,1.4359,1.4653,1.4884,1.5063,1.5095,1.5206,1.5446,1.6126,1.6484,1.6663,1.7119,1.7368,1.742,1.6918,1.6337,1.5772,1.5542,1.5018,1.4497,1.4443,1.421,1.3706,1.2451,1.1416,1.038,0.9172,0.8259,0.7575,0.7209,0.6642,0.5963,0.5087,0.4328,0.3332,0.1803,0.0388,-0.1095,-0.2772,-0.3944,-0.4886,-0.561,-0.6278,-0.6151,-0.4654,-0.59,-0.6956,-0.7163,-0.9856,-1.1791,-1.2263,-1.1671,-1.0723,-0.9466,-0.8128,-0.646,-0.4407,-0.3205,-0.2563,-0.2516,-0.38,-0.5492,-0.7584,-0.7725,-0.7475,-0.684,-0.6287,-0.5846,-0.5492,-0.5492,-0.5392,-0.519,-0.5132,-0.5108,-0.5108,-0.5108,-0.5132,-0.5243,-0.5563,-0.5993,-0.6449,1.6857,1.7471,1.8141,1.8268,1.865,1.8949,1.8978,1.9052,1.9105,1.9126,1.8791,1.8366,1.7935,1.7177,1.6513,1.6041,1.5596,1.5333,1.5295,1.53,1.5302,1.5302,1.5301,1.5304,1.5299,1.5416,1.5135,1.4438,1.4026,1.3592,1.3159,1.3029,1.3242,1.3703,1.3911,1.423,1.4616,1.4882,1.5027,1.5109,1.5199,1.5525,1.6002,1.6474,1.711,1.7751,1.7835,1.8067,1.8256,1.7678,1.7111,1.6554,1.6046,1.5501,1.4985,1.4607,1.4223,1.3648,1.2496,1.14,1.0263,0.8896,0.8064,0.7507,0.7146,0.6716,0.6148,0.5274,0.4558,0.3721,0.2528,0.1038,-0.0518,-0.2128,-0.3529,-0.4486,-0.4757,-0.4759,-0.4156,-0.2635,-0.3034,-0.3711,-0.4407,-0.7121,-0.9453,-1.0951,-1.0707,-1.028,-0.9787,-0.8623,-0.7123,-0.5285,-0.4666,-0.4518,-0.4858,-0.635,-0.7525,-0.8366,-0.8088,-0.7569,-0.6805,-0.6385,-0.5937,-0.5492,-0.5492,-0.5411,-0.5272,-0.5151,-0.5108,-0.5108,-0.5108,-0.5229,-0.5445,-0.5578,-0.5822,-0.6101,1.7767,1.8355,1.8992,1.9171,1.9803,2.0316,2.0393,2.0457,2.0516,2.0586,1.9961,1.9453,1.9307,1.7851,1.6826,1.6709,1.5887,1.5369,1.5322,1.5311,1.5299,1.53,1.5281,1.5277,1.5296,1.5862,1.6017,1.5753,1.5534,1.5072,1.4391,1.4167,1.4178,1.4424,1.4731,1.4872,1.4911,1.5332,1.5513,1.552,1.5702,1.6181,1.6803,1.6937,1.7871,1.9016,1.8401,1.8619,1.9088,1.8307,1.7826,1.7377,1.6536,1.6015,1.5564,1.4738,1.4223,1.3619,1.2291,1.1155,0.9946,0.831,0.7739,0.7492,0.7105,0.6795,0.6341,0.5396,0.4765,0.4063,0.3084,0.1341,-0.039,-0.1769,-0.3398,-0.4267,-0.3603,-0.2689,-0.1566,-0.0165,0.0604,0.0346,-0.1392,-0.3852,-0.6493,-0.9252,-0.9361,-0.9466,-0.9859,-0.8905,-0.7743,-0.6416,-0.6021,-0.6168,-0.6889,-0.7864,-0.8232,-0.7979,-0.7791,-0.7252,-0.644,-0.6212,-0.587,-0.5492,-0.5449,-0.5471,-0.5533,-0.5308,-0.5244,-0.5302,-0.5302,-0.5547,-0.5901,-0.5901,-0.5901,-0.5901,1.8514,1.9087,1.9741,2.0049,2.0208,2.0316,2.0393,2.0457,2.0516,2.0586,2.0478,2.0117,1.9385,1.8346,1.7441,1.6757,1.5847,1.5337,1.5379,1.5328,1.5301,1.5305,1.5193,1.5183,1.5303,1.5397,1.5351,1.514,1.5097,1.4982,1.481,1.476,1.4831,1.5012,1.5724,1.61,1.6255,1.705,1.7381,1.7387,1.7477,1.755,1.7703,1.8486,1.8919,1.9175,1.9717,1.9996,2.0046,1.9752,1.9163,1.8393,1.735,1.65,1.5689,1.4775,1.4223,1.3648,1.2481,1.0686,0.8955,0.8116,0.7739,0.7582,0.7514,0.7031,0.6433,0.5814,0.5135,0.428,0.3108,0.1488,-0.0372,-0.2553,-0.3808,-0.3644,-0.1152,-0.0186,0.1593,0.5131,0.5133,0.405,0.2035,-0.2949,-0.668,-0.8238,-0.8942,-0.9044,-0.8455,-0.825,-0.7983,-0.7627,-0.7451,-0.7502,-0.7798,-0.8034,-0.7907,-0.7425,-0.7277,-0.6866,-0.6236,-0.5797,-0.5563,-0.5492,-0.5253,-0.5382,-0.5748,-0.57,-0.5889,-0.6211,-0.6211,-0.625,-0.6309,-0.6309,-0.6309,-0.6309,1.9275,1.9601,1.9981,2.0251,2.0337,2.0361,2.0402,2.0492,2.0564,2.0596,2.0574,2.0394,1.9994,1.9107,1.8402,1.8029,1.7173,1.6428,1.5924,1.5524,1.5251,1.5138,1.5085,1.551,1.6519,1.6962,1.719,1.7207,1.7206,1.6953,1.6462,1.6435,1.6439,1.6519,1.6933,1.7138,1.723,1.7628,1.7823,1.7861,1.7891,1.8164,1.8603,1.8987,1.9414,1.9837,2.0173,2.0301,2.0294,2.0187,1.9793,1.9179,1.8248,1.7555,1.6824,1.5533,1.4459,1.3339,1.1773,1.0495,0.9324,0.8191,0.7834,0.7724,0.7627,0.7254,0.6792,0.6328,0.5534,0.4598,0.3581,0.1888,-0.0022,-0.2112,-0.1947,-0.1335,-0.0773,0.1916,0.4383,0.5924,0.602,0.5244,0.3422,-0.0753,-0.4065,-0.5807,-0.7092,-0.7764,-0.7674,-0.7812,-0.7859,-0.7793,-0.7906,-0.7877,-0.7684,-0.7736,-0.7466,-0.6864,-0.6549,-0.6189,-0.582,-0.5455,-0.5295,-0.5339,-0.5433,-0.5607,-0.5811,-0.6025,-0.623,-0.6406,-0.6406,-0.6558,-0.6782,-0.6782,-0.6782,-0.6782,1.9813,1.9931,2.006,2.0259,2.0337,2.0376,2.0402,2.0498,2.0576,2.0575,2.0527,2.0486,2.048,1.9649,1.9021,1.8821,1.7974,1.7115,1.6329,1.5778,1.5325,1.4994,1.516,1.595,1.7453,1.8145,1.8573,1.8725,1.8755,1.8442,1.7796,1.7752,1.7725,1.7729,1.7993,1.8105,1.8111,1.8299,1.8407,1.8454,1.8474,1.8873,1.9453,1.9422,1.9811,2.0362,2.0272,2.0233,2.0233,2.0189,2.0011,1.9649,1.8825,1.8373,1.784,1.6125,1.4629,1.3101,1.1137,1.0304,0.9654,0.8258,0.7899,0.7856,0.7709,0.747,0.7178,0.6762,0.5928,0.4958,0.3987,0.232,0.0452,-0.1524,-0.1105,-0.0477,-0.0286,0.3037,0.5643,0.6092,0.5974,0.541,0.4252,0.1098,-0.1616,-0.3427,-0.5105,-0.6257,-0.6723,-0.7059,-0.7207,-0.7168,-0.7605,-0.7605,-0.7084,-0.7024,-0.6698,-0.6082,-0.5714,-0.5477,-0.5334,-0.5111,-0.509,-0.5233,-0.5633,-0.5861,-0.5992,-0.6304,-0.6486,-0.6547,-0.6465,-0.6651,-0.6952,-0.6952,-0.6952,-0.6952,1.9964,1.9993,2.006,2.0259,2.0305,2.0326,2.0393,2.046,2.0513,2.0507,2.05,2.0477,2.0412,1.9629,1.8765,1.797,1.6994,1.6349,1.6222,1.61,1.5705,1.4941,1.5621,1.6372,1.7121,1.7444,1.7601,1.7619,1.7742,1.7802,1.78,1.7796,1.7796,1.7828,1.8634,1.8995,1.9047,1.9798,2.0125,2.013,2.0192,2.0215,2.0229,2.0283,2.0308,2.0276,2.0084,2.0022,2.0003,1.9878,1.9823,1.9635,1.8705,1.8392,1.799,1.6009,1.4541,1.3155,1.1154,0.9985,0.9126,0.8145,0.7899,0.7899,0.7885,0.7724,0.7446,0.6969,0.6276,0.5354,0.4039,0.2621,0.0898,-0.1336,-0.364,-0.3389,0.1537,0.2497,0.4046,0.7659,0.6149,0.49,0.5163,0.1562,-0.1121,-0.1909,-0.3699,-0.4843,-0.5073,-0.5573,-0.5765,-0.5584,-0.6373,-0.6579,-0.6102,-0.5748,-0.5319,-0.4832,-0.4798,-0.4807,-0.4855,-0.4833,-0.4949,-0.5233,-0.5633,-0.6042,-0.6462,-0.6489,-0.6702,-0.7023,-0.6644,-0.6512,-0.6537,-0.6537,-0.6537,-0.6537,2.0106,2.019,2.0273,2.0349,2.0431,2.048,2.0462,2.0525,2.0547,2.0511,2.0462,2.0408,2.0352,2.0041,1.9708,1.9378,1.8996,1.8514,1.7847,1.7793,1.7321,1.6309,1.6962,1.7513,1.7891,1.8589,1.8962,1.9049,1.9228,1.9336,1.9347,1.9347,1.9342,1.9359,1.9699,1.9839,1.9858,2.0165,2.0294,2.0299,2.033,2.0352,2.0366,2.0337,2.0316,2.027,2.0066,2.0003,1.9983,1.9856,1.9738,1.9578,1.9059,1.892,1.8567,1.6601,1.4867,1.3163,1.1154,1.0358,0.9898,0.8994,0.8332,0.7899,0.7899,0.7613,0.7294,0.7123,0.631,0.5348,0.4455,0.3045,0.1327,-0.0787,-0.0201,0.0428,0.0122,0.3203,0.5765,0.6481,0.5359,0.4338,0.3851,0.1766,-0.0087,-0.1327,-0.2316,-0.3131,-0.3753,-0.4139,-0.4301,-0.4227,-0.4377,-0.4709,-0.5184,-0.4886,-0.4623,-0.4458,-0.4505,-0.4602,-0.4806,-0.4806,-0.4965,-0.529,-0.5682,-0.5959,-0.6138,-0.6399,-0.6597,-0.6725,-0.6544,-0.6484,-0.6484,-0.6484,-0.6484,-0.6484,2.0248,2.0337,2.0395,2.0406,2.0486,2.0553,2.051,2.0562,2.0585,2.0511,2.0438,2.0384,2.0342,2.0315,2.021,1.9973,1.9904,1.9556,1.8849,1.9001,1.8626,1.7556,1.7886,1.8287,1.8673,1.9422,1.9856,1.9933,2.018,2.0302,2.0302,2.0302,2.0269,2.0215,2.0215,2.0215,2.0215,2.0215,2.0242,2.0299,2.0301,2.0331,2.0357,2.032,2.0297,2.0263,2.0021,1.9933,1.9913,1.971,1.9572,1.9467,1.9289,1.8843,1.8111,1.6687,1.498,1.3222,1.1753,1.0978,1.0326,0.9156,0.8377,0.7899,0.7899,0.7658,0.7387,0.7234,0.6465,0.5589,0.4862,0.3664,0.2195,0.0355,0.1997,0.264,0.0147,0.3592,0.6029,0.5097,0.4394,0.3704,0.2965,0.1807,0.0574,-0.0731,-0.134,-0.2033,-0.2917,-0.3144,-0.3244,-0.3244,-0.2975,-0.3223,-0.4062,-0.3973,-0.3883,-0.3792,-0.3967,-0.4154,-0.4339,-0.4527,-0.4738,-0.4989,-0.5629,-0.5826,-0.5767,-0.614,-0.6305,-0.6305,-0.6183,-0.6125,-0.6125,-0.6125,-0.6125,-0.6125,2.0401,2.0401,2.0401,2.0401,2.0457,2.0498,2.0498,2.0562,2.0585,2.0511,2.0438,2.0401,2.0401,2.0337,2.0011,1.9272,1.9035,1.8878,1.8819,1.9439,1.9383,1.8451,1.8218,1.8482,1.9295,1.9632,1.98,1.98,2.0144,2.0302,2.0302,2.0302,2.0187,2.0003,2.0003,2.0003,2.0003,2.0003,2.0115,2.03,2.0305,2.0297,2.0297,2.0297,2.0297,2.0257,1.9914,1.98,1.9752,1.9405,1.9305,1.9305,1.928,1.7968,1.6343,1.6063,1.4753,1.3346,1.3077,1.1834,1.0167,0.8362,0.7907,0.7899,0.7899,0.7899,0.7761,0.7303,0.6829,0.6188,0.5184,0.4514,0.3624,0.2154,0.1842,0.1949,0.2349,0.3396,0.4043,0.3914,0.3431,0.305,0.2905,0.17,0.0664,0.0044,-0.0793,-0.1713,-0.2654,-0.27,-0.27,-0.27,-0.237,-0.2348,-0.27,-0.2961,-0.2961,-0.2702,-0.31,-0.3288,-0.3329,-0.3931,-0.4196,-0.427,-0.5406,-0.5695,-0.5419,-0.5748,-0.5882,-0.5855,-0.5463,-0.5312,-0.5312,-0.5312,-0.5312,-0.5312,2.0527,2.054,2.054,2.054,2.0562,2.0574,2.0574,2.0585,2.0585,2.0511,2.048,2.0454,2.0414,2.0384,2.0259,1.9997,1.992,1.987,1.985,1.9907,1.9819,1.9531,1.9376,1.9414,1.9645,1.9848,1.9944,1.9944,2.018,2.0302,2.0302,2.0302,2.0187,2.0003,2.0003,1.9944,1.9869,1.9964,2.0031,2.0097,2.0235,2.0301,2.0301,2.0301,2.0301,2.026,1.9921,1.98,1.9752,1.9405,1.9305,1.9198,1.8638,1.7381,1.6028,1.5531,1.4439,1.3244,1.2506,1.181,1.1007,0.9819,0.8698,0.7899,0.7899,0.779,0.759,0.7272,0.6865,0.6317,0.5508,0.4737,0.4069,0.3534,0.288,0.2695,0.3475,0.3649,0.3664,0.3626,0.3636,0.3416,0.281,0.2272,0.1586,0.0708,-0.0396,-0.1327,-0.2034,-0.2072,-0.207,-0.2058,-0.1982,-0.196,-0.2058,-0.2331,-0.2543,-0.2705,-0.3117,-0.3311,-0.3307,-0.3839,-0.4051,-0.4085,-0.472,-0.4928,-0.4856,-0.5297,-0.5495,-0.5463,-0.5344,-0.5312,-0.5312,-0.5312,-0.5312,-0.5312,2.0554,2.0563,2.0574,2.0596,2.0596,2.0596,2.0596,2.0575,2.0551,2.051,2.0477,2.0457,2.0438,2.0438,2.0435,2.0425,2.0375,2.0177,1.9809,1.9996,2.0115,2.0115,2.0041,1.994,1.98,1.9933,2.0003,2.0003,2.0197,2.0121,1.9775,1.9724,1.9437,1.8925,1.8904,1.885,1.8781,1.8894,1.9164,1.9544,1.9724,1.9987,2.0302,2.0302,2.0302,2.0259,1.9982,1.9856,1.9764,1.9499,1.9374,1.9152,1.8222,1.712,1.6001,1.521,1.4225,1.3244,1.2581,1.1818,1.1032,1.0361,0.9233,0.8222,0.7959,0.7739,0.7522,0.7256,0.6799,0.6283,0.5754,0.5001,0.4432,0.4345,0.3764,0.3525,0.4103,0.3977,0.3772,0.3664,0.3699,0.3458,0.2762,0.2474,0.1898,0.0864,-0.0044,-0.0912,-0.1753,-0.1792,-0.1792,-0.1799,-0.1655,-0.1632,-0.1799,-0.1962,-0.2152,-0.2355,-0.2825,-0.2993,-0.2875,-0.3475,-0.3649,-0.3608,-0.4298,-0.4443,-0.423,-0.4973,-0.5182,-0.5052,-0.5214,-0.5312,-0.5312,-0.5312,-0.5312,-0.5312,2.048,2.0494,2.0511,2.0574,2.0575,2.0575,2.0575,2.0527,2.0494,2.0494,2.0438,2.0432,2.0486,2.0498,2.0515,2.0575,2.046,2.0026,1.917,1.986,2.0302,2.0302,2.0302,2.0153,1.9845,1.9887,1.9907,1.9907,2.0023,1.966,1.8881,1.8755,1.8193,1.73,1.723,1.7202,1.72,1.7288,1.789,1.8808,1.8947,1.9515,2.0302,2.0302,2.0302,2.0267,2.0069,1.9923,1.98,1.9653,1.9429,1.9032,1.7937,1.7005,1.607,1.5018,1.4076,1.3346,1.3059,1.1906,1.068,1.0291,0.9585,0.88,0.8064,0.7753,0.7538,0.7256,0.672,0.6212,0.5954,0.5285,0.4765,0.475,0.4491,0.4309,0.4329,0.4329,0.4228,0.3928,0.3709,0.335,0.2783,0.2413,0.1774,0.078,0.0312,-0.0445,-0.157,-0.1685,-0.1753,-0.1799,-0.1388,-0.1366,-0.1799,-0.1811,-0.1806,-0.1808,-0.2389,-0.2501,-0.2219,-0.2913,-0.3109,-0.2936,-0.4019,-0.4113,-0.3563,-0.475,-0.4988,-0.4634,-0.5116,-0.5312,-0.5312,-0.5312,-0.5312,-0.5312,2.0422,2.0415,2.0429,2.0438,2.0438,2.0438,2.0438,2.0432,2.0415,2.0415,2.0447,2.0482,2.0498,2.0498,2.0482,2.0451,2.0374,2.0241,2.0033,2.0206,2.0302,2.0302,2.0302,2.0269,2.0189,1.9545,1.9225,1.9225,1.8576,1.8167,1.7984,1.7895,1.7661,1.73,1.7279,1.7223,1.7137,1.7368,1.7974,1.881,1.8947,1.9523,2.0302,2.0302,2.0302,2.0267,2.0069,1.9983,1.9923,1.9682,1.9154,1.8387,1.7206,1.6178,1.5177,1.4157,1.363,1.3346,1.3059,1.2588,1.1845,1.0526,0.9935,0.9376,0.8177,0.787,0.7717,0.7287,0.7085,0.6759,0.6039,0.5587,0.5261,0.5044,0.4611,0.437,0.4591,0.4611,0.443,0.3948,0.4023,0.3834,0.3086,0.2522,0.2024,0.1569,0.087,0.0223,-0.0356,-0.0847,-0.132,-0.1775,-0.1252,-0.123,-0.1799,-0.1798,-0.1791,-0.1808,-0.2141,-0.2263,-0.2221,-0.2638,-0.2792,-0.2762,-0.3343,-0.3494,-0.3424,-0.4346,-0.4695,-0.4634,-0.5116,-0.5312,-0.5312,-0.5312,-0.5312,-0.5312,2.0352,2.0347,2.0357,2.0397,2.0401,2.0401,2.0401,2.0366,2.0357,2.0397,2.0432,2.0444,2.0444,2.048,2.0314,1.9822,2.0102,2.0116,1.9715,2.0063,2.0302,2.0302,2.0302,2.0302,2.0302,1.9456,1.9206,1.9621,1.8744,1.8095,1.7639,1.7133,1.662,1.6149,1.6091,1.6267,1.6604,1.6401,1.7276,1.878,1.8486,1.9148,2.0302,2.0302,2.0302,2.0294,2.0179,2.0078,1.9906,1.928,1.8765,1.813,1.6597,1.5652,1.4911,1.3903,1.3518,1.3346,1.3059,1.2571,1.1893,1.0915,1.0295,0.9546,0.8207,0.7724,0.7486,0.7249,0.6949,0.6558,0.6003,0.5678,0.541,0.5146,0.4868,0.473,0.4868,0.4888,0.4691,0.415,0.4211,0.3937,0.3001,0.2478,0.2092,0.182,0.141,0.0826,0.0045,-0.0291,-0.0604,-0.0942,-0.0625,-0.0893,-0.1798,-0.1799,-0.1807,-0.1804,-0.2076,-0.2246,-0.2349,-0.2576,-0.2714,-0.2712,-0.3132,-0.3196,-0.3099,-0.4175,-0.4473,-0.4379,-0.5055,-0.5312,-0.5312,-0.5312,-0.5312,-0.5312,2.0305,2.0299,2.0323,2.0371,2.0381,2.0381,2.0381,2.0341,2.032,2.038,2.0401,2.0408,2.0401,2.0438,2.0152,1.9368,1.9921,1.9986,1.9273,1.99,2.0302,2.0302,2.0302,2.0302,2.0302,1.9556,1.9469,2.0073,1.9196,1.8378,1.7594,1.675,1.6006,1.5364,1.5255,1.5631,1.6317,1.5714,1.677,1.8785,1.8174,1.8879,2.0302,2.0302,2.0302,2.0302,2.0302,2.0101,1.9688,1.8815,1.8286,1.7711,1.6079,1.5261,1.4719,1.3844,1.3469,1.3269,1.2997,1.233,1.1615,1.1233,1.0583,0.9715,0.8444,0.7783,0.7388,0.7239,0.6726,0.6236,0.6003,0.5739,0.5487,0.5209,0.5132,0.5108,0.5108,0.5108,0.4908,0.443,0.4289,0.3855,0.2869,0.2478,0.2178,0.1883,0.1751,0.1254,0.0202,0.0045,0.0,0.0,0.0,-0.0491,-0.1478,-0.1702,-0.1781,-0.1749,-0.1901,-0.2162,-0.2491,-0.2646,-0.2716,-0.2712,-0.3068,-0.3004,-0.278,-0.4016,-0.4312,-0.4088,-0.4957,-0.5312,-0.5312,-0.5312,-0.5246,-0.5182,2.0298,2.0298,2.0306,2.0311,2.0311,2.0311,2.0311,2.0308,2.0303,2.0315,2.0412,2.0462,2.0414,2.0362,2.0278,2.0149,2.024,2.0242,2.0129,2.0227,2.0302,2.0302,2.0302,2.0302,2.0302,2.0009,1.9637,1.9179,1.8302,1.7811,1.7682,1.7487,1.7343,1.7228,1.7221,1.7286,1.7389,1.7349,1.797,1.8958,1.8859,1.9417,2.0302,2.0302,2.0302,2.0302,2.0302,1.9796,1.9085,1.8705,1.7621,1.6307,1.5633,1.4805,1.3994,1.3696,1.3345,1.3005,1.2732,1.2392,1.1919,1.1071,1.0777,1.0418,0.9434,0.8791,0.8178,0.7367,0.6983,0.6664,0.6236,0.5979,0.5763,0.5487,0.5248,0.5108,0.5108,0.5108,0.4991,0.4691,0.4228,0.372,0.3111,0.2786,0.2502,0.2176,0.1604,0.114,0.0804,0.029,0.0,0.0,0.0,-0.009,-0.0245,-0.1284,-0.1718,-0.1541,-0.1232,-0.1551,-0.241,-0.2625,-0.269,-0.2714,-0.2746,-0.2746,-0.2779,-0.3695,-0.4056,-0.4088,-0.4957,-0.5312,-0.5312,-0.5312,-0.5052,-0.4695,2.0302,2.0302,2.0302,2.0302,2.0302,2.0298,2.0301,2.0299,2.0331,2.0401,2.0432,2.0432,2.0401,2.0338,2.0299,2.0302,2.0302,2.0302,2.0302,2.0187,2.0134,2.0134,2.006,2.0021,2.0021,1.9932,1.9742,1.945,1.8684,1.8305,1.8302,1.7814,1.7606,1.7606,1.7606,1.7889,1.8348,1.7893,1.8475,1.9677,1.9203,1.9513,2.0294,2.0179,2.0134,2.0067,1.9626,1.9206,1.873,1.7661,1.6772,1.5951,1.5104,1.4418,1.3862,1.3654,1.3328,1.2942,1.2668,1.2404,1.2059,1.1501,1.1371,1.1109,1.0178,0.9659,0.9036,0.7795,0.7196,0.6727,0.6141,0.6052,0.5883,0.5363,0.531,0.5272,0.5127,0.5108,0.4952,0.4531,0.413,0.3678,0.3153,0.2851,0.2502,0.2022,0.1699,0.1502,0.141,0.0512,0.0,0.0,0.0,0.0,0.0,-0.0518,-0.1027,-0.1507,-0.1765,-0.2137,-0.2556,-0.2664,-0.2645,-0.2584,-0.2584,-0.2584,-0.2647,-0.3522,-0.3778,-0.3709,-0.4655,-0.5033,-0.505,-0.5217,-0.5017,-0.4599]}]]